GFSGBSN_250_spd_000.txt.gz
Wind_Speed
46 48 46 44 44 46 48 51 52 54 58 57 56 56 55 53 55 60 64 71 70 71 74 76 77 78 78 77 78 76 71 68 65 61 57 56 53 45 43 45 49 45 50 50 52 56 57
52 50 48 47 46 46 47 47 52 52 55 55 54 55 53 52 52 56 60 62 65 66 71 74 77 79 80 80 76 77 75 72 68 64 63 58 53 52 51 51 47 47 48 48 52 54 57
53 53 52 46 44 46 46 46 48 49 49 51 51 52 52 50 52 52 55 58 63 69 75 78 79 79 80 77 77 79 75 73 72 68 64 57 59 59 58 58 55 55 52 50 52 56 59
57 53 51 49 46 41 42 42 41 43 44 46 49 49 51 51 54 52 53 56 63 73 81 84 84 83 82 78 79 78 76 75 72 71 64 61 60 63 59 65 62 59 58 59 60 59 56
64 58 53 45 43 42 37 36 39 40 42 43 45 46 49 52 54 54 53 50 51 58 67 76 82 81 80 78 77 77 76 74 72 73 69 66 68 64 65 65 66 65 60 60 61 60 60
69 65 60 51 44 41 41 38 36 39 41 40 43 46 48 52 52 49 49 46 45 53 63 72 76 76 75 73 74 75 74 74 74 73 72 72 70 67 67 73 70 71 68 65 64 61 59
72 67 57 52 51 47 38 41 40 39 40 42 40 43 47 52 51 47 45 43 42 52 66 73 74 73 73 72 71 71 70 73 76 75 74 75 75 69 74 77 75 74 73 65 65 66 63
75 68 56 51 53 56 54 54 50 48 44 44 43 42 45 52 50 47 42 42 39 51 67 73 76 75 74 72 68 66 68 70 71 75 80 80 78 79 79 80 81 84 83 74 70 72 69
81 72 61 55 53 57 66 69 64 63 55 49 49 48 45 47 54 50 44 41 37 45 61 70 75 74 75 73 73 74 77 76 77 78 82 82 83 85 89 88 85 83 82 82 78 76 73
88 81 70 68 67 70 69 68 68 70 75 64 55 55 51 49 54 54 48 44 43 39 43 63 73 75 75 75 72 75 75 76 76 79 82 83 87 90 90 87 86 84 85 88 87 85 79
93 87 81 78 77 71 63 58 56 55 56 72 66 60 62 58 49 52 58 56 47 41 34 43 50 61 64 68 67 74 73 77 78 80 79 79 79 83 83 87 88 86 91 95 96 93 86
96 92 86 81 76 66 57 50 47 44 43 50 62 66 67 63 52 52 65 58 49 45 36 33 39 44 50 53 56 62 67 66 64 63 61 67 71 74 77 82 81 83 86 89 89 90 81
100 95 90 84 74 62 52 46 41 39 38 41 47 57 68 65 58 58 59 57 55 49 41 36 38 38 37 37 40 42 45 49 56 62 66 71 78 82 83 87 86 83 84 82 79 78 61
102 98 92 85 74 60 53 44 37 33 32 36 41 47 57 67 64 60 57 51 49 51 51 45 42 40 39 37 39 42 45 51 57 63 72 80 83 84 82 79 76 70 71 67 69 66 64
104 100 94 84 73 61 53 43 33 25 26 31 35 41 43 65 64 64 59 49 42 49 49 49 46 43 40 40 39 43 48 54 58 67 75 81 78 73 71 72 72 65 67 70 67 64 60
105 101 95 84 71 61 52 41 29 20 19 24 29 34 38 62 71 69 59 52 48 44 44 43 42 41 40 38 41 43 47 50 59 64 67 70 62 49 40 47 54 56 61 65 64 62 58
106 99 94 83 69 60 49 39 24 16 13 19 26 28 37 54 66 72 58 53 49 45 39 35 36 36 35 36 39 41 42 50 50 54 49 50 54 52 43 35 37 38 39 43 49 49 51
106 98 93 81 68 57 46 35 18 8 12 19 21 26 37 52 67 69 60 57 54 45 40 37 32 33 32 36 37 35 39 36 21 15 22 33 44 42 36 29 23 23 24 25 27 35 37
107 98 92 78 66 54 42 28 15 3 10 15 17 29 35 50 63 61 60 63 53 47 44 38 36 33 35 36 31 31 13 9 8 10 8 16 25 19 12 8 11 4 1 7 14 18 23
106 97 91 76 63 51 39 22 12 2 12 19 18 18 24 34 45 51 61 62 56 52 47 41 37 37 37 33 27 16 20 11 11 7 12 16 19 20 20 25 19 18 16 6 9 15 18
105 97 89 74 61 48 36 21 11 7 8 15 21 22 24 24 33 41 53 59 57 55 49 45 42 40 36 29 25 24 21 19 12 11 9 13 24 29 30 30 27 22 20 12 5 3 10
103 98 86 72 58 45 33 20 11 10 4 10 17 26 32 35 36 43 53 61 60 57 51 48 45 42 36 29 28 34 24 23 16 7 9 13 23 26 28 29 32 26 19 15 10 13 20
100 95 87 70 56 45 29 16 11 8 3 10 19 23 26 27 31 41 52 61 63 58 54 51 47 43 36 32 33 31 27 27 17 10 8 10 17 20 20 26 23 26 23 28 20 26 23
97 91 88 73 55 44 31 16 8 5 2 10 15 18 24 31 37 40 42 50 57 58 57 56 51 40 36 36 28 28 32 25 15 11 7 5 18 16 13 16 20 17 15 26 24 28 24
92 88 84 74 55 45 32 17 4 1 4 7 12 19 27 30 30 33 42 44 48 48 52 50 43 42 41 35 32 35 34 24 18 11 13 14 8 15 15 22 17 23 13 16 14 20 26
89 84 78 74 56 44 33 19 10 4 7 12 13 19 23 26 32 35 41 44 48 51 51 47 46 45 40 37 30 39 30 24 18 15 19 20 14 18 8 12 10 22 13 14 11 3 9
85 81 75 67 57 43 34 22 11 7 9 14 17 22 27 30 35 40 44 47 48 50 50 48 46 46 39 33 32 39 32 27 21 19 22 23 20 17 17 13 10 15 10 2 7 12 8
80 77 72 63 54 43 33 25 16 11 10 14 20 23 28 36 39 44 46 50 51 51 49 44 42 38 36 34 34 35 31 35 34 26 25 20 18 20 17 18 15 14 11 10 10 8 9
78 74 69 62 49 41 31 25 19 15 13 14 18 25 32 38 42 46 48 52 54 52 46 40 38 38 35 34 37 30 29 29 32 24 28 31 29 20 21 21 18 15 16 15 16 21 22

GFSGBSN_250_spd_003.txt.gz
Wind_Speed
68 58 48 42 41 38 37 39 44 49 53 56 60 63 69 70 68 67 64 63 64 68 72 81 85 83 78 76 77 81 78 75 74 73 69 64 60 58 55 51 45 43 48 48 53 55 58
73 60 51 45 42 39 38 37 40 44 51 55 58 60 65 67 67 66 63 62 61 62 68 74 84 82 78 77 74 76 76 79 80 77 74 69 67 63 59 56 51 51 49 48 47 53 55
78 67 58 50 46 41 36 37 36 40 45 51 54 58 62 63 63 63 63 61 59 61 63 70 81 83 81 77 77 78 76 74 73 72 73 71 71 68 62 59 57 54 55 54 57 56 47
83 75 62 56 51 43 37 35 37 38 40 46 47 49 54 59 58 60 61 59 58 60 59 65 74 78 80 77 78 79 79 78 76 75 73 72 72 70 67 65 63 60 59 62 62 58 56
89 80 69 61 53 44 39 38 37 38 40 44 46 45 47 51 52 56 58 57 57 56 54 59 67 74 74 75 76 78 79 79 79 79 76 74 73 71 69 70 68 67 62 62 63 64 63
93 88 77 68 60 51 44 39 41 41 42 43 47 47 45 46 48 52 54 56 55 53 51 55 60 65 69 72 76 77 78 77 78 77 75 73 72 71 71 74 73 68 66 66 65 68 69
95 90 84 74 65 58 56 56 56 52 53 52 49 50 48 45 45 49 49 53 53 53 56 56 57 61 71 75 76 77 78 78 77 77 75 74 72 74 77 75 75 74 73 71 71 73 73
97 91 84 77 66 59 58 63 64 61 61 63 59 55 54 49 47 47 46 52 56 54 56 53 54 59 70 80 83 82 79 78 78 77 74 75 76 77 78 77 77 78 76 78 79 80 80
101 94 87 78 70 68 70 64 60 57 51 53 61 59 59 56 49 42 44 54 54 52 49 47 48 50 59 66 74 80 79 78 76 74 74 74 74 77 75 77 81 83 84 85 85 87 84
103 97 90 82 74 73 70 63 55 50 45 43 47 51 60 60 52 45 43 51 54 49 44 42 37 43 51 59 65 71 73 73 70 70 69 70 75 76 77 79 85 86 89 94 94 91 87
104 99 92 85 77 75 68 60 50 46 40 36 37 43 53 63 58 47 44 52 56 49 41 38 29 39 50 55 63 65 65 66 65 67 69 71 74 76 80 88 93 94 93 94 94 92 88
108 102 95 86 79 75 66 59 51 43 37 35 33 36 42 61 60 51 47 52 56 47 35 31 27 34 42 50 61 61 61 61 65 67 70 72 72 78 84 88 88 90 88 84 81 77 65
110 103 96 88 82 78 67 61 51 38 32 29 30 31 34 49 63 57 54 55 46 43 35 30 29 31 37 46 56 59 59 60 62 63 64 65 69 70 74 76 80 82 86 82 81 83 74
111 105 97 90 87 80 69 63 49 34 27 26 25 28 32 44 65 64 58 53 40 45 40 34 33 31 31 37 44 45 49 55 52 51 49 50 54 66 73 80 83 89 85 80 83 83 76
112 107 98 95 89 80 70 62 47 33 22 18 19 24 33 41 60 65 58 50 37 47 46 40 35 31 30 29 30 32 35 36 37 39 42 50 59 69 76 80 80 76 68 69 73 69 67
113 108 99 95 87 79 71 59 45 32 21 13 16 22 30 36 50 63 60 46 39 40 51 46 42 37 33 31 31 33 34 35 34 38 43 52 61 69 64 52 48 43 42 55 57 54 60
113 106 97 95 88 77 70 56 43 33 22 10 12 18 25 34 45 61 57 47 42 43 45 49 47 42 37 36 35 35 34 30 32 37 44 54 57 53 56 59 57 49 39 36 39 39 48
113 106 97 94 86 77 68 53 42 33 19 4 7 19 26 33 40 50 57 53 49 44 41 45 47 44 40 38 36 33 25 27 32 37 36 37 33 33 36 36 35 34 28 24 25 27 32
113 107 97 92 83 75 65 50 37 26 15 2 15 19 24 27 29 50 59 57 53 46 37 38 39 37 36 36 33 26 24 28 30 24 20 22 22 29 30 23 10 11 11 8 6 7 15
113 107 98 91 82 73 62 47 34 21 15 2 12 15 18 24 34 56 65 59 53 47 41 36 35 37 38 34 28 22 25 22 21 22 23 19 21 27 20 36 39 37 32 22 20 6 5
110 107 98 91 84 74 63 47 34 21 13 2 15 21 24 24 36 50 63 64 57 50 46 41 38 38 36 33 25 24 23 21 21 24 22 21 19 22 27 37 44 44 43 39 36 32 17
107 105 97 92 85 74 62 46 33 22 9 6 10 18 21 25 28 38 54 60 58 54 49 44 41 39 38 31 28 22 24 23 24 23 20 14 11 20 22 38 41 43 48 46 39 30 19
103 102 97 90 83 76 62 50 35 24 10 4 5 17 24 26 29 36 48 62 61 57 53 46 44 43 36 33 30 23 24 27 24 23 16 15 4 11 20 23 28 34 37 40 39 36 30
98 97 96 91 83 78 63 51 35 24 13 6 1 10 21 32 36 38 50 62 63 59 55 50 47 44 38 35 30 26 28 29 23 25 18 10 13 9 11 15 20 23 28 32 38 39 39
94 92 92 89 83 76 64 52 36 25 16 5 3 9 18 25 34 41 52 60 65 62 58 53 49 44 41 37 30 29 32 29 31 26 17 9 4 11 8 16 27 34 20 23 26 28 29
89 88 87 86 79 73 63 52 36 23 15 6 3 7 13 22 29 37 44 57 64 63 59 57 52 47 44 39 33 32 32 28 30 24 15 9 2 7 4 9 16 23 24 25 25 19 18
85 84 83 82 76 69 62 50 36 25 16 9 7 10 12 17 24 31 39 47 57 62 60 56 52 50 46 39 34 33 31 30 30 25 19 16 10 5 2 7 6 11 16 19 20 23 26
81 78 78 78 74 65 58 50 37 25 17 11 8 10 13 17 23 30 37 42 47 53 56 55 54 50 45 39 38 30 28 29 31 30 18 23 19 14 12 6 5 4 8 13 14 18 19
78 74 75 74 70 63 57 47 35 25 17 13 11 11 11 15 22 27 35 40 43 48 53 55 51 46 42 39 38 28 30 34 30 32 29 28 23 21 17 14 15 14 14 13 13 15 16

GFSGBSN_250_spd_006.txt.gz
Wind_Speed
89 82 74 63 52 46 43 39 37 38 39 42 45 51 55 61 65 71 73 75 73 72 70 70 72 72 78 85 87 89 84 86 82 78 78 75 72 69 65 61 56 54 55 53 49 48 51
95 89 80 70 57 48 44 42 40 37 39 41 43 46 53 57 61 64 69 74 75 75 72 73 73 75 78 82 89 88 86 84 83 82 79 76 74 71 69 67 61 57 55 55 54 51 50
98 90 84 74 62 55 49 42 39 38 39 40 43 46 48 57 61 64 66 71 72 75 77 77 75 70 75 79 85 89 88 85 84 82 82 79 77 74 73 70 65 60 59 59 59 57 51
102 93 89 80 68 61 54 46 39 36 38 41 43 45 49 51 56 60 66 69 69 73 73 72 70 69 71 75 81 89 87 85 81 79 79 80 81 77 74 73 73 71 67 65 65 61 55
104 97 94 86 75 66 61 50 44 40 42 43 45 47 47 51 52 54 60 65 66 69 69 68 69 67 67 73 77 86 88 85 82 80 79 78 78 78 78 78 74 74 71 70 68 66 62
107 98 93 88 77 73 64 59 56 56 57 55 55 53 52 52 52 54 54 58 59 61 62 67 69 67 66 67 73 82 87 85 83 81 79 78 76 75 78 77 74 73 72 70 71 72 70
108 101 98 91 78 71 66 57 57 59 61 61 58 56 59 58 55 52 53 49 46 54 62 66 65 65 65 65 70 75 83 85 82 80 80 79 76 79 78 76 76 75 74 74 75 77 75
111 104 101 94 81 74 67 62 59 56 54 52 51 50 51 60 59 54 50 43 49 58 58 60 63 62 62 61 65 72 78 83 83 82 80 80 79 79 81 80 79 78 79 79 80 81 80
113 107 104 98 86 78 72 65 57 48 44 42 42 41 43 48 61 58 48 46 50 55 54 58 58 57 56 56 60 67 73 77 79 78 78 77 78 80 80 79 79 80 79 81 80 81 82
115 110 104 100 90 82 75 65 53 47 42 38 35 36 37 40 55 57 49 50 49 52 54 55 55 56 53 54 56 58 62 68 71 73 74 76 75 76 77 78 78 78 79 81 84 87 88
116 112 107 103 93 87 75 63 55 46 39 34 29 30 30 35 44 56 57 54 49 55 53 54 51 51 54 52 55 57 62 68 73 75 75 73 73 73 74 75 77 80 84 87 91 93 92
117 112 105 102 95 88 75 66 57 46 38 32 24 23 26 32 41 58 60 56 52 54 51 49 49 47 50 48 53 54 56 60 66 71 75 75 71 71 73 75 78 79 81 86 91 95 92
115 111 105 101 95 87 77 68 57 43 36 29 20 17 25 32 43 58 62 57 52 46 42 46 45 45 44 44 43 43 43 46 51 55 59 55 57 60 64 67 69 74 81 85 89 94 94
114 110 103 99 94 86 78 68 56 41 33 26 15 15 27 36 39 57 59 55 44 40 46 46 44 41 37 35 32 33 36 39 38 35 37 42 51 56 62 67 70 75 78 81 87 91 93
114 110 102 98 93 85 77 67 55 42 33 23 13 12 25 33 42 53 55 50 41 41 48 46 42 36 33 30 31 30 30 29 31 36 40 46 51 57 59 57 61 66 76 82 85 78 79
113 110 101 96 90 83 74 66 53 43 35 23 9 9 22 30 36 48 53 51 41 44 51 44 39 35 31 29 28 25 23 27 31 33 38 40 37 43 49 53 60 55 62 61 64 50 56
113 109 101 94 87 80 72 64 52 42 35 24 10 3 17 27 33 47 55 50 44 49 52 45 40 35 32 29 27 23 23 23 23 25 27 31 33 40 47 44 49 51 46 49 57 51 48
111 107 102 95 87 77 72 63 50 40 32 23 9 6 19 23 32 46 53 48 46 49 54 47 40 35 32 28 27 26 24 25 23 24 25 25 34 35 30 29 30 30 33 31 47 49 44
108 104 101 97 88 79 70 63 50 40 30 20 8 6 20 27 34 46 54 49 47 46 52 50 43 37 33 29 27 25 23 22 22 23 21 24 25 24 22 26 34 31 36 24 15 24 27
105 101 99 96 88 79 74 64 51 40 29 19 8 4 21 33 42 52 57 51 47 45 45 50 45 39 36 33 28 25 24 23 22 20 20 22 18 23 15 21 30 34 37 38 28 19 15
101 98 97 94 87 79 72 64 51 39 29 19 10 6 23 32 44 60 59 56 51 44 41 45 49 44 40 36 31 26 26 24 20 18 19 18 10 17 16 15 24 33 42 44 39 35 29
98 96 95 92 87 77 70 63 51 37 28 15 8 5 20 37 45 57 61 59 51 45 40 40 41 41 40 35 31 27 26 21 17 15 17 14 12 12 13 16 19 27 37 41 46 44 32
96 93 92 90 86 77 68 63 52 38 28 17 9 3 15 27 44 57 65 64 57 49 42 40 40 42 39 36 32 28 26 19 19 15 15 18 16 12 17 10 15 20 31 38 42 47 46
92 90 89 88 83 76 69 64 54 40 26 18 12 4 9 22 36 53 61 60 57 52 48 44 42 41 39 35 31 31 26 20 18 17 20 21 11 13 5 17 13 17 32 41 43 40 45
88 88 85 85 81 75 68 62 57 46 31 20 10 3 4 18 34 43 56 59 59 55 53 48 45 42 39 35 33 32 26 18 18 21 25 21 17 15 10 11 16 24 30 35 36 40 40
84 85 81 80 78 74 67 59 57 47 36 22 15 5 4 13 29 48 58 67 63 59 55 51 48 45 42 37 35 33 25 20 21 24 24 17 17 13 6 5 14 22 25 28 33 33 35
79 82 79 75 75 71 67 59 54 49 37 25 18 10 6 13 20 37 51 64 67 64 60 56 51 48 43 39 38 35 25 22 25 24 20 23 19 18 11 10 11 13 17 22 23 26 31
75 78 75 72 69 68 63 58 52 47 39 27 17 12 9 12 17 27 44 56 66 66 63 58 52 50 44 41 40 36 29 24 28 28 24 26 22 20 14 13 10 13 12 15 22 25 26
73 75 72 69 66 63 61 53 51 47 38 27 18 14 12 11 18 23 33 50 62 64 63 60 56 52 48 45 43 36 30 29 33 35 28 28 24 26 23 22 19 18 16 21 24 24 26

GFSGBSN_250_spd_009.txt.gz
Wind_Speed
102 97 92 86 81 75 68 60 53 46 40 37 40 41 47 53 60 65 69 72 77 76 78 81 79 77 76 74 79 84 83 85 85 86 82 79 78 76 72 70 70 72 71 66 63 61 63
105 102 96 89 82 77 71 62 54 49 41 38 39 42 44 50 55 62 67 71 74 77 79 81 84 81 80 76 73 82 84 84 85 84 87 85 81 77 75 74 70 72 72 69 67 63 61
108 108 103 96 87 80 73 66 60 50 43 41 39 41 45 47 49 56 63 68 70 74 76 81 81 82 82 78 78 76 82 88 89 86 85 86 89 84 80 79 76 76 74 70 67 66 60
112 111 107 97 92 83 75 67 65 57 49 43 45 44 46 48 49 50 54 64 68 72 76 78 79 79 82 81 78 74 77 81 87 90 88 87 87 86 86 82 82 78 75 73 70 70 66
114 114 109 98 92 85 74 66 63 59 58 60 54 52 52 52 53 51 51 55 66 71 72 74 77 82 81 84 78 76 75 79 79 87 90 91 89 86 87 84 80 80 76 75 73 72 69
118 117 112 102 95 89 80 71 64 58 59 64 68 62 58 58 59 56 54 54 60 68 70 72 74 79 80 81 80 79 76 75 78 82 88 91 90 89 86 85 85 82 79 77 77 76 75
122 119 114 107 99 91 83 75 66 61 57 54 57 59 58 55 63 64 60 59 57 53 57 69 75 71 81 82 79 77 70 68 73 76 82 88 89 91 89 85 84 85 85 82 82 80 78
124 121 116 109 103 96 88 81 73 66 58 53 51 51 51 48 53 66 67 61 52 52 59 65 70 72 73 74 74 70 65 64 67 70 74 85 89 87 85 85 84 83 83 82 81 82 80
125 124 118 110 105 100 93 84 76 67 58 52 47 45 44 42 47 58 70 66 55 56 56 53 56 64 70 67 66 66 64 63 64 66 71 77 89 85 83 82 82 82 81 82 83 83 82
126 125 117 110 104 100 92 82 76 65 56 49 43 36 33 39 46 51 65 69 60 56 57 53 50 58 61 60 60 58 59 58 59 63 66 72 81 83 82 82 83 82 82 83 84 84 85
128 125 117 108 103 99 92 83 76 65 52 44 35 28 26 33 40 50 56 67 65 59 58 53 49 50 55 54 54 55 54 53 54 60 63 66 76 80 81 82 81 83 83 85 87 89 87
129 124 115 107 101 98 91 83 74 62 48 41 33 22 20 27 38 45 53 69 70 64 58 44 43 48 49 47 49 50 47 49 52 53 57 60 64 72 76 79 82 82 82 83 85 86 85
129 125 113 106 98 95 89 82 69 58 45 38 30 19 15 24 34 43 51 67 71 61 41 40 42 45 44 44 45 45 47 48 50 52 55 59 64 67 70 73 75 75 75 78 81 84 84
128 123 110 104 96 92 86 79 68 55 41 36 27 15 10 16 31 38 48 62 60 42 41 36 42 43 41 40 40 43 44 44 46 48 50 51 56 62 66 68 69 72 74 77 75 77 76
126 121 107 101 94 89 82 76 65 51 39 35 26 14 5 18 26 34 43 54 48 42 40 37 37 36 35 37 39 41 42 44 45 47 48 47 47 47 45 45 46 42 49 62 72 79 83
124 117 103 99 93 88 82 75 62 49 39 34 27 14 2 11 23 31 37 44 45 43 38 37 41 39 39 37 37 38 39 38 35 32 27 22 20 22 25 27 36 45 53 61 71 75 82
120 111 100 97 90 85 81 76 63 48 37 32 28 13 6 12 21 31 42 46 48 41 36 39 40 36 33 31 30 31 31 30 27 23 20 19 19 22 24 28 37 43 45 44 48 59 68
115 105 98 94 88 82 79 74 61 46 36 29 25 11 6 14 21 34 47 49 44 40 40 41 40 34 28 28 28 31 32 29 25 19 17 16 16 19 25 28 27 25 23 32 39 51 49
109 102 97 91 84 78 77 73 61 47 35 26 25 13 7 15 24 41 48 48 43 40 42 43 40 33 28 30 32 32 31 26 22 21 17 17 19 22 19 14 13 19 29 35 38 43 43
101 98 95 91 81 74 74 71 61 47 36 28 26 12 7 15 24 42 45 46 43 43 47 45 39 31 30 32 31 30 28 24 22 18 17 16 19 15 12 8 11 20 28 33 39 43 44
94 94 92 89 80 71 68 67 60 47 37 29 23 8 3 20 26 40 47 45 41 44 48 45 40 33 32 34 33 29 26 22 19 17 16 15 11 11 11 8 14 17 24 32 37 45 46
89 88 89 86 80 70 66 65 58 46 37 29 20 9 7 14 30 38 41 42 40 43 47 45 41 36 34 32 28 25 22 19 19 17 15 14 10 7 11 14 11 13 22 29 37 44 46
84 84 85 83 80 74 64 61 57 47 36 29 18 9 8 19 30 40 46 47 45 44 49 48 45 38 35 33 31 25 22 21 20 16 14 13 10 8 7 6 6 12 22 29 41 46 44
79 80 81 79 75 74 66 60 58 51 39 31 19 8 3 18 32 45 47 46 45 42 44 48 48 43 39 36 32 28 25 23 20 13 15 13 14 6 2 2 7 12 15 22 32 40 43
76 76 77 74 72 69 69 62 58 52 41 31 24 10 3 15 31 46 51 51 48 44 43 43 46 47 43 38 34 32 27 24 19 17 18 19 17 14 9 3 3 8 14 22 31 38 38
71 72 72 70 69 66 65 63 61 53 44 34 23 15 3 11 28 41 55 55 51 48 45 43 44 45 43 40 39 33 28 26 23 22 22 21 19 14 10 10 9 12 16 22 31 40 40
68 68 68 66 64 62 64 61 62 56 45 36 28 18 11 11 23 40 51 60 55 54 50 46 44 44 43 41 39 35 30 28 27 24 22 21 23 17 16 14 12 11 16 22 26 36 36
64 64 64 61 58 56 59 60 58 58 49 40 32 21 14 11 18 32 53 59 59 55 53 49 46 45 44 43 38 34 32 31 27 25 27 27 21 20 18 17 16 15 19 24 26 27 32
62 60 61 59 54 54 53 55 56 53 51 41 32 26 17 16 18 25 40 58 61 62 56 53 50 49 46 43 40 37 33 34 28 25 29 27 27 25 23 24 20 23 24 27 30 30 32

GFSGBSN_250_spd_012.txt.gz
Wind_Speed
111 110 108 109 107 102 93 86 81 74 65 54 54 49 42 44 48 52 59 65 70 76 79 86 87 86 83 82 81 83 83 83 84 83 84 80 78 77 75 74 75 72 70 72 73 71 70
113 114 114 113 110 105 95 89 83 78 71 65 55 51 49 44 48 51 56 63 68 73 78 83 87 87 85 81 81 83 81 82 82 81 83 83 80 79 78 75 77 74 74 72 72 72 71
116 117 116 118 114 107 98 88 84 79 74 72 65 54 51 52 48 51 53 59 66 71 74 79 84 82 86 85 81 84 80 79 82 81 81 81 82 84 77 78 76 76 77 77 71 73 72
117 120 119 120 119 112 103 93 88 77 69 69 68 67 61 54 57 52 53 55 61 68 73 77 81 80 83 81 81 83 79 76 79 80 80 80 82 85 84 80 78 79 77 77 76 75 74
120 121 122 121 121 116 108 97 90 83 73 64 63 65 69 65 55 59 53 55 58 64 70 74 78 82 80 81 80 81 80 77 73 75 80 81 81 84 86 86 85 80 78 79 80 79 78
122 123 125 124 122 118 111 102 97 90 79 69 60 57 56 61 53 55 57 56 58 60 66 70 73 77 77 82 83 82 81 80 76 74 75 74 81 83 84 86 85 86 85 82 81 79 78
122 124 125 126 124 119 111 103 98 91 81 69 59 54 48 46 47 44 58 59 59 57 58 55 67 72 77 79 80 80 82 81 79 78 75 72 71 82 86 85 88 84 84 85 86 85 85
123 126 127 127 124 118 109 103 99 91 80 68 59 49 42 38 33 34 53 59 60 56 53 55 60 63 71 72 73 75 77 82 82 81 78 72 71 74 79 84 89 89 89 88 85 85 82
122 127 128 128 123 116 109 104 100 90 76 66 55 47 40 35 29 29 47 59 60 58 54 53 56 60 67 68 69 70 73 73 77 77 80 77 75 74 74 77 83 90 89 90 87 85 84
123 127 127 127 122 115 108 104 98 85 73 62 54 45 35 29 25 26 44 57 62 59 56 53 50 53 64 67 69 70 69 72 74 75 79 77 74 69 74 76 78 79 82 85 87 86 83
122 127 128 127 119 113 107 104 98 83 71 59 52 43 30 25 22 24 41 53 61 63 57 53 49 51 52 61 65 67 68 68 70 73 73 73 71 65 65 66 66 70 74 82 84 84 83
123 126 128 126 117 111 106 102 96 79 68 57 49 40 27 21 15 22 37 46 55 64 59 46 43 43 42 45 56 65 65 66 69 70 69 68 64 59 57 57 60 62 67 75 80 78 77
123 125 126 124 115 109 104 100 93 75 64 56 45 33 22 15 11 20 28 36 49 63 52 47 39 37 37 40 45 49 57 60 55 53 52 52 51 49 50 52 54 56 60 65 72 75 74
121 124 124 121 113 107 103 98 90 73 61 52 42 30 22 15 6 12 17 29 43 59 55 43 38 32 32 36 39 43 45 44 43 39 42 42 40 43 46 47 48 50 54 62 65 69 71
120 123 121 116 109 103 101 99 87 71 60 50 39 30 18 8 3 13 22 27 36 57 52 43 33 29 30 34 37 37 37 36 37 36 36 38 40 39 42 45 48 51 53 58 61 66 69
118 120 117 112 105 99 96 97 85 70 59 48 34 30 16 8 5 15 24 36 47 52 47 39 35 31 33 33 32 32 32 33 32 33 34 38 39 40 42 42 45 49 46 45 47 49 51
116 115 114 108 101 95 92 92 83 67 56 46 31 28 15 10 9 15 25 35 47 50 43 36 31 28 32 35 35 32 28 29 33 35 35 34 37 39 38 30 23 21 23 30 38 45 49
113 111 108 102 97 91 86 86 80 67 57 45 29 27 15 10 8 16 24 35 43 45 39 32 27 30 31 26 23 23 26 30 33 33 33 33 32 25 17 14 15 19 24 28 29 35 39
110 106 101 98 94 88 83 77 77 65 56 45 28 30 18 11 12 25 32 40 43 39 34 31 32 32 29 27 26 27 28 29 29 29 30 26 21 17 12 12 15 19 18 18 25 31 37
106 99 95 92 92 86 80 72 72 62 54 43 30 26 18 10 14 29 38 41 41 35 29 33 34 31 27 24 26 27 27 30 33 32 26 21 16 12 9 11 15 11 13 19 21 30 36
102 94 89 86 89 85 80 71 63 58 53 43 35 26 18 10 10 25 35 38 34 30 32 37 34 28 25 24 23 27 33 34 31 27 22 16 13 9 10 7 10 5 13 14 23 37 37
97 88 83 81 84 84 81 72 58 54 50 45 34 26 17 9 7 12 21 23 26 29 38 37 31 27 26 27 28 30 31 29 26 22 18 15 9 9 6 4 4 5 13 14 30 35 39
90 84 77 76 78 79 79 73 62 51 48 46 36 26 15 7 12 20 23 26 28 32 38 37 32 30 32 32 31 29 27 25 22 19 17 11 9 7 6 3 6 6 11 18 25 37 35
85 79 73 73 72 74 74 72 64 51 44 43 38 26 13 3 18 23 28 30 30 34 39 39 36 33 32 31 30 29 26 22 20 17 13 12 17 9 9 7 3 5 13 19 24 33 34
79 75 69 69 68 69 68 68 63 56 43 37 36 27 17 7 18 28 30 33 32 34 42 42 38 35 32 31 30 28 23 21 21 18 13 13 12 9 9 7 9 9 14 20 26 33 40
74 71 66 65 65 66 65 62 60 56 49 37 32 28 18 12 18 30 37 37 37 37 42 45 43 39 36 34 32 29 24 24 23 20 15 16 13 13 5 6 11 10 15 16 27 34 38
70 66 63 60 63 62 63 59 54 54 52 45 32 29 22 15 16 28 35 43 48 45 43 45 45 44 41 38 35 31 27 28 25 22 17 16 18 17 15 10 12 16 16 19 25 31 38
68 62 60 57 59 61 60 56 52 49 50 48 42 33 29 20 17 24 39 48 50 48 46 44 45 46 46 44 39 34 31 31 27 23 20 17 16 19 17 15 13 15 18 21 25 29 29
64 60 57 56 57 60 58 53 49 46 46 44 43 39 35 29 20 23 31 47 54 54 51 48 46 46 46 47 43 37 35 31 27 24 19 18 19 19 19 20 18 19 20 24 26 26 26

GFSGBSN_250_spd_015.txt.gz
Wind_Speed
112 111 111 112 110 109 108 103 98 91 82 79 77 73 67 59 51 43 44 50 64 69 73 79 82 87 88 82 85 83 87 86 86 84 84 82 80 77 76 75 77 75 75 75 77 76 74
114 112 112 113 113 111 109 104 98 93 83 79 79 78 72 62 56 49 43 49 56 69 73 77 82 86 88 86 85 84 82 84 84 84 84 83 83 79 77 75 73 72 74 73 74 76 75
114 112 113 114 116 115 111 106 100 96 90 82 76 72 69 68 55 54 46 45 53 62 73 76 79 83 86 89 89 86 85 83 83 86 85 86 84 83 81 78 72 71 72 73 77 79 75
114 114 114 116 119 117 113 109 106 101 94 87 77 71 64 59 52 48 50 46 50 56 66 75 77 78 84 85 93 91 86 84 83 82 84 84 84 82 81 81 77 73 74 73 80 77 76
114 116 115 115 119 117 114 110 106 101 95 87 80 72 61 51 46 40 43 46 47 54 62 71 74 75 81 85 91 91 86 87 86 83 81 80 81 81 78 79 81 79 75 78 79 75 75
115 118 118 115 120 118 115 112 110 105 97 86 79 67 52 43 36 31 34 45 47 51 58 65 69 72 76 84 92 89 87 87 87 83 77 77 77 77 78 79 81 84 81 76 77 78 75
113 116 118 117 121 119 115 115 112 106 97 86 77 60 47 38 32 25 26 42 50 50 54 50 59 69 75 81 84 94 88 84 82 79 78 72 71 73 78 77 79 81 83 84 85 82 79
115 118 120 119 121 120 116 114 112 106 97 87 77 60 46 37 32 25 27 37 47 46 49 51 59 63 73 74 78 87 87 86 84 79 75 74 74 74 67 69 73 75 79 84 87 87 83
115 120 122 121 121 121 117 113 111 104 97 86 72 58 48 38 30 20 23 32 43 44 49 52 53 59 64 69 73 80 82 83 82 79 76 73 74 71 64 64 68 71 74 79 82 86 87
115 120 122 121 120 120 118 114 111 103 93 87 73 57 50 39 26 16 22 29 39 46 50 51 49 55 56 58 65 72 74 78 79 84 81 73 75 70 67 68 69 68 67 70 76 84 84
115 119 121 121 119 119 116 113 109 102 95 85 69 55 48 34 21 12 17 26 34 39 48 48 49 50 48 52 56 61 69 73 74 78 80 78 74 73 73 71 69 70 67 68 70 74 79
115 118 120 120 118 117 116 113 110 102 94 84 65 54 44 28 18 9 11 18 25 35 44 43 42 39 41 45 49 52 57 63 67 70 73 72 74 74 72 72 71 71 72 67 69 69 66
115 118 120 119 116 115 114 111 107 99 92 80 62 51 42 27 17 9 1 14 20 27 40 42 39 36 38 40 43 48 54 56 58 60 63 69 69 71 71 71 71 71 71 64 62 59 58
115 118 118 118 113 112 111 109 105 97 90 77 59 48 37 24 14 8 13 14 17 37 38 40 38 33 32 31 33 39 48 51 56 57 60 62 63 68 68 68 66 61 59 54 51 50 49
116 117 117 117 111 110 107 105 102 95 89 74 55 44 34 21 13 8 15 19 27 39 42 39 32 27 25 23 28 33 37 46 54 57 59 58 60 60 59 57 52 49 47 43 40 39 41
115 114 114 114 108 104 103 101 99 92 86 72 54 42 33 22 13 7 19 25 32 38 39 36 34 29 24 24 26 27 33 39 47 51 52 53 49 45 45 39 37 36 36 34 36 40 44
113 112 112 111 106 101 100 96 94 90 83 72 52 38 34 22 11 9 20 29 42 40 36 31 29 23 21 21 24 26 29 31 32 33 37 37 37 36 32 28 28 30 34 35 39 40 38
110 109 110 108 104 98 97 92 89 87 79 69 48 38 32 24 13 5 13 31 39 41 38 31 27 19 18 16 21 22 26 29 30 31 29 31 29 24 25 27 28 30 28 22 19 18 27
106 106 107 105 101 95 94 88 82 83 76 67 48 37 32 26 15 9 14 31 36 37 32 28 21 17 16 24 25 25 27 29 30 30 30 27 25 26 26 27 25 21 14 13 17 20 25
105 105 104 100 96 93 90 87 75 75 73 64 49 39 31 28 17 6 15 30 36 31 26 23 19 19 27 29 29 28 27 26 27 26 28 28 25 28 26 24 17 12 11 14 15 14 25
102 104 101 95 92 89 87 85 75 68 70 62 52 38 31 28 22 9 12 19 25 24 22 20 21 29 30 29 27 27 27 26 26 27 28 28 34 27 22 18 15 14 16 9 9 15 20
100 100 98 91 88 84 83 81 76 67 61 58 50 37 29 23 18 18 19 17 16 16 15 23 28 27 28 27 26 24 23 24 29 33 33 32 25 22 18 16 16 18 15 8 15 17 25
98 97 93 86 84 79 77 76 72 65 57 49 45 38 25 17 10 7 11 15 15 17 25 29 29 26 24 22 20 23 26 30 35 33 28 24 21 19 20 20 19 17 11 12 16 20 27
96 91 87 82 79 73 72 70 70 62 54 45 38 31 23 12 3 4 7 12 13 21 28 28 27 25 24 23 24 27 31 32 30 26 24 22 19 17 19 18 16 10 9 11 17 21 27
92 85 79 76 73 70 66 66 65 63 55 45 34 30 23 14 5 12 15 17 16 22 28 29 26 26 26 28 32 32 31 27 25 24 22 21 23 19 18 17 12 10 9 12 20 23 30
86 79 73 71 67 65 64 64 63 60 56 52 39 23 21 14 11 14 21 25 24 23 30 31 30 28 29 31 32 31 28 26 24 25 21 23 23 19 15 14 9 9 8 15 18 23 28
77 73 70 67 63 61 61 61 60 59 56 52 50 38 19 17 11 16 22 32 32 32 34 37 36 34 33 33 32 30 27 23 23 25 20 21 19 13 14 10 10 10 11 15 18 23 26
71 70 67 64 58 58 57 58 57 58 54 50 49 48 41 20 16 13 20 28 41 38 36 39 42 40 38 37 35 32 29 26 24 27 23 19 15 12 12 11 13 13 14 13 16 20 24
67 67 64 61 57 56 54 56 55 54 53 50 46 46 45 43 27 19 17 24 33 49 47 43 45 44 42 40 38 37 33 30 26 28 26 21 18 14 12 13 16 16 15 16 17 21 25

GFSGBSN_250_spd_018.txt.gz
Wind_Speed
104 104 106 108 110 107 108 107 98 91 89 88 83 73 65 60 49 42 39 37 42 50 61 70 77 83 84 88 90 90 90 92 92 91 89 86 85 82 81 83 86 84 83 80 82 82 78
105 106 108 109 111 111 111 109 103 96 91 90 85 76 64 54 44 41 37 37 42 47 57 67 75 79 84 88 93 89 87 89 91 92 91 88 84 81 81 79 80 76 78 77 78 79 80
104 107 110 112 113 113 114 110 104 97 94 92 87 76 63 51 40 35 33 37 40 46 55 64 73 77 83 91 94 93 90 87 87 89 91 89 90 83 80 79 77 75 75 74 78 83 81
105 109 112 111 113 114 117 113 106 100 96 94 84 73 61 48 39 28 30 35 39 46 52 61 68 74 80 85 94 95 94 90 86 84 88 90 90 89 87 80 78 76 75 74 77 79 78
107 111 113 112 113 116 119 116 109 102 98 95 84 70 58 48 40 27 26 31 38 46 52 58 62 72 80 82 91 97 94 92 90 87 84 87 90 89 88 81 78 75 72 73 76 73 75
108 110 115 114 114 117 120 118 112 104 100 95 85 69 57 49 40 27 22 28 35 46 51 54 58 65 73 82 85 100 97 93 90 88 85 82 82 83 85 84 82 82 80 76 73 72 72
110 112 115 117 115 119 121 119 112 105 102 97 84 70 58 50 40 26 20 28 34 43 48 47 47 57 69 77 79 88 96 95 94 88 82 78 76 74 80 83 83 81 79 78 80 75 70
112 115 117 118 117 119 121 121 115 107 105 98 82 70 59 53 39 24 15 25 28 36 43 42 49 59 65 74 79 84 96 93 91 89 83 79 75 77 77 79 79 77 77 81 81 78 75
113 116 118 118 118 120 122 120 114 108 105 97 82 68 62 51 35 19 9 19 26 33 40 44 50 54 59 67 74 76 88 95 92 89 86 84 79 73 75 72 70 73 76 78 77 78 78
114 117 118 118 118 120 122 121 114 108 104 95 80 68 63 49 32 16 7 16 22 31 43 48 48 50 48 57 66 73 78 85 87 88 85 86 83 77 76 74 69 67 71 72 73 77 76
116 118 119 118 118 119 122 122 115 107 103 92 78 69 59 47 28 12 2 9 15 29 43 47 48 47 43 47 57 66 67 74 81 84 87 82 82 76 77 75 70 66 66 66 66 67 70
115 118 118 117 117 119 120 121 113 107 101 91 77 67 55 43 27 10 9 7 14 27 40 44 42 37 37 42 48 56 63 68 75 76 79 86 78 72 70 68 64 65 65 64 62 62 59
115 118 117 117 117 118 120 120 112 104 99 91 77 65 55 39 29 11 14 12 19 27 36 37 36 35 37 39 42 47 58 61 65 71 74 87 82 75 73 71 68 67 66 65 64 65 63
116 117 116 116 117 119 118 116 111 102 97 87 74 62 48 36 28 16 18 19 23 34 36 40 35 34 33 31 34 43 48 56 57 64 70 73 75 72 72 74 71 71 63 64 64 65 65
116 118 114 114 118 118 116 111 109 101 93 84 72 63 45 35 27 13 17 28 36 36 36 32 31 30 27 26 27 32 38 45 50 54 61 64 66 68 67 70 72 70 66 66 65 64 67
115 117 113 113 117 116 112 106 105 100 93 83 73 63 42 36 32 18 10 25 36 37 37 35 33 25 26 26 27 31 35 38 42 46 49 54 55 59 60 59 61 63 61 64 69 66 62
116 113 112 113 116 113 109 101 99 98 92 83 72 62 43 36 34 21 11 25 32 35 34 31 27 24 21 23 26 28 30 32 38 42 44 48 49 46 46 46 50 55 60 61 57 52 46
114 110 109 111 112 109 104 95 92 91 88 79 68 59 43 35 37 25 10 22 29 30 31 28 24 18 15 17 18 22 27 29 32 37 42 42 44 45 48 48 48 46 46 40 37 34 33
107 105 107 109 108 103 99 90 86 84 82 75 67 57 43 34 33 20 16 21 23 26 25 22 19 13 11 14 15 19 22 24 27 29 33 38 42 44 42 41 38 32 34 32 32 31 31
101 103 104 106 102 95 94 87 81 78 76 72 66 57 47 33 29 19 16 20 19 21 19 18 14 11 12 18 23 22 24 26 27 28 28 29 30 32 34 33 31 32 30 29 26 24 24
99 100 103 102 96 88 87 84 78 75 72 68 63 54 43 32 25 18 13 15 17 16 15 15 11 11 15 21 26 27 29 30 30 31 32 30 29 29 29 30 29 29 28 21 22 21 24
98 100 100 97 88 84 80 76 74 70 64 61 56 48 41 27 20 15 11 11 14 14 12 11 12 14 21 26 28 29 29 30 32 31 30 29 28 29 30 29 29 27 24 23 22 23 21
96 98 97 92 83 79 75 71 69 64 59 53 52 45 37 26 13 8 6 6 7 7 10 13 15 21 24 25 27 27 27 25 26 26 27 28 32 34 32 29 25 25 25 28 27 18 19
94 94 93 85 78 74 70 68 66 63 57 49 42 41 34 29 15 10 4 8 8 10 14 17 21 22 22 22 22 22 23 24 26 27 30 35 36 32 28 26 26 25 27 25 19 15 18
93 91 85 81 74 71 66 64 63 63 57 48 41 34 32 26 23 13 12 14 13 11 16 20 22 21 20 20 21 22 23 24 26 32 35 33 28 26 24 25 25 24 20 21 17 15 17
89 85 79 75 72 67 62 61 60 59 56 53 42 35 26 28 23 22 19 20 21 18 20 22 25 23 22 23 25 27 28 31 36 33 31 27 25 24 26 27 27 24 20 19 17 15 18
82 78 75 71 68 65 60 59 57 56 56 54 49 42 32 21 25 25 22 22 26 26 25 25 27 28 27 28 28 29 35 35 32 30 28 25 27 26 22 21 22 21 19 16 15 15 18
76 72 72 68 65 63 60 58 55 56 53 52 51 46 44 36 20 24 27 25 25 31 31 31 33 32 31 32 33 34 36 34 33 30 27 25 28 24 19 22 19 19 17 15 17 14 16
71 69 69 65 63 61 58 56 54 56 52 53 49 48 46 45 37 26 24 29 27 28 35 37 35 38 37 37 38 38 38 35 33 32 31 27 26 26 18 20 17 17 14 14 15 15 17

GFSGBSN_250_spd_021.txt.gz
Wind_Speed
98 101 103 106 108 105 106 108 109 110 101 90 84 80 74 67 56 50 42 44 47 56 59 64 65 72 80 84 92 97 96 95 98 100 100 102 101 96 98 97 96 96 93 89 89 88 83
98 101 103 105 110 109 110 111 112 113 103 94 87 83 75 64 50 42 37 39 42 53 61 66 66 70 77 83 93 96 97 94 94 101 99 98 101 97 91 92 92 92 91 90 89 87 84
98 101 103 108 113 111 111 114 115 115 106 98 91 85 77 60 44 36 31 33 37 49 62 65 66 68 76 82 90 93 94 96 92 98 101 97 97 95 95 92 90 87 90 89 89 89 86
101 103 105 110 115 116 115 116 118 115 107 100 93 85 74 55 44 34 28 29 31 43 59 64 65 66 74 81 85 94 96 96 94 95 99 97 95 95 90 85 86 83 84 84 84 87 87
102 105 109 113 118 119 116 118 122 115 107 100 95 88 73 55 46 35 28 27 31 38 54 61 62 64 71 78 84 92 98 99 97 92 98 97 95 95 93 90 84 80 77 79 83 84 83
103 107 111 115 120 120 118 119 124 115 108 102 95 88 70 57 46 37 26 24 30 34 49 58 60 62 69 79 81 87 96 97 99 91 90 97 94 92 90 86 83 81 81 81 79 76 75
105 111 113 117 121 120 120 120 124 115 107 101 95 85 66 54 48 36 23 21 27 30 43 52 52 57 65 69 75 80 91 98 97 93 88 90 90 86 89 89 88 83 79 75 77 78 72
109 113 118 119 122 120 121 121 123 114 106 100 95 83 66 53 48 37 23 19 21 26 34 50 54 59 61 66 73 79 85 95 96 93 88 85 81 82 87 87 86 85 83 81 80 77 72
113 116 119 122 122 120 121 122 124 114 106 100 94 83 67 55 46 36 21 13 18 23 32 48 51 52 59 62 69 76 82 88 95 91 86 84 78 80 79 80 84 83 83 85 85 79 75
114 116 120 123 122 119 119 121 124 111 104 99 93 81 64 52 42 33 14 2 15 23 34 47 50 50 52 55 63 72 78 80 90 90 89 88 83 82 75 75 74 75 79 79 79 81 79
113 117 121 123 121 117 119 121 121 108 100 93 90 76 63 48 40 30 10 6 14 21 35 47 48 46 44 44 52 62 68 73 80 88 91 85 81 82 80 76 74 72 70 72 77 76 75
113 118 121 121 120 117 118 120 119 106 97 91 87 74 62 43 36 26 7 10 17 24 38 46 43 37 34 37 43 52 59 67 70 77 85 87 82 79 77 73 71 69 68 67 66 64 63
113 118 121 120 118 116 117 118 116 104 94 89 86 73 57 39 33 30 9 8 13 21 35 36 32 33 33 35 37 42 50 57 67 69 77 92 90 80 76 72 70 66 65 63 63 64 63
113 116 117 116 115 115 115 117 114 103 95 88 83 71 54 39 34 23 10 14 23 27 32 35 30 29 28 28 31 38 44 51 59 62 69 80 88 83 75 75 76 71 70 69 67 67 65
112 115 113 113 113 113 113 114 111 101 94 87 81 69 55 40 33 27 8 13 27 32 31 28 26 24 22 23 26 30 37 42 50 55 55 62 79 85 80 75 75 75 73 71 66 64 61
111 114 110 111 111 111 111 111 105 99 92 88 80 69 58 42 38 22 8 23 31 35 30 29 27 23 21 22 24 30 33 36 41 47 50 53 58 66 71 72 79 79 76 66 64 65 64
110 110 108 109 109 108 109 107 98 94 89 83 77 69 58 44 36 22 20 26 30 31 29 26 20 18 18 17 19 23 27 29 34 40 44 47 49 53 57 59 62 70 74 66 62 62 67
107 107 107 106 106 106 105 102 93 88 82 77 72 65 56 43 32 23 19 20 22 22 23 20 17 13 10 10 10 15 24 29 31 34 40 42 45 48 53 56 56 57 57 59 58 58 59
107 104 105 106 106 102 100 94 88 84 79 72 66 60 53 40 31 24 20 17 18 18 18 18 15 14 14 18 17 17 19 24 28 31 35 36 35 34 36 42 48 53 51 48 46 49 49
104 104 103 104 104 97 93 86 83 77 75 68 62 57 48 42 29 22 15 15 13 15 13 13 12 8 10 13 16 19 22 24 26 28 32 37 39 41 42 42 43 40 40 40 40 40 35
101 101 102 102 99 92 85 80 77 72 67 65 58 53 47 37 30 20 14 9 9 8 8 6 5 5 5 9 17 22 23 26 29 31 32 34 38 39 38 37 36 35 35 34 32 31 33
99 100 100 98 92 87 79 75 72 68 61 59 54 51 45 36 28 21 11 7 4 3 3 5 6 6 8 11 17 22 22 23 25 27 28 30 31 32 33 31 29 30 30 31 31 32 38
98 99 98 92 86 81 75 71 68 65 58 53 52 47 43 37 26 17 12 7 3 4 6 9 11 11 10 14 19 21 22 23 24 25 28 29 29 28 27 27 30 30 30 31 35 38 36
97 98 94 86 80 75 70 67 66 64 56 49 44 44 40 33 28 20 15 12 12 10 12 13 14 13 12 15 18 18 19 20 21 21 25 28 28 28 28 30 28 29 32 35 36 32 23
96 93 87 82 76 71 66 64 62 61 56 47 41 36 38 35 27 23 21 18 17 19 17 16 15 15 15 16 17 18 20 21 22 23 25 27 28 29 28 26 29 34 34 33 30 23 24
93 87 82 77 72 67 63 61 59 57 55 49 43 35 31 31 32 25 22 23 23 25 22 22 18 19 18 19 21 21 24 25 26 29 31 31 30 27 28 32 33 32 29 26 27 24 22
85 83 76 72 68 65 61 58 58 55 54 50 46 39 32 27 27 29 24 22 24 24 27 27 24 23 24 23 24 25 26 27 28 31 32 31 29 28 30 30 29 28 22 24 23 22 21
80 78 73 69 65 62 59 55 56 53 54 50 47 42 38 34 26 29 28 27 23 24 25 30 30 29 28 28 26 26 28 30 33 34 33 33 31 29 27 27 27 23 22 24 22 23 22
76 74 70 66 65 62 59 55 55 53 53 52 46 43 41 42 38 32 33 28 25 26 26 28 34 33 32 32 31 30 33 35 35 35 33 32 27 26 26 24 23 21 25 25 24 23 19

GFSGBSN_250_spd_024.txt.gz
Wind_Speed
91 92 96 103 107 108 108 105 106 108 109 103 90 85 79 75 67 55 47 44 49 47 46 56 64 71 76 78 86 96 102 104 110 112 114 112 105 109 111 109 105 98 93 93 94 92 91
94 95 100 104 110 110 110 109 109 110 111 102 92 87 80 74 64 52 46 41 44 42 42 51 61 67 74 73 85 91 98 102 107 110 107 111 103 103 107 109 107 101 99 98 96 94 91
97 98 101 107 111 112 112 112 112 111 113 103 94 89 82 72 59 49 42 38 39 38 40 45 57 64 70 73 79 85 90 97 102 104 106 110 111 105 90 93 102 101 102 100 97 97 94
101 103 104 107 112 116 115 114 114 113 114 102 95 88 83 71 58 44 36 34 33 35 35 42 54 63 66 73 74 83 86 91 99 100 101 105 114 109 105 90 83 93 100 98 99 98 95
103 103 105 110 115 118 117 114 115 115 113 103 97 91 83 70 54 41 35 29 24 29 33 41 52 63 69 72 78 82 83 89 99 100 102 101 102 107 109 104 91 76 82 92 98 97 97
104 104 108 113 116 119 118 116 117 115 112 104 97 89 82 66 52 44 37 25 17 24 32 41 51 62 72 72 73 72 77 84 97 100 100 99 99 98 98 97 100 86 73 80 89 93 93
105 106 110 112 116 120 119 117 116 115 111 102 95 89 80 63 53 46 34 21 11 18 31 38 49 62 65 67 64 69 75 82 100 100 98 97 97 91 87 90 96 101 96 78 78 80 80
108 109 110 113 117 120 119 118 117 113 108 100 92 84 73 60 55 42 29 15 5 13 25 36 49 59 63 64 64 69 75 82 96 99 104 99 91 90 90 86 87 91 91 82 78 79 78
109 111 111 114 117 119 120 119 117 110 105 98 91 84 71 61 51 38 30 14 2 14 23 35 46 57 61 62 61 60 70 79 92 95 96 86 85 86 82 85 84 83 83 87 84 77 73
110 111 110 114 117 119 120 120 116 107 101 94 87 83 75 61 46 36 31 15 3 14 23 32 47 54 58 58 57 60 69 76 88 92 90 86 84 88 85 83 83 82 83 84 85 82 74
110 110 111 113 116 118 118 121 116 107 98 91 85 82 73 62 44 37 28 13 6 12 17 26 44 51 47 47 50 53 67 76 88 87 93 88 85 86 83 77 80 83 83 81 82 81 78
108 109 112 114 115 116 117 120 114 105 97 90 84 81 70 59 42 34 27 14 5 8 17 25 37 38 38 39 44 50 60 65 77 82 86 79 82 83 81 76 74 78 80 79 78 80 77
106 109 110 113 115 114 115 118 112 102 96 91 85 80 68 55 39 34 23 13 10 16 19 29 33 30 31 34 37 41 51 57 65 74 79 75 78 75 74 73 72 76 75 72 69 69 71
106 108 109 112 111 110 114 115 110 100 94 88 83 79 70 57 48 34 23 19 21 23 25 29 28 26 25 25 26 33 41 51 57 66 75 74 69 72 75 72 70 68 68 67 65 65 65
104 106 108 109 107 107 112 111 105 98 90 85 82 77 72 62 53 39 25 19 25 27 29 25 22 20 20 19 22 27 31 42 51 56 61 65 67 71 72 67 66 65 67 68 67 63 66
104 105 108 106 105 105 107 106 100 93 87 83 77 72 66 59 52 40 26 18 22 25 23 22 23 21 16 17 19 22 30 35 43 46 51 59 65 68 72 74 70 65 65 62 60 59 62
104 105 106 103 102 104 104 100 94 89 81 77 72 67 63 54 47 38 27 19 16 14 15 15 13 11 10 8 12 18 22 28 33 38 42 49 53 57 61 70 75 72 68 61 61 62 65
103 103 100 99 99 101 101 94 89 85 77 72 67 63 58 49 41 36 28 19 16 17 16 15 14 11 10 10 9 12 19 24 28 33 38 43 46 48 53 67 77 82 78 76 72 64 66
102 100 97 96 96 98 95 87 83 81 74 68 63 58 51 46 37 33 26 19 14 15 14 13 10 7 7 10 13 16 18 20 23 27 32 36 40 42 43 46 53 62 73 79 73 69 71
101 99 96 96 95 95 88 83 78 75 70 65 60 54 48 43 36 29 25 17 13 10 10 9 7 4 2 0 4 14 19 22 23 25 27 32 35 39 42 41 42 44 48 54 58 56 52
102 100 96 95 95 89 82 77 73 70 65 63 57 51 45 39 34 26 21 16 10 5 3 1 2 1 2 6 9 12 14 20 25 27 28 31 33 34 33 34 37 39 39 41 41 39 36
101 100 97 94 90 82 76 71 68 65 60 59 56 49 44 40 33 27 18 12 10 7 7 7 6 7 8 8 8 10 16 17 19 21 25 30 32 35 36 35 34 34 35 36 35 33 34
100 97 93 87 82 76 73 67 63 60 56 53 52 49 43 38 33 27 22 17 11 11 11 11 12 12 13 11 8 10 11 14 18 22 26 28 31 35 36 34 34 33 35 35 33 31 29
95 91 86 80 76 72 69 65 60 57 53 50 46 46 44 37 33 28 24 20 17 15 16 16 15 15 13 10 9 11 13 13 15 16 19 23 27 30 31 33 34 33 33 31 29 29 31
90 85 81 77 73 70 66 63 58 54 54 48 46 41 39 39 36 29 24 22 20 17 19 21 20 16 13 11 12 13 13 13 13 15 17 20 22 23 24 27 28 28 27 27 27 28 28
88 83 81 77 73 69 66 62 58 53 52 49 47 42 36 32 32 35 30 24 22 21 18 22 25 21 17 13 14 15 16 15 15 17 19 21 24 24 24 25 26 25 27 26 26 28 28
86 83 79 77 75 70 65 61 56 53 50 48 47 43 37 32 30 29 31 31 27 23 21 21 23 25 22 20 19 20 19 20 22 22 24 26 28 28 27 27 25 26 26 25 28 30 28
84 82 80 78 74 69 63 59 54 52 49 47 46 44 40 33 27 30 30 29 29 28 24 23 23 28 26 24 24 24 24 24 26 27 28 29 31 30 27 27 26 27 27 30 29 27 26
84 82 79 76 72 66 62 58 52 50 48 46 44 44 40 38 30 29 31 27 29 28 30 27 27 29 29 29 28 28 28 26 26 28 30 33 32 28 30 27 29 28 28 25 24 25 23

GFSGBSN_250_spd_027.txt.gz
Wind_Speed
91 96 98 98 96 99 102 103 104 107 107 100 94 88 82 77 75 69 58 51 47 43 42 43 45 57 73 80 81 90 95 105 112 115 124 127 120 117 116 113 106 97 98 97 98 93 91
95 97 97 97 99 102 104 105 105 108 107 99 93 90 84 80 76 64 52 45 41 37 36 38 38 48 65 75 77 87 91 99 105 112 114 128 123 114 115 115 112 102 101 101 100 94 89
98 99 97 99 100 103 105 106 106 110 106 99 95 89 85 81 72 57 46 39 35 33 33 34 35 44 56 68 75 80 86 92 101 108 113 119 127 123 112 112 113 107 98 100 98 94 90
97 97 98 100 104 106 106 107 107 110 104 98 95 90 85 79 65 49 39 34 31 29 29 29 32 39 52 68 73 87 85 88 96 100 110 117 123 128 115 104 108 106 104 99 97 92 90
98 100 101 103 105 106 107 106 107 110 102 96 94 90 86 75 58 45 36 33 27 22 22 24 31 41 53 65 73 74 76 81 89 95 103 108 117 120 121 102 94 100 97 101 101 98 95
100 101 103 105 107 108 109 107 109 108 101 98 94 87 83 71 58 46 39 32 24 16 16 21 30 42 54 64 69 68 72 76 83 90 98 106 108 110 123 113 93 87 89 97 101 100 98
101 102 103 105 107 110 109 107 109 108 100 96 93 84 80 70 55 47 34 27 21 8 11 21 34 46 53 60 63 68 69 73 79 83 92 99 99 104 107 120 101 89 83 89 97 97 96
103 104 104 106 109 110 110 107 110 108 101 95 91 86 80 71 57 44 32 28 17 4 14 22 33 41 50 58 60 56 61 66 73 79 86 93 94 99 107 107 108 98 85 75 77 83 89
105 105 104 106 109 109 109 107 110 107 101 95 90 85 81 71 55 43 34 29 17 3 13 19 25 37 51 57 55 54 58 60 69 76 82 89 92 95 98 100 101 98 93 80 69 70 72
105 106 105 106 109 108 109 107 109 106 101 96 90 84 82 70 53 42 38 28 19 10 7 16 24 36 48 54 52 53 57 60 65 74 79 88 90 91 95 94 96 98 100 97 90 75 66
104 105 106 105 107 108 109 107 108 103 99 94 90 83 81 68 55 45 39 26 20 14 10 13 26 34 42 46 45 50 51 57 68 71 79 84 81 86 88 88 91 89 94 93 94 92 84
105 107 106 106 107 109 110 107 107 101 97 92 90 84 80 70 59 50 42 29 22 18 14 10 21 33 41 41 43 45 49 57 64 72 79 80 75 81 85 87 86 87 83 83 84 80 78
105 106 106 107 107 109 108 107 104 98 93 89 87 83 79 72 60 52 42 28 23 23 21 18 24 32 33 35 36 44 47 53 59 67 73 74 67 74 79 81 81 82 81 78 77 76 75
104 104 106 107 107 106 106 105 100 94 89 85 82 80 77 72 62 54 48 35 27 24 23 21 23 24 26 26 31 35 35 40 53 61 62 63 58 64 65 73 76 77 78 75 71 71 73
100 100 103 105 107 103 100 98 93 88 83 79 76 73 71 67 61 54 48 38 29 19 18 20 20 18 21 24 28 30 31 37 47 50 56 56 52 56 62 65 70 73 74 76 73 74 76
98 100 101 105 104 100 94 91 86 83 78 73 69 67 65 62 55 49 41 32 27 22 17 14 12 16 15 19 21 25 28 33 40 45 52 53 49 51 58 66 67 68 68 73 74 68 68
96 98 101 103 100 94 89 84 80 78 74 69 64 62 59 57 51 43 38 33 25 20 17 16 14 14 13 13 14 19 23 28 34 43 49 55 46 50 52 57 60 62 61 62 65 66 64
96 99 102 100 96 90 84 79 77 75 70 66 61 56 54 52 46 40 35 30 24 19 16 14 13 10 8 9 11 15 19 24 28 35 43 47 47 47 51 52 56 60 58 58 58 60 61
94 98 101 99 93 86 81 78 75 72 69 64 58 53 50 47 43 37 32 27 23 19 17 15 13 10 7 3 3 10 14 18 24 29 35 39 43 47 49 51 52 55 57 61 61 61 57
96 99 99 98 91 84 80 77 74 70 67 62 56 50 46 42 40 34 27 22 18 16 15 15 13 10 6 5 3 1 10 16 20 24 29 34 38 41 44 46 46 48 50 57 63 62 62
98 99 98 95 90 82 79 76 72 70 65 60 56 49 43 40 35 31 28 21 16 13 11 11 10 10 8 8 3 2 4 10 16 21 25 29 32 35 36 39 40 40 41 45 50 56 62
101 101 99 92 86 80 77 73 71 69 64 59 53 49 44 38 34 31 27 19 15 13 10 9 10 10 9 10 7 7 9 11 15 17 19 22 26 32 37 37 38 38 37 36 40 41 47
103 102 98 91 84 78 76 73 70 66 60 56 53 47 43 39 35 29 27 24 19 15 13 13 13 13 12 11 7 5 9 13 15 18 20 21 23 27 29 33 35 37 37 38 38 38 38
104 102 96 90 82 78 75 71 67 64 58 54 49 46 42 39 33 30 26 23 22 17 15 14 14 13 14 15 7 4 5 8 15 21 21 22 25 27 29 31 32 32 31 31 31 32 34
103 98 93 86 82 76 72 68 64 61 56 52 46 43 40 36 34 31 28 23 21 18 17 14 15 12 10 11 11 6 7 7 9 11 15 20 25 26 28 31 31 34 34 34 33 34 34
98 92 88 83 80 75 68 65 62 57 54 50 44 41 38 34 31 28 27 26 20 19 18 17 15 15 12 10 10 10 10 10 12 13 13 13 13 17 23 27 32 34 34 33 32 33 34
89 84 81 80 77 75 67 62 59 54 51 48 44 40 36 34 30 27 24 25 25 21 17 18 20 20 18 15 12 11 14 15 16 15 15 17 18 18 17 21 25 29 30 29 30 30 27
79 77 79 76 74 70 66 60 56 52 49 46 44 40 36 32 32 26 23 20 21 25 24 20 19 21 23 22 19 17 18 20 20 19 20 21 22 24 26 25 25 26 25 27 27 26 25
75 74 74 73 72 67 63 60 56 51 48 46 43 39 37 34 30 27 24 23 22 21 24 25 27 22 20 26 26 23 23 24 25 24 24 25 27 29 31 29 29 27 28 28 28 26 26

GFSGBSN_250_spd_030.txt.gz
Wind_Speed
86 90 90 91 91 93 93 91 92 91 94 90 84 84 83 77 73 67 60 52 44 40 42 43 46 49 58 73 80 87 94 94 109 116 122 128 129 125 120 116 113 105 101 102 105 103 98
90 91 93 93 93 93 94 94 93 94 94 89 85 83 82 77 72 63 52 44 38 36 37 35 37 43 52 62 80 86 90 94 101 112 120 125 130 128 123 119 116 110 106 107 104 103 98
90 94 95 94 95 95 95 94 94 96 95 90 86 84 83 78 68 57 43 36 31 30 32 32 32 37 47 60 74 84 87 95 97 107 114 122 129 130 125 121 119 113 108 110 109 106 99
92 96 97 97 97 94 96 96 96 98 96 91 87 86 82 77 66 53 40 33 28 25 24 27 30 35 48 56 68 80 89 86 95 101 110 119 124 132 127 122 118 116 111 110 110 106 100
94 99 101 100 99 98 99 97 98 98 95 93 90 88 81 75 63 53 42 33 26 20 15 20 28 36 45 54 63 77 80 85 91 95 103 112 122 126 128 122 117 115 111 110 107 105 100
97 102 103 102 102 102 102 100 99 98 95 93 89 87 80 74 62 51 43 31 21 12 10 18 28 37 46 51 58 71 75 79 84 90 94 106 116 121 125 123 115 108 111 111 109 107 104
96 101 105 106 106 103 105 102 99 97 93 92 88 86 81 76 63 51 38 28 19 12 5 16 27 38 44 51 59 66 72 75 77 83 86 98 106 111 119 122 120 114 103 112 114 110 106
96 102 105 107 106 105 105 101 98 96 94 92 89 88 83 79 66 48 37 29 22 13 1 15 25 33 42 49 60 67 62 61 65 72 80 89 97 102 111 119 121 120 105 99 107 108 104
99 103 104 106 105 104 104 99 97 95 93 92 90 88 82 79 67 50 39 28 26 20 13 16 25 31 39 48 52 54 57 62 67 71 73 78 89 95 104 110 120 125 118 102 99 99 99
103 101 104 105 104 104 102 97 96 96 94 92 90 88 82 79 69 55 41 32 28 24 18 18 22 29 37 47 51 54 61 66 60 60 69 73 82 88 95 105 109 115 120 106 93 89 90
101 99 101 102 100 102 100 95 94 94 93 92 91 87 82 77 71 58 46 35 30 24 22 14 16 21 32 40 46 54 57 54 56 62 65 71 79 83 87 93 102 104 110 112 97 83 81
100 98 100 99 98 100 98 93 92 92 91 91 89 86 82 77 73 61 49 41 32 29 26 19 15 22 35 43 49 51 52 56 57 60 64 68 74 78 81 86 92 97 104 107 102 85 74
100 99 97 96 96 99 97 92 90 88 87 87 85 82 78 74 71 64 53 44 38 35 27 23 17 20 32 36 39 42 45 51 54 58 61 62 65 68 72 78 86 92 94 98 102 92 74
95 97 97 94 95 98 95 91 88 86 84 82 80 76 73 70 67 62 54 44 39 34 24 20 19 23 28 30 29 29 37 41 45 50 54 54 55 58 62 67 74 81 84 92 95 97 93
90 95 96 97 97 96 95 89 85 83 82 79 75 71 67 63 60 55 48 42 35 28 22 16 15 16 22 28 27 27 29 31 38 44 48 48 50 50 53 60 68 75 78 83 87 92 95
88 93 99 101 97 96 94 87 83 81 79 76 72 66 61 58 53 50 44 39 32 26 20 18 13 12 17 21 25 27 28 29 31 35 38 42 41 43 46 51 59 67 74 75 77 81 88
90 93 103 102 99 95 92 87 80 79 76 72 68 62 57 53 50 45 38 34 31 27 21 16 13 9 8 12 16 22 25 27 30 33 35 36 35 35 40 45 52 56 65 68 73 77 80
92 96 103 104 102 97 92 84 79 75 73 68 64 59 53 49 46 41 36 33 27 23 20 16 13 9 4 4 11 16 23 26 29 30 33 35 34 36 36 39 46 49 59 64 65 71 72
89 97 103 106 104 96 90 82 78 74 70 67 60 55 48 45 42 38 33 28 24 19 17 16 13 9 6 4 3 8 15 21 26 29 33 34 36 33 38 39 41 47 50 54 60 65 67
95 100 101 104 101 96 86 79 75 74 69 64 59 54 45 40 36 34 31 27 22 19 15 14 13 11 9 7 2 3 6 13 20 24 30 34 35 34 33 38 42 45 50 53 54 56 58
95 100 104 100 98 93 84 77 72 72 69 64 58 52 45 36 33 31 28 24 20 15 13 11 10 9 9 9 5 2 4 7 12 18 23 27 31 32 33 35 39 43 47 52 54 52 55
101 100 97 97 95 87 80 74 72 68 68 62 57 52 45 36 30 27 26 24 20 16 12 9 8 7 7 8 8 5 6 7 10 14 19 23 27 32 34 35 36 39 42 47 51 54 52
97 102 97 95 91 83 79 73 69 65 64 59 56 50 45 39 31 26 23 21 17 15 12 10 9 7 5 6 3 6 9 10 10 11 14 19 25 29 31 33 34 34 37 37 37 36 40
105 104 95 92 85 78 73 69 66 64 61 57 53 48 44 39 36 30 23 21 18 14 12 10 9 9 7 2 3 2 8 11 13 13 14 15 17 21 29 33 35 36 35 34 34 33 33
109 102 93 84 77 73 69 66 65 62 58 54 50 47 43 42 32 30 27 23 20 18 15 12 10 10 9 8 4 2 5 8 11 15 18 18 17 19 22 28 33 36 37 38 38 39 42
104 99 87 77 73 70 64 63 63 58 55 53 48 46 41 42 37 28 26 23 23 21 19 16 12 10 10 11 11 8 7 10 12 14 16 19 22 22 20 22 25 31 33 33 33 34 35
98 92 83 76 68 65 63 60 61 58 55 53 48 44 40 39 40 32 26 23 22 25 21 18 17 14 12 11 14 14 13 13 14 14 15 16 18 20 24 28 29 30 31 33 35 38 37
95 87 81 71 68 65 64 59 58 56 54 52 48 45 40 40 39 35 29 24 19 24 24 22 21 18 18 16 15 17 20 19 19 18 18 18 19 20 23 23 27 33 36 38 38 38 38
91 84 77 72 69 65 64 60 59 57 55 51 48 45 41 39 39 36 31 27 22 24 25 26 26 22 20 20 21 18 24 26 25 25 24 23 23 23 22 25 27 27 30 37 40 39 38

GFSGBSN_250_spd_033.txt.gz
Wind_Speed
84 88 90 93 94 95 95 95 96 90 84 81 79 76 74 73 71 65 58 50 46 41 40 43 51 63 74 84 87 89 90 95 99 108 115 125 131 131 127 123 120 112 106 103 100 106 104
85 89 92 93 95 97 97 97 96 89 84 83 82 78 76 76 72 60 47 41 38 36 35 36 42 51 57 73 85 92 91 93 97 105 112 120 128 133 132 127 122 116 112 108 104 106 106
86 92 95 98 98 99 99 98 96 90 84 84 84 83 80 78 72 59 45 38 34 28 29 33 34 40 45 58 73 87 91 91 97 102 111 119 126 132 132 131 126 122 115 112 109 109 105
89 94 96 100 99 99 100 99 97 91 85 86 86 85 83 79 71 61 53 41 33 26 24 28 32 35 45 47 59 80 91 93 91 98 106 115 123 129 136 132 131 124 120 116 111 112 108
92 96 100 101 101 100 102 101 97 92 87 87 87 86 84 81 73 62 51 42 32 24 18 23 29 34 35 44 55 73 87 90 89 92 101 108 115 122 132 135 133 127 120 117 113 111 110
94 98 102 103 102 102 103 101 98 93 89 89 89 87 85 82 76 62 51 43 30 15 9 14 21 30 39 48 58 69 74 83 89 88 95 99 109 115 126 133 132 123 120 116 116 111 110
93 98 101 102 102 102 101 101 98 94 91 90 90 88 85 82 77 64 51 39 25 13 6 6 20 30 40 47 54 63 77 86 96 90 90 92 100 107 118 125 131 128 123 116 118 112 111
97 96 99 101 101 100 98 101 100 95 93 91 90 88 84 82 78 66 53 40 28 20 12 6 20 31 38 46 55 63 68 82 81 81 82 87 89 102 115 122 125 126 124 117 114 115 113
97 94 98 100 100 100 99 100 100 95 94 93 92 90 87 83 80 70 58 40 29 25 17 10 18 27 31 36 40 47 61 71 73 70 73 78 83 90 105 114 116 122 126 120 114 112 114
95 94 98 100 100 102 100 98 98 96 93 94 93 91 88 84 80 74 60 45 29 26 21 16 15 22 30 34 40 45 48 60 61 65 68 67 74 80 95 105 113 116 121 121 117 108 113
92 92 98 99 102 103 101 98 98 95 91 92 91 89 87 83 80 73 63 48 32 29 25 19 16 19 27 32 39 45 51 56 58 61 62 61 65 72 84 95 103 112 113 120 120 113 109
90 94 95 102 103 103 103 99 96 93 89 89 89 86 82 79 76 71 64 49 36 34 28 23 18 20 30 37 44 49 52 56 56 57 57 58 62 69 78 87 93 101 110 113 121 116 111
91 91 99 102 104 104 103 99 96 91 86 86 85 82 77 73 72 69 63 53 45 38 30 23 17 19 22 29 37 42 47 51 51 51 53 56 60 66 72 77 83 93 105 109 111 118 112
91 91 99 100 104 105 103 98 95 90 84 83 81 77 73 66 65 62 58 51 45 34 30 23 18 13 15 21 30 35 39 42 42 44 45 49 57 60 66 68 75 85 92 102 101 107 110
90 93 98 103 108 106 103 99 94 89 81 79 78 74 69 63 58 56 50 44 40 34 27 21 16 10 10 11 14 17 22 26 30 35 37 40 44 49 54 60 64 75 84 89 100 101 109
88 92 99 106 109 107 102 98 92 87 81 76 74 71 64 59 55 52 47 42 36 30 24 17 12 8 7 10 14 17 19 21 25 27 32 32 35 40 45 50 55 63 73 81 89 97 104
86 92 99 107 111 108 102 98 90 85 79 73 70 67 61 55 50 48 45 39 33 27 23 18 12 6 1 6 13 16 18 21 23 25 27 28 29 33 38 43 50 57 64 69 77 85 95
87 89 97 104 111 102 102 97 88 82 77 72 67 63 58 52 45 42 43 36 31 25 19 15 11 8 4 3 9 14 18 21 24 26 28 28 28 31 32 33 41 49 54 62 69 75 80
91 91 95 103 112 104 98 92 81 79 74 69 66 62 57 51 43 37 37 34 29 25 20 15 12 8 4 1 7 12 15 19 22 26 28 28 29 30 32 34 36 39 47 55 62 67 70
93 95 94 103 110 103 96 91 81 74 72 66 65 60 54 49 42 36 33 32 26 21 16 11 7 6 5 2 2 6 10 14 17 21 23 25 27 29 32 37 36 37 36 40 46 58 63
93 96 96 99 108 100 94 85 79 70 69 65 62 59 49 46 42 35 30 29 27 22 18 14 10 5 4 5 4 5 8 11 14 18 21 23 25 26 28 36 40 43 45 43 47 48 49
99 96 97 97 108 99 93 84 77 68 67 64 59 56 50 43 41 35 30 27 27 22 18 16 14 12 10 8 7 7 9 9 12 13 15 18 21 24 27 30 37 39 41 45 44 42 43
99 95 100 100 104 94 90 82 75 67 64 61 58 54 51 44 40 36 31 27 26 23 18 16 15 14 13 12 9 9 10 12 12 14 14 16 19 22 26 29 30 34 39 40 44 49 51
100 96 101 97 97 90 86 78 69 62 60 59 55 53 51 47 41 38 33 27 25 24 20 18 16 16 14 15 13 10 10 11 13 13 14 13 15 20 22 26 28 30 31 33 37 40 47
98 101 104 95 100 95 85 74 70 61 58 57 53 50 49 48 42 38 36 31 24 22 22 20 18 18 17 15 14 13 12 12 13 15 15 14 15 16 20 24 26 27 26 26 30 33 37
98 100 102 95 99 88 82 72 65 62 58 57 53 50 47 45 42 39 37 32 28 25 22 21 20 19 18 17 17 17 15 16 14 15 16 17 16 18 18 20 25 29 31 33 32 31 32
97 102 102 96 98 84 76 71 63 60 56 53 53 50 47 45 42 39 39 33 28 28 26 24 21 19 20 19 19 20 20 18 18 17 16 17 20 21 20 21 23 26 34 37 37 40 41
99 98 97 91 96 85 76 72 64 58 54 55 52 48 47 47 42 38 39 36 27 26 27 28 27 22 20 20 20 20 24 24 22 20 20 20 19 20 22 26 26 28 29 34 42 42 43
97 95 94 96 91 84 74 70 69 60 56 55 50 48 46 47 43 38 39 38 32 28 28 29 30 26 25 23 21 20 23 26 27 27 25 24 24 24 24 24 28 33 35 36 37 39 40

GFSGBSN_250_spd_036.txt.gz
Wind_Speed
83 86 93 97 99 101 102 97 98 95 92 88 81 78 76 71 66 62 53 46 42 39 36 35 40 52 66 76 81 82 84 89 93 99 107 115 125 132 133 128 127 119 114 112 112 105 99
86 88 95 97 102 103 104 101 100 98 94 89 83 81 79 76 71 65 53 40 35 31 31 33 36 45 62 77 80 84 87 88 91 98 104 111 121 131 137 132 129 123 120 117 115 103 102
88 89 94 97 102 106 107 104 102 101 96 92 87 84 82 79 74 68 56 43 34 29 25 26 31 39 54 71 78 86 89 88 90 95 101 109 118 128 134 136 132 128 123 118 115 107 108
88 90 92 97 102 106 108 107 106 103 100 94 89 85 84 81 76 72 59 47 39 32 23 20 25 34 45 54 71 86 90 88 90 94 98 106 114 125 132 136 134 131 128 122 118 111 111
87 93 94 96 100 105 109 110 109 106 104 97 90 86 85 81 78 73 60 51 42 32 23 16 20 29 34 44 64 79 86 87 88 91 96 103 111 119 127 132 136 133 127 124 121 116 114
89 94 93 96 100 105 108 111 112 109 106 100 95 89 85 81 77 74 63 54 42 30 17 10 15 25 35 41 52 70 80 86 88 91 96 100 105 113 120 127 129 131 128 125 125 122 114
88 92 94 97 101 104 108 110 111 110 106 103 98 92 89 86 80 77 68 59 46 29 17 7 9 19 32 40 49 63 76 86 89 90 91 100 100 100 107 118 123 129 135 130 128 123 119
88 93 95 98 104 107 108 108 108 108 105 103 99 94 92 89 82 77 71 62 49 31 24 13 4 15 27 36 45 53 66 79 88 87 90 86 87 94 101 110 117 124 130 130 129 123 119
89 93 95 99 103 106 109 108 107 107 104 102 98 96 93 90 83 78 73 66 49 33 27 18 7 12 25 34 43 49 54 64 77 83 78 78 81 88 91 101 109 115 123 130 127 123 121
89 93 94 97 103 108 111 110 107 105 101 100 97 95 93 90 85 78 74 67 51 38 28 20 12 12 14 23 36 48 54 68 81 85 85 83 81 79 83 88 99 110 113 122 125 126 124
88 91 93 96 103 108 112 110 108 103 100 98 95 92 91 87 84 76 73 68 55 43 32 21 14 17 20 18 24 37 50 60 64 66 72 73 69 71 75 79 90 102 107 112 120 127 125
87 91 91 95 104 106 109 112 109 102 98 95 92 89 87 84 80 75 71 66 58 47 36 30 21 9 15 23 26 30 37 49 58 63 64 66 64 67 64 71 80 89 101 109 114 122 123
89 91 91 95 101 107 108 112 109 102 96 92 90 85 82 79 75 71 66 61 58 47 34 31 29 17 5 12 22 28 29 34 41 45 50 56 60 59 62 65 71 80 90 102 111 113 118
89 89 91 92 99 105 108 111 108 101 96 88 85 83 78 74 69 66 62 58 53 45 36 29 27 24 17 4 11 22 29 34 36 38 40 46 51 55 56 60 67 75 84 93 100 107 109
88 88 88 92 97 102 107 112 108 100 94 86 81 78 76 71 64 60 57 54 49 43 35 28 23 18 16 12 0 7 12 17 21 26 31 36 42 47 50 54 59 64 70 79 91 98 102
88 87 86 92 94 99 109 108 107 102 91 83 76 75 73 67 61 55 51 49 45 40 33 25 20 16 11 9 7 5 4 6 10 16 21 26 31 37 41 46 50 56 64 69 80 89 95
89 88 87 89 96 101 106 111 110 104 91 83 73 70 68 65 58 52 46 43 40 38 33 24 16 12 8 5 1 5 8 12 14 15 18 18 22 27 33 40 44 49 55 62 70 80 87
87 88 89 91 96 99 106 107 113 106 94 83 76 67 65 63 56 50 45 41 37 32 29 25 18 12 7 3 1 5 9 11 14 16 18 19 22 24 26 31 37 45 51 57 62 71 79
87 87 89 93 96 99 105 109 115 110 94 82 75 67 63 59 53 48 43 38 35 31 26 21 17 14 11 6 2 5 9 11 14 17 19 19 20 22 25 27 31 38 44 52 57 64 73
87 89 89 94 99 97 107 112 115 107 92 80 75 69 62 58 53 47 41 37 33 30 25 21 17 13 9 7 7 6 7 12 15 18 20 21 21 23 25 30 32 34 37 42 49 56 64
88 89 91 95 100 102 108 110 113 105 89 80 70 69 62 56 51 46 40 36 31 30 27 23 20 15 11 11 10 9 9 10 13 16 19 20 21 21 26 30 33 34 36 38 42 50 51
90 90 94 96 99 105 105 106 108 99 85 76 69 65 63 56 49 45 40 34 29 27 27 23 19 18 16 12 12 13 12 12 12 14 16 18 21 22 25 30 34 38 42 42 41 40 46
92 92 95 96 99 102 101 104 102 94 85 77 69 65 62 57 50 44 40 35 30 25 26 25 21 18 17 17 15 12 13 14 14 14 15 16 17 20 24 28 32 38 43 42 42 40 39
95 92 94 100 102 101 97 99 99 92 84 76 69 63 59 56 51 43 39 34 32 26 24 25 23 21 19 18 18 17 13 14 16 16 15 15 16 18 19 24 29 36 36 41 43 46 46
96 96 97 96 100 100 97 95 93 90 80 75 66 62 58 54 50 45 40 34 30 28 24 24 23 21 19 19 19 20 17 14 15 16 17 16 15 16 19 22 27 27 33 37 41 40 47
96 98 100 99 102 98 100 98 90 81 80 75 66 58 56 52 48 45 43 38 32 29 24 23 24 22 20 19 19 21 21 17 14 16 16 18 18 17 17 19 22 27 30 33 35 40 41
101 101 101 102 99 96 97 97 92 79 76 74 66 59 54 51 45 42 42 39 33 29 27 24 24 23 21 20 20 21 22 21 19 16 17 18 21 21 19 19 22 25 27 28 30 35 37
104 105 103 103 100 93 97 93 87 80 71 71 66 57 53 50 43 40 40 37 33 29 27 26 28 22 21 21 22 22 23 23 22 20 19 19 19 21 24 24 22 25 27 30 34 32 33
109 106 105 105 97 98 94 91 86 77 76 70 63 56 54 48 43 38 36 35 30 29 29 26 27 26 26 23 23 24 24 26 24 24 22 23 22 22 23 26 28 27 26 30 33 37 37

GFSGBSN_250_spd_039.txt.gz
Wind_Speed
78 82 86 90 97 100 104 106 106 106 101 99 90 83 77 76 71 67 61 54 40 31 34 35 36 43 52 65 73 72 75 80 86 93 95 99 108 118 126 127 126 122 120 116 116 112 107
78 84 88 93 98 102 105 108 109 108 105 102 93 83 79 79 75 70 64 52 39 27 25 29 29 35 48 65 70 76 78 79 85 91 95 97 107 117 126 130 129 124 124 120 119 113 112
77 85 88 94 99 103 105 109 112 110 108 105 96 86 81 81 78 72 67 54 42 34 25 21 25 31 45 58 69 78 81 82 85 91 95 97 108 114 121 130 131 131 127 124 121 117 115
77 85 88 94 102 102 105 108 112 111 109 108 99 91 85 83 82 75 69 57 47 40 27 15 20 29 38 53 67 77 82 82 82 87 95 99 104 111 120 128 132 132 130 127 122 119 117
77 84 90 94 102 101 102 108 113 115 113 111 101 95 89 86 84 77 70 61 50 40 30 16 10 21 36 51 62 71 79 82 82 86 93 96 99 106 116 125 131 133 130 126 125 122 120
78 84 89 94 101 100 101 106 112 116 115 112 107 98 92 87 85 81 72 66 52 39 29 17 3 18 32 44 52 63 74 81 83 85 88 92 96 101 110 119 122 126 126 126 126 124 123
78 84 89 94 100 98 101 105 110 113 115 112 108 100 93 88 86 81 74 69 56 39 32 22 8 9 23 36 44 54 69 77 80 79 79 87 91 92 102 111 122 129 135 132 128 129 125
78 83 88 94 100 97 102 105 109 110 113 113 109 101 95 90 88 84 76 70 62 45 36 26 14 3 17 27 36 44 57 67 72 75 77 82 85 90 98 107 118 125 131 133 133 131 127
78 83 87 93 98 99 100 104 106 109 111 113 110 101 95 90 87 85 77 70 65 51 38 31 19 8 10 22 30 38 52 60 69 72 72 76 81 87 93 101 109 118 126 133 133 131 128
79 83 88 91 99 98 101 102 107 105 109 108 109 101 93 90 85 83 76 70 64 55 41 31 22 11 4 15 25 32 43 58 62 70 69 70 77 81 85 92 99 108 118 124 130 132 131
79 84 86 91 96 97 99 104 109 107 111 104 104 98 93 89 85 81 75 67 61 57 45 32 25 16 8 6 17 27 39 49 61 65 66 71 69 68 78 85 89 99 106 116 123 127 130
78 83 87 90 95 95 98 106 111 108 112 107 101 94 90 87 85 78 73 66 60 57 48 36 25 23 13 6 9 19 30 47 57 63 70 69 66 65 68 74 78 84 94 105 114 120 125
77 82 85 90 94 96 99 106 111 111 113 104 97 91 88 84 81 76 70 65 57 53 48 41 27 20 22 9 7 15 26 35 48 56 61 68 69 66 67 65 67 72 78 93 102 110 113
76 80 84 88 93 92 97 104 109 110 111 103 94 88 88 83 77 73 68 63 55 50 46 39 30 22 18 17 6 6 10 25 36 47 53 58 59 58 55 55 59 62 72 80 93 99 105
76 80 83 85 90 93 95 102 105 111 111 105 93 87 83 81 73 69 64 59 56 48 44 38 29 24 20 17 15 12 7 10 21 34 43 47 52 54 57 54 56 60 63 70 78 90 100
77 82 84 85 87 90 92 100 102 108 109 103 95 84 80 78 70 65 60 54 50 46 42 37 32 22 17 15 13 14 12 10 9 16 21 27 32 41 46 48 48 51 60 62 69 74 86
78 80 84 85 86 87 91 95 101 106 106 107 98 83 78 77 70 62 57 50 45 41 38 36 32 25 17 12 9 7 8 10 10 12 13 15 20 28 33 38 44 48 52 56 62 67 74
78 80 84 86 87 87 90 95 100 101 106 104 100 85 77 75 70 60 51 45 43 37 32 29 28 25 20 12 7 4 2 5 9 12 14 16 18 20 26 33 37 41 46 50 55 61 68
79 80 84 85 87 88 91 97 99 101 104 105 101 88 78 73 70 61 51 43 38 35 30 26 23 19 17 13 8 4 3 6 8 10 13 17 19 22 26 29 33 39 45 48 51 59 63
78 82 83 84 87 89 91 97 101 104 104 106 103 91 79 71 66 62 52 43 35 32 28 24 21 19 17 14 10 7 5 8 11 13 14 16 20 25 26 29 31 34 37 41 45 50 56
79 81 83 86 88 89 90 95 100 103 107 105 104 94 79 70 64 60 52 45 35 30 27 23 19 18 16 15 12 9 9 8 10 13 16 17 19 20 25 29 32 33 35 38 43 47 50
81 81 83 85 87 89 92 95 100 99 105 103 102 96 81 71 63 55 50 44 34 28 26 23 18 15 15 14 13 12 10 9 11 12 15 19 22 23 26 28 30 34 36 37 41 43 49
80 84 84 86 88 91 94 97 98 97 101 100 99 93 82 70 62 54 47 42 36 27 25 23 20 16 14 15 13 12 13 12 11 13 14 15 18 23 27 28 31 35 39 41 42 42 43
81 85 85 89 89 93 94 98 100 98 104 100 99 95 83 72 60 57 45 41 35 29 25 23 21 17 15 14 15 13 11 11 13 13 16 16 18 21 24 27 32 38 39 43 43 41 42
84 86 88 91 92 94 95 98 100 98 98 99 97 94 83 71 60 54 47 38 35 28 24 25 21 18 16 16 16 15 13 10 11 12 15 18 19 19 21 25 29 36 37 41 42 40 41
86 88 90 93 95 95 96 97 100 94 97 97 96 94 85 68 60 54 46 38 33 27 22 24 22 19 19 17 17 17 16 13 12 13 13 15 20 21 20 23 26 28 35 38 37 38 40
90 91 93 95 99 100 98 96 99 93 96 94 89 94 88 71 58 54 44 38 32 27 23 22 21 20 20 19 17 18 18 16 14 13 15 15 17 21 22 22 23 23 28 35 37 38 40
92 94 97 98 100 102 102 100 102 97 96 91 84 92 83 70 58 52 45 37 30 27 24 20 22 21 21 21 20 19 20 19 17 17 17 17 16 18 24 24 23 22 26 30 32 37 40
98 100 102 102 103 105 103 102 102 96 99 97 86 90 84 67 56 49 43 37 29 25 25 21 21 22 23 23 22 22 23 22 21 20 20 20 20 19 20 24 25 24 26 26 29 31 35

GFSGBSN_250_spd_042.txt.gz
Wind_Speed
72 76 79 84 86 89 93 97 105 106 106 105 101 91 76 70 67 67 64 59 51 34 27 34 33 31 40 57 68 69 72 74 78 84 87 94 98 103 110 117 116 122 121 119 116 115 111
72 77 79 84 86 90 97 101 105 108 107 106 103 92 79 71 70 69 67 62 53 37 24 21 27 26 37 53 60 69 74 74 77 84 87 91 96 101 107 117 119 120 124 119 120 117 114
74 77 79 84 88 90 97 106 107 107 107 107 105 94 82 75 71 70 69 64 55 43 30 20 18 23 35 48 60 70 77 76 78 84 88 90 96 99 102 114 121 121 126 125 122 119 115
73 77 79 83 88 91 98 106 106 107 108 106 105 98 88 81 76 71 71 65 57 46 34 19 11 18 33 43 58 67 74 78 79 81 87 90 93 96 100 109 120 120 126 125 124 121 120
72 76 78 82 88 93 99 104 105 106 109 111 107 102 93 87 79 76 74 68 60 48 35 23 9 14 29 39 51 65 72 79 79 80 84 87 90 94 99 104 116 120 123 122 125 123 121
70 76 78 82 86 91 96 103 106 105 108 109 107 102 98 92 83 79 76 71 63 51 38 28 13 6 24 35 46 56 67 73 77 78 80 83 88 91 94 99 107 114 121 126 126 125 123
70 74 78 80 85 91 95 103 105 104 109 107 105 103 100 94 88 81 78 73 65 54 41 32 20 5 14 29 41 50 63 71 75 76 74 78 83 84 90 97 103 115 120 124 125 125 125
71 72 77 79 83 90 94 100 104 104 107 107 107 104 100 95 91 82 77 74 67 58 47 34 25 13 4 19 31 44 57 66 72 72 75 81 77 84 90 96 102 111 117 127 126 127 127
69 72 77 77 80 86 91 101 102 107 104 108 108 104 98 95 89 83 77 72 67 60 52 39 25 18 7 9 23 34 47 59 65 70 74 70 72 80 84 90 97 106 115 122 125 126 127
69 72 76 78 79 86 90 97 98 103 107 109 107 105 97 94 89 82 75 69 64 57 53 41 27 19 14 3 15 28 34 52 59 67 71 67 68 75 82 88 93 102 110 117 123 128 129
67 71 74 78 80 84 87 93 97 102 106 108 107 104 95 92 88 82 75 68 64 58 51 44 33 19 15 9 7 19 33 45 52 56 57 61 62 69 76 82 88 96 104 113 120 126 129
66 69 72 76 79 84 87 91 96 103 105 106 107 103 97 91 88 81 73 67 61 56 49 44 36 21 15 10 8 8 25 39 47 50 54 59 60 62 69 76 82 87 96 105 116 122 127
66 68 71 74 77 82 86 91 95 101 106 105 108 105 99 92 89 81 72 65 59 54 49 43 38 28 15 13 11 9 17 33 42 47 52 56 56 60 64 67 75 81 89 97 107 117 121
65 67 70 73 76 80 84 88 92 98 105 107 106 105 102 93 89 83 73 63 57 50 46 41 38 30 18 11 15 12 11 23 34 41 46 45 45 50 51 56 66 75 78 84 93 102 115
64 65 69 72 75 79 83 87 89 96 103 106 104 104 101 94 85 83 75 62 54 46 42 38 35 30 23 11 10 15 9 13 28 35 40 40 44 47 51 56 58 63 66 74 78 89 100
63 64 67 71 73 78 80 85 88 92 98 105 107 104 102 94 85 79 75 65 52 44 38 34 30 29 21 15 9 11 16 18 23 26 32 36 40 44 46 51 55 58 60 62 68 77 86
63 63 67 70 72 76 79 83 86 92 95 104 108 106 104 94 83 75 72 64 51 44 36 31 27 23 19 14 9 7 11 16 16 20 22 26 32 37 42 46 48 51 54 60 65 66 72
62 62 67 69 73 75 77 82 86 91 93 100 107 104 105 99 81 74 67 62 51 40 35 31 26 20 18 14 9 4 8 10 14 19 22 21 22 23 28 35 40 45 48 53 58 63 70
61 63 67 69 72 76 77 80 85 89 92 98 105 104 105 101 89 72 65 59 52 40 31 28 25 20 14 13 9 5 2 8 12 16 18 20 22 23 26 29 33 39 44 48 54 61 65
61 65 67 69 72 76 78 79 84 90 92 96 102 106 106 105 91 69 64 57 50 41 29 25 23 19 14 11 8 5 2 3 9 13 15 19 23 27 29 31 33 36 37 42 48 51 57
59 67 68 70 73 76 78 80 84 87 91 95 101 104 104 104 91 71 61 57 48 43 31 22 21 19 13 8 7 5 2 3 6 11 16 19 22 24 26 28 31 34 38 41 45 50 49
62 66 69 71 72 76 78 79 83 88 92 97 98 101 103 100 95 69 61 54 47 41 32 22 19 19 16 12 8 7 6 6 6 10 14 18 23 27 29 31 32 35 37 41 44 46 48
62 65 70 71 73 76 80 80 82 86 90 95 97 102 100 96 94 76 61 52 45 38 33 23 19 19 18 15 12 11 9 9 8 9 12 15 19 24 29 32 35 36 41 40 41 41 43
62 66 71 71 76 79 80 80 82 87 92 95 96 100 101 97 93 80 59 53 45 36 31 24 18 19 19 17 16 14 13 12 10 10 10 13 17 20 23 27 34 39 38 41 43 42 42
64 67 71 73 77 81 82 82 85 89 91 93 97 99 101 103 92 82 61 51 44 38 31 25 19 19 21 19 17 16 16 16 15 13 11 12 14 16 20 24 29 32 37 41 42 42 43
65 69 72 75 80 81 83 85 88 89 92 94 98 99 97 97 93 82 63 53 44 39 31 26 19 19 21 21 19 18 17 17 17 16 15 14 14 15 18 21 22 26 32 37 42 42 43
67 71 75 78 84 85 87 89 90 92 93 95 94 101 98 97 98 86 63 53 44 37 31 25 21 20 21 22 21 20 20 19 19 19 18 16 16 17 20 19 18 21 25 29 33 40 40
70 74 78 80 85 88 89 92 94 96 97 95 94 98 93 94 99 83 59 52 44 35 29 25 24 21 21 22 23 23 23 22 21 21 20 19 18 19 20 19 21 20 20 21 26 32 35
73 78 82 83 88 89 92 94 96 98 97 94 97 97 95 103 96 80 56 49 40 34 29 24 26 22 23 23 23 25 24 23 23 22 22 21 21 21 21 20 21 21 19 20 22 29 33

GFSGBSN_250_spd_045.txt.gz
Wind_Speed
75 79 79 78 81 86 88 93 93 97 101 103 102 93 86 79 70 58 59 57 53 47 34 28 29 30 33 47 58 68 71 76 78 77 77 83 85 89 94 100 108 117 115 116 117 113 109
74 78 80 79 83 86 89 93 95 99 101 103 104 97 89 82 75 63 59 59 55 49 39 31 26 25 31 43 49 63 72 79 79 78 77 79 84 88 94 101 108 114 115 117 117 114 112
73 77 80 79 81 85 89 91 97 101 102 103 105 100 94 88 81 70 63 61 58 53 41 31 24 21 31 39 49 61 68 75 78 78 76 80 85 88 91 99 106 112 118 118 118 116 115
71 76 79 79 80 85 89 91 94 100 104 104 104 102 97 93 85 76 68 63 61 58 43 31 22 16 27 38 47 59 65 69 75 74 74 79 83 87 90 98 105 111 118 117 116 120 118
70 75 78 80 81 84 87 90 93 99 106 106 104 99 97 97 87 81 72 67 63 60 45 32 22 13 19 32 44 51 59 64 72 73 76 81 83 84 87 95 101 108 113 113 117 121 120
69 74 77 79 81 82 84 90 92 98 103 105 103 100 96 98 89 83 75 70 65 60 49 36 26 14 10 24 37 45 58 65 71 77 78 89 80 82 83 89 92 97 105 112 115 120 121
66 72 77 79 78 80 85 87 92 96 100 103 103 102 97 98 92 85 77 72 64 61 52 41 30 16 5 16 30 40 57 66 73 80 80 74 73 74 79 85 92 98 106 110 114 119 119
66 71 75 76 78 78 81 86 89 95 101 102 102 100 98 98 93 86 78 73 66 61 54 44 34 18 8 5 24 34 49 63 69 71 75 74 69 75 80 84 90 95 101 109 116 117 119
64 68 73 74 76 76 80 83 88 95 99 101 102 100 101 98 94 87 81 73 68 61 55 47 35 23 10 3 13 27 41 56 62 69 72 65 65 70 74 77 85 92 97 106 113 116 118
61 66 72 74 74 75 79 81 85 91 95 100 101 99 102 96 97 88 81 74 67 60 56 47 36 26 12 8 7 18 34 50 59 64 65 64 64 70 73 77 81 87 92 100 110 114 118
61 64 71 72 74 75 77 79 82 89 92 98 97 95 102 96 98 87 81 74 66 55 53 48 39 30 14 9 6 12 26 42 46 59 60 59 61 65 67 72 77 83 89 95 105 111 115
60 64 69 70 73 73 75 77 80 86 90 96 98 96 100 102 98 91 82 75 67 59 48 46 40 30 20 8 8 9 21 33 35 49 54 57 59 59 65 69 74 80 85 92 98 106 113
60 63 68 70 72 71 73 74 77 82 87 93 98 95 99 103 98 93 83 76 67 60 49 44 37 30 23 9 6 9 17 28 32 40 46 47 51 56 59 64 67 72 79 85 93 99 107
56 62 67 68 71 70 71 73 74 80 85 90 94 97 94 101 102 97 86 75 67 59 50 41 35 29 22 14 4 8 9 19 23 30 35 39 40 47 53 56 60 66 74 80 87 95 100
57 61 64 69 70 69 70 72 73 77 82 86 92 98 94 100 105 99 91 74 65 57 49 40 35 30 23 19 10 7 10 11 12 24 33 36 38 43 45 51 57 59 64 73 81 88 96
55 61 63 66 67 68 69 70 72 76 80 84 91 97 100 95 105 100 93 79 63 55 46 38 33 29 24 19 15 6 11 11 9 11 24 31 34 34 39 47 50 53 58 63 72 81 88
55 59 62 66 67 66 68 68 71 75 81 85 90 93 100 96 106 101 90 79 61 53 45 34 29 25 20 16 15 9 3 11 15 16 18 27 27 27 34 36 44 51 53 57 67 71 75
55 58 61 65 66 65 66 67 70 72 77 82 86 91 99 97 101 101 91 75 61 52 44 33 25 21 16 12 9 6 2 7 12 18 21 21 22 26 31 40 47 52 55 60 61 62 70
56 58 60 65 64 64 66 66 69 72 75 80 85 93 102 107 93 100 84 68 62 51 42 34 24 19 14 9 5 2 2 6 11 16 20 21 22 25 27 30 32 38 48 55 56 60 61
54 56 59 64 63 64 65 65 69 71 72 77 83 91 101 106 99 99 85 60 58 49 40 34 25 18 15 10 5 2 5 7 10 14 18 21 23 25 27 31 35 37 40 45 49 52 63
52 53 60 62 65 64 65 66 69 70 73 77 82 91 96 105 101 92 88 64 54 49 39 34 27 19 15 14 9 6 5 8 12 16 18 19 21 24 26 28 29 31 31 34 40 52 54
52 52 58 62 63 64 65 65 69 69 74 78 80 88 94 101 109 87 89 66 49 45 41 33 27 19 16 14 12 11 10 10 11 13 16 21 24 26 27 28 28 29 31 34 37 41 47
52 53 58 61 62 63 65 66 68 71 75 77 82 88 95 98 107 91 86 72 46 42 37 33 27 22 17 16 14 13 14 14 13 13 15 18 20 25 29 31 32 33 38 37 38 39 43
52 54 58 60 61 63 65 68 70 74 76 79 85 90 92 96 106 101 88 74 51 43 38 32 29 23 19 18 18 17 17 18 17 16 17 18 21 20 22 28 34 37 35 36 39 41 42
53 55 58 59 61 62 66 70 72 76 78 80 84 91 92 95 102 106 85 75 46 39 37 33 27 26 23 20 20 20 19 20 20 19 19 19 20 23 22 21 26 31 35 37 40 42 39
55 56 57 58 59 61 66 71 75 78 81 81 86 90 92 96 99 104 89 77 52 41 35 32 28 26 26 23 20 20 21 22 23 21 21 22 21 21 22 23 22 20 23 28 36 41 39
53 55 56 56 59 62 67 73 76 78 81 84 88 88 90 90 101 100 89 76 49 41 36 32 29 26 25 24 23 22 22 24 24 24 25 24 24 23 21 23 24 22 22 23 27 33 35
51 54 57 59 60 64 69 74 76 80 83 86 88 87 90 90 99 98 91 76 54 44 36 31 29 27 25 24 23 24 24 24 24 25 25 27 25 24 24 22 21 22 21 20 23 27 29
54 55 58 61 65 68 71 75 79 83 87 88 91 93 94 97 92 94 87 75 61 48 36 31 28 26 26 25 25 25 25 26 25 26 27 28 29 27 27 25 23 22 23 23 20 22 23

GFSGBSN_250_spd_048.txt.gz
Wind_Speed
69 69 73 77 81 83 85 84 86 88 93 97 96 100 100 96 91 85 71 62 56 53 45 36 28 25 28 32 42 59 69 72 77 81 83 85 89 100 102 101 101 98 98 105 107 111 112
68 70 72 75 79 83 85 85 87 87 93 99 100 100 102 100 94 89 74 64 59 56 49 42 31 25 23 32 40 54 62 74 77 78 81 82 86 95 100 99 99 97 102 104 106 114 113
69 71 72 73 77 82 85 87 88 86 93 98 100 101 104 102 94 91 77 69 60 57 51 45 32 23 19 28 39 48 61 69 75 79 78 80 86 88 94 96 96 96 101 100 103 113 114
67 70 71 73 75 81 84 86 86 85 91 97 102 100 103 102 96 92 81 73 63 57 53 47 33 26 16 20 33 42 50 64 73 76 78 81 80 84 90 93 92 92 95 101 104 109 111
67 69 72 73 74 79 84 86 85 87 88 94 100 100 101 103 101 92 85 76 69 59 54 49 36 29 15 12 21 39 49 60 65 73 78 79 78 81 84 88 87 87 90 97 101 105 113
66 68 70 70 74 77 82 86 84 85 86 92 98 101 101 103 103 91 87 78 72 63 57 51 40 31 19 8 15 31 44 55 62 71 79 79 79 78 79 81 77 81 87 92 95 103 110
65 66 69 70 73 75 80 84 84 82 86 90 96 102 101 101 102 90 87 80 73 65 58 52 41 32 19 4 9 25 41 49 58 67 73 78 76 73 77 81 81 83 87 92 93 99 106
63 66 68 69 72 74 77 81 83 80 84 88 93 101 103 100 103 95 89 83 72 67 58 53 43 32 20 6 5 23 35 44 56 64 71 75 73 71 74 76 79 80 84 89 94 99 106
62 64 64 68 70 72 76 79 80 78 80 85 91 96 100 100 101 96 90 84 73 66 59 52 45 34 22 7 5 15 29 40 54 63 68 70 71 71 72 75 76 77 82 86 92 97 102
61 63 61 67 69 71 74 77 78 77 78 82 87 93 97 97 97 97 89 85 75 66 59 49 43 34 23 11 5 9 19 27 46 60 66 69 71 68 68 71 74 75 78 82 89 95 98
59 63 58 64 68 70 72 76 77 77 77 82 86 90 96 97 94 94 93 85 76 66 58 49 44 38 28 15 4 8 17 22 41 51 57 58 57 59 60 67 69 70 71 77 84 91 94
57 62 56 62 65 69 72 74 76 75 76 80 85 90 97 96 90 89 92 87 78 67 59 51 43 37 28 19 4 5 11 13 27 38 45 50 54 55 58 61 64 66 67 72 79 86 89
58 57 56 60 62 67 70 73 74 73 74 78 84 88 95 100 92 88 91 85 78 69 59 51 42 36 28 19 8 3 8 8 20 31 34 38 41 49 55 56 56 59 62 66 73 79 83
57 55 55 59 62 65 69 73 72 71 72 77 83 88 94 99 96 86 87 83 79 70 56 49 43 36 29 22 11 3 5 5 14 20 21 27 36 43 49 50 53 55 59 64 68 74 80
54 53 53 57 61 64 67 71 71 70 70 76 80 86 91 96 93 83 84 86 78 69 55 46 39 33 31 24 16 3 3 7 9 14 19 21 27 38 45 50 51 52 55 59 65 70 75
52 51 52 56 60 63 66 68 69 69 68 74 77 82 90 96 97 88 84 87 73 67 56 45 39 31 27 22 16 9 4 8 12 14 17 23 24 29 37 43 46 48 54 54 58 65 69
50 48 50 53 59 62 64 65 67 67 67 72 76 82 88 94 99 99 80 82 70 65 58 43 36 30 26 21 15 10 5 7 13 16 21 24 27 31 33 36 41 45 47 51 57 60 65
49 45 51 54 57 60 63 65 65 66 66 70 72 79 86 92 100 98 82 79 80 62 58 43 34 29 23 21 17 9 6 5 8 15 20 22 25 26 29 33 37 40 45 48 51 56 61
48 46 52 55 56 59 61 63 65 64 65 69 71 76 84 91 101 103 90 85 80 62 55 49 33 26 22 18 16 11 6 1 3 8 15 18 21 24 28 32 34 38 44 52 56 63 61
49 49 50 53 54 58 60 62 64 63 65 68 71 75 81 92 102 108 103 85 84 66 52 49 35 25 19 14 13 13 8 4 4 7 11 15 22 24 29 32 37 40 48 53 59 55 55
48 48 48 52 54 55 59 61 62 62 64 66 72 76 79 92 98 105 109 88 85 71 47 50 37 25 18 13 9 9 9 8 9 10 12 13 14 16 21 27 31 39 45 46 47 52 55
47 47 48 51 51 53 57 60 61 61 64 65 71 74 81 89 98 105 113 98 85 77 45 48 39 27 19 16 11 9 11 12 12 13 15 17 19 21 22 25 27 28 31 34 41 47 51
46 47 47 48 48 52 57 58 58 60 63 66 71 74 81 84 94 100 112 103 83 80 51 50 40 31 21 16 15 14 13 14 15 15 17 20 22 25 27 28 28 30 31 32 35 39 42
46 46 47 46 47 51 56 57 56 58 61 66 71 74 79 85 92 98 107 114 85 80 64 50 41 33 24 18 17 17 15 17 18 18 19 19 21 24 26 27 30 34 31 31 32 35 33
45 47 45 45 49 51 53 53 55 57 60 66 71 75 80 84 89 96 105 106 93 84 63 56 40 33 28 20 17 18 18 18 19 20 21 21 22 23 26 26 30 33 33 33 34 36 34
45 45 44 47 49 49 50 49 54 58 58 64 70 74 78 82 86 94 93 101 84 82 61 56 43 33 27 23 17 18 20 20 21 21 22 24 24 24 24 25 32 31 28 31 35 38 38
45 42 46 46 48 47 47 49 53 57 60 63 69 73 78 80 85 93 89 92 88 75 62 61 43 33 27 24 19 18 21 23 23 23 25 25 25 23 25 27 26 28 30 30 29 31 33
44 45 45 46 45 44 47 52 55 60 62 65 70 72 77 79 83 89 94 87 95 79 59 53 49 35 29 24 22 18 20 24 25 24 24 26 26 25 27 27 24 27 28 30 30 30 28
48 41 43 41 44 45 48 54 58 64 66 66 73 73 78 80 83 87 90 85 86 71 57 48 47 39 32 27 24 22 21 22 25 27 26 26 26 27 27 26 24 26 26 25 28 29 30

GFSGBSN_250_spd_051.txt.gz
Wind_Speed
77 77 77 77 79 80 84 89 90 92 91 91 89 91 95 96 98 102 99 94 87 65 57 51 42 32 26 30 36 44 59 71 75 83 87 88 88 92 96 95 95 96 100 101 105 106 107
81 81 79 79 79 78 81 88 88 91 91 89 88 90 95 96 98 102 101 96 90 66 58 53 44 33 25 25 34 42 50 62 74 80 85 86 87 90 96 97 96 96 96 98 102 102 103
80 81 82 80 78 77 79 86 87 90 91 88 86 88 94 97 98 103 102 98 90 69 60 53 46 35 25 20 25 37 49 59 72 77 81 85 87 87 92 96 95 95 96 98 100 98 100
83 83 83 79 79 75 76 83 87 90 89 89 88 87 93 97 99 105 105 98 91 72 62 54 47 36 22 15 20 32 44 53 66 73 79 83 86 86 89 96 97 95 96 99 98 99 99
82 82 81 78 76 72 74 80 85 89 88 88 85 87 92 98 97 103 105 101 92 75 63 57 48 38 24 14 13 22 41 55 64 73 76 80 81 83 84 93 99 98 93 95 97 96 96
79 83 80 75 74 70 72 79 83 86 86 86 84 85 90 95 101 100 101 98 92 77 64 58 50 41 25 15 9 21 35 49 61 70 76 79 77 80 82 83 89 94 94 93 95 90 92
81 81 76 74 69 67 71 76 82 83 84 86 83 82 88 94 100 100 100 99 94 77 64 58 50 41 24 16 6 17 31 43 56 65 73 72 70 72 76 79 84 92 98 100 97 96 93
82 77 73 72 65 66 70 74 80 82 82 84 82 84 87 91 97 98 100 97 93 78 66 56 50 40 26 18 5 15 24 33 42 58 65 71 72 75 77 81 83 87 94 99 99 99 97
78 74 70 68 62 65 67 72 78 80 80 82 81 82 85 90 94 95 96 94 90 78 68 57 48 39 26 21 10 5 16 22 41 55 61 65 68 72 75 77 78 82 88 94 96 97 96
77 70 68 64 60 63 65 70 76 77 79 81 79 81 86 89 90 94 94 91 92 80 70 58 47 39 30 22 13 2 10 25 39 48 56 60 66 71 75 73 73 78 84 87 90 91 90
73 68 63 59 59 61 63 67 72 75 77 77 80 81 84 90 91 92 89 91 89 81 70 59 48 40 33 22 15 5 12 18 33 45 53 58 63 69 70 69 71 72 77 80 81 82 85
66 63 59 56 56 58 61 65 69 72 75 77 78 77 83 89 88 92 91 90 83 83 73 63 49 39 33 25 15 9 11 15 24 35 41 51 59 65 68 65 65 69 70 74 73 72 75
59 57 54 53 55 56 60 63 65 70 73 75 76 75 80 86 90 88 87 86 82 81 72 64 51 39 33 27 17 9 8 10 10 18 28 43 48 52 53 57 60 62 64 66 67 67 67
56 54 52 52 53 55 58 60 63 68 71 73 72 74 79 86 93 89 85 84 80 79 73 65 54 40 32 27 18 10 6 13 13 12 16 23 32 37 43 50 54 57 57 59 60 61 65
57 51 52 52 52 53 56 57 61 66 69 71 70 72 76 84 94 89 82 82 78 75 70 65 58 40 32 26 21 10 6 11 16 15 13 15 23 33 39 45 50 52 53 53 58 60 61
57 50 51 51 49 51 53 55 59 63 67 68 69 70 73 82 90 99 83 75 80 75 65 64 59 44 31 25 20 11 2 10 18 21 20 17 22 28 34 39 44 48 51 49 51 56 57
55 51 51 51 48 48 53 54 57 60 64 66 67 68 72 79 89 99 93 75 73 74 67 62 60 51 32 23 19 14 4 9 16 23 25 25 24 27 28 32 39 44 44 45 52 53 55
54 48 49 48 48 47 51 51 54 58 62 63 65 66 69 75 85 97 105 78 74 73 66 62 57 52 37 22 16 14 11 8 12 20 24 26 25 27 29 33 35 36 40 43 46 49 52
52 46 45 47 47 46 49 48 53 55 59 62 63 63 67 72 82 94 102 101 75 74 64 63 57 49 39 27 14 12 8 3 6 14 22 23 26 27 29 31 34 38 43 47 50 52 53
47 44 43 46 46 45 46 45 51 54 57 59 59 63 65 72 78 90 100 107 81 78 68 66 57 47 39 30 21 11 7 4 4 10 16 24 28 31 33 35 37 40 45 47 50 50 56
48 44 43 43 43 43 46 46 50 51 55 56 56 59 62 70 78 89 96 102 95 83 72 67 66 49 38 29 23 16 11 5 3 5 10 17 23 28 31 36 38 40 43 46 48 53 58
46 43 41 40 42 41 44 43 48 50 54 52 53 57 60 66 74 85 93 93 100 89 83 68 66 57 41 29 22 16 14 11 8 8 10 11 13 18 23 28 31 36 42 45 46 49 49
45 42 39 39 40 41 43 44 45 49 51 50 50 56 55 63 69 80 86 95 100 101 80 73 67 57 43 34 24 18 16 14 13 12 12 13 14 17 20 22 25 30 30 32 36 42 44
45 42 40 38 40 40 41 42 44 48 49 48 49 52 56 61 68 73 82 91 94 99 89 74 69 60 48 32 25 21 18 16 16 16 16 17 17 19 18 21 25 26 26 29 31 32 32
43 41 40 38 39 38 38 40 44 49 48 49 50 48 55 63 69 72 79 86 88 96 86 80 65 61 52 33 24 21 18 17 19 19 19 20 21 22 22 22 27 28 28 29 31 29 31
42 39 39 36 35 38 37 40 44 47 48 50 49 47 58 64 68 72 79 82 86 87 97 84 72 60 54 38 28 22 19 18 19 20 20 22 23 23 23 25 27 25 27 28 28 30 33
43 40 38 35 37 35 36 40 43 45 49 51 48 50 60 66 70 76 78 80 83 86 85 90 72 62 55 45 32 23 21 21 20 20 22 23 24 24 25 28 23 24 24 25 28 31 31
41 39 35 35 35 34 35 38 41 45 49 52 49 53 61 66 68 74 78 81 77 76 85 85 79 60 57 48 37 28 22 21 20 20 20 22 24 25 26 28 26 26 27 26 28 27 29
39 40 36 33 34 31 35 36 43 49 45 45 49 55 59 68 70 73 78 80 83 83 81 80 86 66 55 53 44 35 28 22 22 21 20 20 21 23 25 26 27 27 30 30 29 29 29

GFSGBSN_250_spd_054.txt.gz
Wind_Speed
69 74 77 75 81 83 84 86 85 87 87 89 91 93 90 88 85 88 91 92 95 92 87 66 51 42 35 30 31 33 47 61 71 76 81 84 84 91 97 101 101 100 99 97 98 102 104
71 74 78 78 84 82 84 86 84 88 87 89 91 93 91 89 86 89 90 92 94 96 89 69 51 43 37 30 27 30 41 54 68 73 80 83 84 88 94 98 100 100 99 98 97 101 102
71 73 78 77 81 80 83 86 84 86 86 88 91 93 92 85 84 86 88 93 97 96 89 70 51 45 38 28 24 27 37 48 58 71 78 81 85 88 93 97 98 99 100 99 98 100 102
71 71 76 80 79 80 81 83 83 85 84 86 88 91 89 87 82 85 88 94 97 92 90 71 51 45 38 28 21 23 34 45 56 67 75 81 85 88 90 92 96 96 99 99 100 101 102
69 74 78 79 83 79 80 81 82 82 83 85 86 88 89 87 82 86 87 93 95 95 88 71 52 45 38 29 19 19 28 44 52 65 75 80 83 86 88 91 94 97 97 97 99 96 99
73 76 77 84 82 79 78 78 79 80 81 83 84 87 89 85 81 84 86 91 93 94 85 68 52 44 37 28 18 14 24 40 51 63 73 76 80 84 87 88 88 91 93 93 93 94 98
74 77 80 86 76 78 78 75 77 77 79 80 82 87 89 83 81 84 86 89 94 93 83 66 51 43 37 27 16 11 21 33 46 63 72 78 75 75 78 82 86 90 93 92 91 94 98
77 79 80 81 77 76 77 73 74 75 77 77 80 86 87 85 81 83 84 86 93 89 80 65 52 43 35 26 15 9 13 28 43 56 65 70 72 76 80 82 83 87 90 93 92 94 95
80 80 80 80 75 73 74 70 71 72 74 74 79 84 83 87 82 85 84 85 89 87 76 65 53 43 34 23 14 4 10 25 39 57 63 69 69 75 77 78 79 81 85 89 92 93 96
84 82 79 81 75 71 70 65 68 70 72 72 77 83 83 83 83 84 84 85 89 82 74 65 53 42 32 22 12 5 12 21 32 48 61 64 70 72 74 75 77 79 82 88 91 92 92
87 88 79 76 72 70 65 62 66 70 70 70 76 80 78 79 85 87 84 84 85 79 72 64 54 42 32 22 11 4 17 25 32 43 54 60 65 66 69 73 75 76 80 83 88 90 91
90 77 73 69 65 66 61 60 64 67 66 68 74 77 79 77 84 90 85 82 77 78 71 64 53 43 31 21 12 3 13 22 31 36 46 53 59 64 67 70 73 76 77 78 79 82 83
81 78 70 68 63 63 58 58 62 64 63 66 71 73 74 73 83 87 82 81 81 75 68 63 53 43 32 21 14 6 7 16 25 32 41 47 52 59 64 65 69 71 70 69 70 72 75
77 71 70 70 59 57 56 57 59 61 61 63 69 69 69 70 80 87 83 80 80 76 69 65 54 46 33 21 15 8 9 15 19 23 27 37 47 52 56 59 63 64 62 60 63 68 74
75 74 71 59 54 53 54 56 58 57 58 62 67 65 65 67 77 85 88 79 76 74 69 64 57 47 36 22 15 11 4 14 21 21 20 25 36 42 44 51 56 57 57 60 63 68 71
75 68 60 51 50 49 52 54 56 55 54 60 64 61 60 64 73 81 86 79 75 74 71 66 59 50 39 24 16 12 6 10 22 25 26 26 32 34 38 40 45 51 57 60 60 63 64
71 66 49 48 47 47 50 51 52 51 51 58 59 58 57 63 69 76 83 86 76 74 71 65 64 55 42 27 16 11 4 10 21 28 29 29 32 34 35 38 45 50 54 55 55 57 60
65 59 46 46 46 46 46 47 47 47 50 54 55 54 55 60 67 72 77 82 73 74 71 69 62 60 46 31 18 10 6 8 15 27 31 31 32 32 35 37 39 42 46 49 51 53 57
62 50 42 45 44 45 45 43 42 44 47 51 50 50 50 57 63 68 73 81 85 77 74 71 65 60 52 35 23 13 6 3 12 20 30 34 34 33 33 35 38 42 48 50 52 55 55
51 46 40 42 42 43 44 41 40 42 45 49 48 47 47 58 59 64 72 80 85 78 77 72 68 62 58 43 29 15 8 1 6 11 22 31 36 39 38 40 42 44 45 49 50 50 53
46 42 40 39 40 42 39 39 37 40 43 46 45 45 43 55 57 63 71 78 82 87 78 76 71 65 57 49 34 23 8 3 4 9 16 21 32 37 38 41 42 45 47 49 50 55 52
45 44 38 35 37 39 38 38 35 38 41 44 43 43 40 52 53 62 65 78 80 87 84 78 75 71 58 52 39 28 19 10 5 8 12 16 23 30 35 40 43 46 47 48 50 54 56
42 44 36 34 36 36 38 35 34 35 39 40 43 40 38 48 52 62 63 73 74 81 87 83 75 71 64 55 44 33 22 16 11 10 11 14 18 21 26 32 36 40 42 43 45 46 48
42 41 33 34 37 34 36 32 34 35 37 38 40 41 43 41 47 55 64 71 75 84 90 86 77 71 65 59 47 39 29 20 17 14 13 15 16 18 21 25 27 28 30 32 34 36 40
41 36 30 35 35 36 33 31 34 33 34 36 37 38 47 37 44 56 64 64 73 78 89 85 83 74 68 57 56 42 31 25 19 17 18 19 20 20 20 20 22 23 24 26 28 29 31
37 34 34 32 34 35 30 30 33 32 35 34 34 37 42 39 44 52 60 68 72 75 84 86 81 81 75 62 53 44 37 28 21 18 20 21 23 22 23 23 23 22 23 24 25 25 31
36 34 34 35 35 33 30 29 31 31 35 33 32 37 38 38 44 51 57 63 69 74 80 82 85 80 74 70 61 49 44 31 22 20 20 23 26 27 28 28 24 27 29 30 28 28 31
33 32 35 35 33 34 30 30 28 30 32 32 35 37 39 41 46 52 58 61 67 71 75 79 81 77 76 63 51 52 43 37 26 21 20 20 24 28 32 31 30 31 32 32 32 32 31
30 30 35 36 34 31 28 29 28 29 32 31 36 36 41 42 48 49 56 63 67 70 75 80 81 76 75 67 63 55 44 40 29 22 20 21 24 27 31 34 33 33 34 34 34 34 35

GFSGBSN_250_spd_057.txt.gz
Wind_Speed
63 64 67 69 68 73 79 84 89 93 92 91 92 93 91 90 90 92 84 80 82 84 85 86 82 66 48 37 31 29 34 42 56 64 71 74 76 82 87 93 100 100 101 104 105 105 108
64 65 66 69 70 73 78 84 91 94 93 92 93 93 92 89 89 95 88 79 82 85 87 85 82 66 48 37 31 27 30 39 53 64 71 75 76 80 86 93 98 102 103 103 105 105 108
67 68 67 71 71 73 78 84 91 94 93 91 92 93 91 91 90 94 85 78 81 86 87 86 81 65 47 37 31 24 26 37 47 61 69 76 78 79 84 89 99 104 104 103 104 104 107
68 68 70 71 71 74 78 85 88 93 93 90 92 92 92 92 91 95 85 79 81 87 88 89 79 62 46 35 29 21 22 32 44 55 67 74 76 79 83 91 96 96 100 102 104 105 106
69 65 68 70 71 73 80 86 89 93 94 89 92 90 91 91 90 96 85 78 79 85 90 89 74 58 45 34 26 20 20 28 42 52 63 73 79 81 82 85 92 96 100 105 104 104 104
65 65 64 68 69 73 79 86 91 90 91 86 89 89 91 89 90 95 88 77 80 86 91 84 74 56 42 34 26 18 18 25 43 55 69 77 80 80 83 85 86 89 97 96 98 102 100
67 68 68 71 76 75 80 84 93 87 87 84 85 86 88 88 88 96 86 77 79 87 90 82 72 53 42 34 25 17 14 19 37 54 60 65 70 70 75 79 82 89 94 92 96 97 98
69 68 74 76 78 77 81 89 87 85 86 81 82 84 85 89 89 96 85 73 82 87 86 82 69 52 40 34 24 15 9 15 37 49 57 64 66 72 78 82 80 83 84 86 94 96 98
75 75 79 79 76 76 84 87 86 85 83 78 80 82 83 84 90 93 86 71 80 86 86 79 65 51 40 33 24 16 6 15 33 49 57 60 62 69 71 77 79 80 84 88 92 95 98
83 82 84 80 76 76 85 86 82 81 80 76 77 78 80 83 89 89 86 74 80 86 84 77 61 48 38 31 24 13 5 18 30 46 54 57 63 69 72 75 78 78 81 85 87 94 96
90 90 85 75 75 79 83 86 81 79 77 72 75 76 78 82 85 85 88 72 79 83 83 77 61 47 35 29 21 13 5 17 33 39 45 52 57 61 67 71 74 76 77 83 87 92 94
92 89 79 77 77 79 85 79 82 77 69 68 72 74 75 78 82 80 88 70 77 81 80 73 62 48 32 27 20 10 3 14 26 36 46 52 57 62 65 68 69 74 77 80 85 88 87
93 85 79 80 83 85 85 76 74 70 62 64 68 70 70 75 76 78 86 70 78 81 75 67 62 48 32 26 18 8 1 12 23 26 34 49 53 58 62 65 67 70 72 74 78 80 82
100 96 91 92 87 81 77 72 71 63 58 60 64 66 65 72 69 79 84 77 77 77 73 65 60 47 31 26 19 9 2 7 20 27 34 40 49 55 58 61 63 66 69 70 71 76 80
90 89 80 81 73 73 67 64 62 54 54 57 62 61 60 63 62 75 83 81 74 73 71 64 58 46 32 25 19 10 1 10 16 23 30 34 40 48 52 55 58 60 62 64 69 70 74
91 89 80 74 75 66 63 59 56 50 51 53 58 55 57 59 57 68 81 80 73 75 70 64 57 48 37 25 20 12 3 11 15 19 22 34 43 45 49 53 56 60 62 65 67 68 71
91 87 80 73 63 56 56 54 50 47 47 50 52 51 55 53 53 65 75 76 75 71 70 67 58 51 42 30 22 14 2 11 18 23 26 29 36 43 48 49 51 54 57 60 63 65 70
85 79 76 61 55 47 54 50 43 42 43 48 47 49 52 50 49 60 65 72 73 69 72 67 61 56 44 35 25 16 9 7 14 25 26 28 31 34 36 41 46 50 51 55 61 66 67
81 73 61 51 40 45 47 41 37 39 40 43 42 44 48 46 46 52 60 64 71 68 68 66 62 55 50 41 29 19 10 4 7 19 29 31 35 37 38 37 39 44 49 53 56 57 60
81 71 46 38 39 46 41 35 33 35 36 38 38 43 44 44 42 47 52 64 71 72 66 65 63 58 53 44 36 23 14 8 4 11 19 30 36 39 40 43 44 46 49 51 53 56 62
75 45 45 46 47 45 36 32 31 33 33 32 34 40 41 41 42 43 49 56 68 74 70 68 64 61 56 48 40 31 17 10 8 9 19 22 37 42 42 44 47 48 50 53 55 62 60
71 57 49 44 43 38 35 33 29 30 31 30 33 36 38 37 40 43 43 55 64 71 72 76 69 61 60 51 45 37 26 12 8 10 14 18 27 36 44 45 51 51 51 52 54 58 59
64 52 52 44 39 35 34 31 29 25 28 28 31 34 36 35 37 40 45 51 58 69 72 76 76 74 65 55 54 42 32 23 13 9 12 17 21 28 33 38 45 47 52 54 56 57 59
52 45 42 43 37 34 31 31 28 26 27 26 27 30 33 34 37 35 42 49 53 64 70 73 79 77 67 61 53 50 40 32 22 11 9 15 20 24 30 32 34 39 42 43 49 51 52
57 52 37 36 34 36 35 32 27 26 26 26 24 28 31 33 35 37 40 44 55 60 66 73 77 83 83 71 59 50 42 42 28 20 15 14 18 21 24 27 29 31 34 37 42 44 47
51 44 32 35 35 34 34 31 27 26 26 24 22 27 26 31 34 36 41 43 50 59 64 70 80 86 90 85 69 56 49 43 32 26 20 19 19 21 24 24 24 29 32 34 35 35 41
54 48 37 35 32 33 35 31 27 26 24 22 22 25 26 30 31 34 40 44 50 57 59 63 74 82 89 92 80 68 55 49 37 31 28 24 23 23 25 26 25 33 34 34 31 33 38
60 48 41 36 35 37 35 31 26 25 25 22 23 21 24 26 33 34 40 45 51 54 60 63 67 74 80 87 86 77 69 56 42 32 32 29 27 27 28 29 29 33 34 34 35 37 38
59 45 39 38 39 38 35 30 26 25 25 22 23 20 22 26 33 35 39 43 48 55 59 63 67 71 75 81 86 83 62 56 55 42 32 32 33 31 31 32 33 35 36 36 38 40 41

GFSGBSN_250_spd_060.txt.gz
Wind_Speed
72 72 69 67 68 70 69 73 75 77 81 87 94 98 102 106 103 94 93 85 78 70 74 78 78 77 74 64 47 33 31 34 39 47 54 60 62 72 79 87 97 100 99 98 100 103 104
77 71 69 70 70 70 72 76 74 78 84 87 92 99 104 105 103 96 96 89 81 72 75 79 79 78 75 60 44 35 30 33 38 45 53 59 65 72 80 87 95 100 100 101 102 102 104
71 71 70 71 73 69 75 78 73 78 84 89 92 97 103 103 104 97 97 89 83 72 75 79 78 80 75 58 44 34 31 30 35 42 50 60 69 71 76 84 92 98 101 102 104 105 103
73 71 75 73 77 81 81 74 73 82 83 89 91 96 102 105 106 97 99 96 81 76 78 81 80 80 74 56 43 34 28 27 32 40 50 61 68 72 75 82 87 95 100 103 105 103 101
77 73 79 80 83 83 84 71 73 81 84 90 92 95 103 104 105 99 98 95 82 77 79 81 82 79 71 54 42 31 25 24 27 36 48 58 67 73 77 80 84 89 96 99 103 106 107
88 92 91 89 85 83 78 70 74 80 85 88 90 93 102 104 104 95 97 100 84 77 80 80 81 79 71 55 39 28 22 21 25 35 49 59 67 73 76 79 79 82 93 97 102 104 102
95 94 93 89 86 83 73 72 73 80 86 88 89 91 101 100 98 93 96 98 82 76 79 80 83 76 69 51 37 25 19 19 24 35 45 53 59 66 70 73 78 83 91 90 93 97 100
100 97 92 86 84 79 69 72 73 79 87 87 89 91 101 98 95 90 94 97 82 74 80 84 82 78 67 47 33 23 17 15 22 31 46 55 60 68 73 77 82 86 87 95 94 97 99
97 94 83 79 74 78 75 70 77 82 89 84 86 90 93 95 89 87 94 96 79 75 79 82 80 78 62 42 29 21 15 13 19 30 42 54 61 69 73 79 81 84 88 87 91 91 90
98 93 85 83 87 83 75 77 76 85 84 82 86 95 90 91 84 82 91 95 79 72 77 83 80 74 56 38 27 19 14 12 14 24 35 49 56 61 71 73 75 79 83 83 79 82 85
98 93 89 89 86 81 76 77 77 78 79 83 87 85 85 84 82 81 87 93 76 74 75 82 78 70 52 35 25 18 14 9 14 26 29 38 48 54 63 69 75 77 77 77 78 77 82
105 97 91 84 83 80 79 76 78 79 80 84 80 80 82 77 78 76 82 87 76 77 81 80 74 65 48 33 24 17 12 5 11 19 30 41 46 51 59 64 64 72 76 74 75 75 73
104 101 94 86 83 80 78 76 79 80 81 81 73 77 75 70 73 73 76 78 73 76 79 77 70 63 50 32 23 17 11 3 9 17 24 39 50 55 57 61 67 68 70 72 74 69 70
98 103 96 93 86 80 77 71 77 77 71 68 68 68 68 65 67 69 69 76 69 73 79 74 64 57 47 36 23 18 11 9 5 13 19 29 40 49 55 58 62 64 66 68 69 69 72
78 97 99 93 86 83 75 72 69 67 64 61 61 62 58 59 62 64 63 73 67 71 75 73 64 58 49 36 24 18 13 6 3 10 18 26 35 46 50 55 58 61 61 62 64 68 69
63 76 89 91 84 80 75 65 60 59 58 53 56 54 52 53 58 59 57 67 71 68 72 69 64 57 49 39 26 20 17 7 2 9 18 23 30 40 45 49 53 57 59 61 64 67 70
58 66 73 81 80 76 74 67 60 56 50 48 49 46 46 48 53 55 52 61 67 67 67 66 62 54 50 41 30 20 18 9 2 8 15 20 29 38 41 46 50 53 56 60 63 66 70
55 59 68 70 71 70 66 60 49 45 43 44 39 39 41 46 48 47 45 56 63 64 66 64 61 55 48 42 33 22 16 12 6 7 16 22 30 34 37 40 46 51 56 58 59 63 66
55 57 60 62 64 62 51 48 37 40 37 34 33 34 38 42 44 40 40 48 55 61 62 63 60 54 49 43 35 26 18 12 8 5 14 23 29 34 39 41 44 48 52 55 58 61 63
57 54 62 63 60 52 40 39 37 36 31 29 29 29 35 38 40 39 38 43 50 55 58 61 61 56 49 45 39 31 21 13 8 6 8 12 27 33 36 39 43 45 49 51 52 54 61
63 63 63 63 51 43 40 31 31 31 27 26 26 27 32 33 35 34 34 41 48 53 58 57 60 57 53 43 40 37 32 19 10 6 7 17 18 31 37 39 41 43 45 48 51 58 58
60 59 59 55 46 39 31 29 29 29 26 26 24 26 28 31 32 32 35 35 42 52 55 60 59 61 56 48 38 39 36 30 19 11 7 13 14 23 30 40 42 47 49 51 54 56 56
71 64 61 53 45 42 34 32 28 28 27 23 23 23 25 27 28 31 33 35 39 48 55 62 63 63 64 54 48 39 37 34 28 17 13 11 14 17 23 28 35 42 48 53 54 56 57
71 66 59 52 48 41 34 28 27 29 25 23 22 21 23 24 27 29 30 34 33 46 56 58 63 69 67 68 60 50 39 35 32 26 20 15 16 20 23 25 31 36 38 42 47 52 55
72 60 61 50 40 41 37 30 31 29 25 21 20 19 20 23 24 24 27 30 40 43 47 55 63 65 73 76 72 64 52 43 35 30 23 18 18 20 23 25 27 28 38 40 40 44 48
64 61 59 47 47 37 34 32 32 29 25 21 19 17 18 21 22 24 26 32 38 40 47 52 58 64 69 72 77 73 68 57 51 42 33 29 24 20 22 26 26 33 41 38 39 39 49
73 61 56 51 41 38 38 35 34 32 25 21 18 16 17 19 20 23 26 33 35 39 43 48 53 59 63 67 74 77 73 67 57 48 42 34 33 29 25 24 26 35 41 39 38 39 43
74 64 61 52 43 40 37 36 34 31 26 21 18 17 18 17 17 22 25 33 37 38 43 46 48 54 59 65 68 67 64 74 74 59 53 43 47 37 28 24 25 31 36 40 40 42 44
66 66 55 50 44 40 39 37 35 29 27 21 17 18 20 17 19 21 25 30 36 38 42 46 48 53 56 59 62 63 64 70 70 71 70 61 53 47 38 33 28 28 31 35 43 44 45

GFSGBSN_250_spd_063.txt.gz
Wind_Speed
86 75 75 82 72 73 74 72 73 74 83 87 92 93 94 92 94 101 103 108 100 89 81 75 67 66 68 67 60 54 44 35 30 29 37 43 48 60 66 75 86 91 98 101 102 99 106
82 78 85 75 74 68 69 72 70 78 84 89 93 92 90 91 95 99 102 106 105 95 84 74 68 69 72 67 62 54 42 32 30 30 37 43 49 59 68 76 85 90 95 97 99 100 107
78 77 85 83 75 79 69 79 74 86 86 91 89 93 92 89 95 99 105 108 106 89 83 72 69 71 73 71 68 53 37 30 27 31 35 43 50 59 66 74 85 92 98 96 100 106 105
96 90 92 85 80 83 81 85 80 82 85 92 90 89 91 88 96 99 103 103 102 90 79 70 69 74 72 69 67 49 32 27 26 30 34 43 50 61 67 74 85 91 98 99 103 106 109
102 97 88 83 88 88 87 81 83 86 92 88 88 85 86 90 95 98 102 105 106 93 78 73 72 73 73 71 65 44 30 26 24 27 34 41 53 62 69 73 83 92 93 94 97 103 106
99 94 86 87 85 84 81 82 87 84 85 83 81 80 89 89 93 97 100 103 104 87 78 73 73 73 71 72 60 40 30 24 21 24 32 41 53 62 67 72 75 82 86 93 99 105 101
101 98 88 87 83 84 85 82 89 87 81 78 76 82 85 88 94 94 101 101 103 86 76 71 73 74 73 70 53 38 29 23 18 21 30 41 53 62 67 69 75 84 87 93 97 98 99
108 107 104 95 90 90 88 91 82 78 74 73 76 81 82 89 90 94 97 94 94 83 73 70 73 73 73 66 47 37 27 19 16 19 29 42 55 60 67 73 77 82 88 91 96 97 101
109 105 101 102 99 101 103 88 79 76 71 72 76 79 82 86 89 95 93 86 91 78 69 70 72 74 72 64 45 35 24 14 9 16 29 43 52 60 69 74 75 74 77 82 87 92 94
103 105 105 101 99 92 85 81 70 74 72 74 74 76 79 82 87 92 83 84 85 76 66 71 72 72 70 60 42 33 21 12 6 12 25 36 41 52 60 67 72 74 73 78 86 91 90
82 96 96 101 97 95 85 77 71 69 70 71 69 73 75 80 81 81 76 79 80 76 66 69 70 69 65 56 39 29 19 10 4 8 20 31 42 55 60 67 68 74 74 76 76 84 89
73 65 76 86 92 93 86 81 68 66 64 69 66 68 72 76 76 76 72 72 82 76 66 69 70 66 61 52 37 27 17 11 5 2 19 30 42 51 54 59 66 69 74 74 82 88 84
68 66 58 59 70 84 85 80 73 71 63 66 64 66 69 65 68 69 65 67 80 70 65 68 69 61 59 49 35 25 18 14 10 5 13 22 34 42 48 52 59 65 72 76 83 77 76
60 58 54 46 53 67 73 74 69 67 62 60 62 60 61 62 61 63 57 63 72 67 62 66 65 60 54 47 33 24 19 13 10 7 12 23 27 33 38 49 56 64 70 76 76 74 70
76 71 53 46 45 52 62 61 60 62 60 60 56 58 58 58 57 57 50 56 64 66 62 66 67 58 49 45 36 24 21 16 10 8 11 18 28 36 42 49 52 55 61 66 67 64 65
86 76 61 49 44 41 53 54 55 56 54 53 48 52 56 51 53 46 47 52 58 63 61 64 63 57 49 42 37 27 20 18 9 6 11 14 28 35 41 47 51 55 61 61 62 63 66
82 79 66 50 44 41 47 45 52 49 46 45 37 42 45 44 45 40 43 43 53 58 61 62 58 54 49 42 37 30 20 17 13 7 10 17 26 32 38 43 46 50 55 60 61 62 62
77 78 64 55 49 44 39 40 45 42 40 34 29 39 37 41 35 36 40 38 48 53 58 61 58 53 52 43 38 32 23 17 12 9 9 14 21 29 34 36 41 46 50 53 57 59 61
79 74 65 54 48 43 44 41 39 34 34 28 27 31 30 35 29 31 34 35 44 51 54 57 55 54 52 51 43 36 28 20 15 11 6 7 19 26 32 36 40 44 47 51 53 57 59
81 73 59 49 47 47 45 42 33 37 30 27 25 27 27 26 25 30 29 32 42 46 49 51 54 56 52 51 45 39 31 25 17 10 9 6 13 20 26 32 36 40 44 47 49 53 57
79 70 55 53 51 51 48 40 38 29 28 24 25 22 22 20 21 27 26 28 35 40 44 48 52 52 56 51 48 42 38 30 24 17 10 8 8 12 21 26 33 36 40 42 47 51 52
76 74 64 61 60 58 45 45 34 34 31 23 22 21 17 16 18 23 23 23 31 36 39 45 50 54 55 53 47 45 41 38 31 25 20 12 9 13 13 16 31 35 38 42 47 49 52
74 74 67 58 54 56 50 41 39 36 29 25 23 19 15 12 15 19 21 22 27 30 36 43 51 54 57 55 54 53 45 39 38 33 27 20 15 14 14 15 22 26 38 43 47 50 52
74 72 71 66 60 55 50 42 44 36 30 27 22 17 14 11 12 15 19 22 22 27 35 42 48 53 54 59 59 55 53 54 46 38 34 28 22 17 13 16 19 24 30 36 45 49 53
74 76 74 68 67 61 50 48 42 35 32 27 23 18 13 7 10 13 17 22 21 26 30 37 44 50 51 54 56 55 60 50 44 46 43 41 37 30 21 17 19 26 29 31 35 40 44
79 81 76 67 56 56 59 49 43 37 36 28 25 19 13 5 7 10 14 19 20 25 31 39 41 47 54 55 53 53 60 58 60 58 50 47 42 38 34 29 23 28 30 29 33 40 41
79 74 73 69 64 54 52 44 44 38 36 30 25 19 12 5 8 6 12 17 23 27 32 37 44 46 50 52 54 57 60 58 61 54 58 63 57 45 40 36 30 24 25 30 34 40 45
82 80 77 71 65 58 49 44 42 40 38 31 25 19 12 7 9 8 11 16 18 27 30 33 39 44 48 49 52 48 54 63 60 59 53 58 63 65 57 51 45 36 32 28 32 37 41
87 83 72 70 62 60 52 48 44 41 35 30 25 19 14 9 10 7 9 14 19 24 28 34 37 42 48 51 51 50 57 57 62 62 62 60 64 65 70 66 48 43 42 33 30 31 39

GFSGBSN_250_spd_066.txt.gz
Wind_Speed
86 92 91 88 92 94 89 89 90 91 91 86 81 86 86 87 90 93 92 89 91 87 84 85 63 57 54 58 61 61 64 62 57 48 35 38 37 42 49 58 65 71 80 84 92 101 107
105 104 108 104 104 100 92 88 97 90 91 81 87 83 86 87 94 95 91 88 89 86 89 83 57 60 59 61 63 61 61 57 50 38 31 35 36 40 51 61 70 73 81 87 89 100 106
114 113 104 98 91 90 96 97 98 95 89 91 85 86 86 86 93 90 86 87 87 86 90 71 64 58 59 61 63 61 58 49 40 30 28 33 37 43 51 60 72 77 82 87 91 98 105
113 111 110 113 112 105 104 99 98 96 95 89 85 80 79 84 89 86 84 86 84 89 87 64 59 59 60 63 63 60 56 42 31 25 26 33 37 45 54 59 65 70 77 86 87 94 102
123 120 117 116 112 110 105 96 99 92 85 81 77 79 81 84 87 85 83 84 84 86 83 61 60 62 62 63 61 59 52 37 27 24 25 34 37 44 55 59 65 72 78 83 87 93 99
124 122 118 122 113 109 104 100 85 91 84 78 77 77 79 85 86 85 79 83 83 88 77 63 61 65 62 65 60 57 45 33 24 22 26 33 38 46 56 60 63 68 78 85 89 89 99
111 117 119 118 114 108 97 96 94 91 81 76 72 77 79 86 85 81 80 81 83 88 80 55 62 61 62 62 61 56 40 29 23 21 26 32 35 44 53 59 67 75 80 86 87 89 95
103 102 102 102 102 102 100 94 89 86 86 83 82 81 77 70 73 76 75 80 83 86 64 60 59 63 63 62 62 53 36 26 21 19 24 30 36 45 54 64 69 78 86 91 92 94 94
89 85 84 86 95 96 93 89 86 85 78 75 79 80 79 73 73 72 74 75 80 78 66 54 61 60 61 61 58 48 30 22 17 16 23 32 37 48 56 64 70 75 84 89 90 95 96
82 87 81 77 71 79 82 82 79 82 80 74 77 73 70 67 66 67 68 74 79 75 52 60 61 61 60 59 57 40 28 19 13 11 18 29 39 46 53 63 67 74 85 87 87 91 95
82 79 77 71 67 67 69 75 73 76 76 75 74 69 65 63 63 65 67 70 80 81 57 60 61 61 60 57 51 36 25 18 8 7 17 26 36 44 54 64 69 76 80 83 87 87 92
76 66 60 64 67 57 54 57 66 69 70 67 63 68 64 63 61 60 62 68 76 74 59 58 60 58 60 54 47 33 23 13 5 7 14 22 32 40 51 57 65 68 72 76 79 83 88
65 60 59 66 72 61 46 51 57 60 59 56 52 58 58 56 59 57 61 66 72 71 55 56 57 56 54 49 43 31 20 9 3 3 14 22 30 40 52 60 65 65 67 71 76 81 82
60 65 67 69 71 62 52 43 53 52 51 47 50 47 48 50 50 54 54 61 68 66 53 54 52 52 49 45 39 29 18 9 5 7 14 22 30 34 43 53 57 61 67 71 73 74 75
57 61 65 69 65 65 58 50 47 42 41 45 43 41 42 43 45 44 46 53 61 61 50 52 52 49 44 42 37 26 18 11 7 4 14 18 23 26 39 47 52 57 62 63 69 72 75
45 56 64 59 64 63 63 49 39 40 43 42 37 34 35 36 37 34 40 44 56 55 47 50 54 45 44 42 36 27 17 15 10 6 8 17 23 25 36 41 46 51 56 61 63 65 71
31 36 54 65 67 66 64 49 41 44 42 39 31 30 29 30 28 30 33 37 47 50 46 49 51 38 40 40 36 30 20 17 11 7 7 12 20 30 37 43 47 51 56 62 65 65 67
22 31 46 70 65 67 64 47 45 44 41 33 32 28 23 24 23 23 25 32 40 46 45 50 49 43 40 41 38 29 23 18 16 13 4 3 10 18 26 36 41 47 51 55 59 60 61
25 35 54 70 73 69 60 54 51 41 38 35 29 24 18 21 17 18 19 26 35 38 46 48 47 43 45 45 40 32 27 23 19 16 12 4 5 11 16 24 34 42 45 49 52 56 56
26 39 55 66 68 67 58 53 49 47 38 35 29 21 22 15 12 11 17 22 30 35 42 46 45 45 47 46 40 36 30 27 24 20 13 7 4 6 10 16 25 32 39 43 46 50 53
36 50 64 69 66 62 58 54 51 47 41 32 29 25 20 10 8 8 13 18 27 32 37 40 44 48 51 48 43 39 39 33 31 27 21 14 7 3 5 6 14 24 31 39 44 47 50
45 60 68 75 73 69 62 56 48 48 39 36 29 27 19 9 5 6 11 16 19 25 30 35 41 47 51 52 49 47 49 45 41 34 26 21 16 10 4 6 8 12 26 31 36 41 47
54 68 72 71 71 64 58 55 58 48 46 34 32 27 17 12 5 3 8 11 13 20 27 34 38 43 46 48 52 55 53 50 47 42 35 29 22 16 11 8 10 13 16 21 30 38 43
59 65 73 67 68 65 62 60 57 54 44 41 34 25 19 12 7 1 5 12 11 16 23 29 37 41 47 48 48 48 54 56 55 49 43 39 37 29 22 17 14 12 16 19 23 29 35
51 68 73 75 73 71 68 63 58 51 46 42 34 26 21 15 9 5 3 11 11 16 21 26 33 37 41 47 46 45 47 48 55 60 60 54 54 44 35 29 22 19 18 21 24 27 33
62 73 69 75 72 70 71 67 58 51 49 42 36 29 23 16 11 6 3 7 11 16 21 26 31 35 36 46 43 42 43 41 44 45 50 57 54 62 54 45 43 33 24 18 18 27 35
63 70 65 70 70 69 62 58 52 53 47 40 36 30 23 16 12 6 1 3 5 12 19 25 29 35 33 39 41 40 48 52 47 40 43 41 48 56 55 52 50 54 47 30 29 26 27
69 63 66 72 73 66 63 53 51 50 44 40 37 31 23 18 12 7 2 4 6 10 18 23 29 31 35 36 40 42 47 44 50 50 50 47 48 56 56 56 63 60 54 54 33 25 29
74 71 69 73 69 67 58 55 54 49 45 42 37 30 23 17 12 9 4 4 6 10 16 23 27 33 36 38 40 45 49 44 46 55 56 51 53 57 57 55 63 63 69 54 54 34 27

GFSGBSN_250_spd_069.txt.gz
Wind_Speed
98 96 99 98 98 100 100 97 100 99 103 106 102 98 91 95 96 102 100 91 92 87 85 83 81 74 61 49 55 57 59 61 63 62 63 63 58 48 46 48 49 50 53 58 70 74 93
104 101 101 103 105 105 105 103 107 109 109 104 100 93 99 102 104 98 92 91 85 87 85 82 76 72 55 56 58 58 62 62 64 61 61 54 47 40 42 44 44 48 53 62 70 80 92
110 114 116 112 111 116 115 117 118 114 111 108 111 105 110 99 94 89 86 86 82 80 84 79 73 64 56 54 57 59 62 62 62 59 50 45 39 36 38 43 49 52 61 66 71 78 88
116 119 123 125 125 125 123 124 120 116 112 111 108 105 98 97 89 86 87 81 82 81 81 75 78 62 51 55 57 59 61 60 60 52 38 37 33 33 38 46 51 55 59 60 69 80 86
109 115 115 120 123 125 125 118 119 115 112 109 109 102 94 90 89 84 87 82 78 81 79 78 71 52 54 57 57 59 60 56 53 42 31 32 28 32 43 49 54 55 56 58 66 76 83
84 91 100 104 108 110 108 109 109 110 108 99 99 97 91 85 85 83 80 81 81 78 76 75 59 53 58 58 57 60 56 52 44 32 26 27 26 35 46 50 52 54 62 69 71 75 77
83 86 88 85 89 81 88 90 93 93 91 86 87 89 89 85 80 79 77 77 75 74 76 73 61 51 59 56 57 57 54 49 37 26 22 24 25 39 43 48 52 53 58 67 75 79 82
92 87 84 79 81 91 90 87 82 87 87 83 76 77 76 79 80 77 75 76 71 72 72 68 46 58 54 55 55 55 50 43 32 21 21 18 27 39 44 49 51 50 57 66 75 82 75
90 93 88 79 72 80 80 79 77 69 68 65 69 70 68 71 71 70 73 70 68 70 70 62 54 53 52 53 54 53 49 39 28 19 18 16 28 37 45 48 50 50 58 67 73 81 81
99 98 88 86 79 70 66 72 71 66 56 53 64 59 63 67 63 63 66 65 63 64 67 46 56 54 53 54 54 52 45 35 25 17 15 16 28 38 44 49 52 53 60 66 71 79 81
98 92 81 80 67 68 70 64 67 64 56 45 55 50 57 59 53 60 61 62 61 66 35 54 57 51 52 50 53 51 42 32 22 16 13 18 31 39 48 55 57 57 60 68 72 76 80
85 80 76 73 70 66 65 59 57 55 41 46 47 48 54 50 46 48 53 55 58 65 58 56 53 51 48 50 51 45 37 26 19 11 7 19 33 43 49 52 57 60 63 69 72 75 78
76 74 68 66 61 54 58 63 65 59 45 45 41 48 49 40 39 41 44 47 52 56 50 47 49 46 49 50 48 41 33 23 15 7 8 14 23 37 42 49 55 64 67 72 74 75 76
66 59 54 48 48 45 48 62 62 62 49 42 43 46 37 34 33 33 37 44 51 52 43 42 44 44 47 44 41 35 27 17 12 3 5 14 20 31 40 49 56 57 67 73 76 77 78
53 44 38 35 32 34 41 63 64 59 47 40 44 38 30 29 25 25 32 37 46 48 38 39 38 41 43 40 38 32 26 14 9 7 6 13 22 32 40 47 51 55 63 60 66 71 78
42 37 27 24 23 28 39 62 52 56 47 44 44 31 29 21 19 20 24 33 44 40 34 34 37 37 36 36 34 28 22 14 12 10 6 10 16 22 35 42 49 53 59 57 58 66 70
32 23 18 20 27 33 52 59 59 51 48 49 37 34 25 20 16 12 22 31 37 34 29 33 39 33 35 34 33 28 19 16 14 13 9 8 22 28 37 42 44 47 47 52 61 64 66
22 15 17 27 31 29 59 67 62 54 53 44 39 31 26 19 13 7 17 25 30 30 28 36 35 32 34 33 31 26 22 19 18 14 14 9 8 16 24 31 37 43 48 50 54 59 61
13 12 25 28 26 33 50 61 60 64 53 47 38 32 25 19 13 6 13 18 25 27 27 34 34 34 36 32 31 29 27 24 22 18 18 14 12 5 11 20 30 36 40 42 49 56 60
7 17 38 34 33 35 50 65 65 61 59 52 44 36 26 21 13 5 8 12 22 27 32 33 38 37 38 38 42 38 33 29 30 24 21 15 16 11 6 3 16 26 33 38 43 46 49
12 23 43 42 42 51 54 64 63 59 53 50 43 36 29 23 15 5 5 10 18 25 31 36 39 41 43 44 45 42 40 38 38 35 29 24 17 10 7 6 3 6 19 28 36 40 43
12 26 44 52 55 61 64 64 68 64 60 51 44 37 33 25 15 8 7 6 13 21 26 32 38 45 47 48 44 44 44 46 53 47 41 33 26 18 13 9 3 4 8 12 21 29 34
17 40 48 56 60 62 58 59 66 62 57 53 45 41 34 27 17 12 10 5 10 16 23 29 35 38 42 43 45 47 48 50 51 49 46 41 37 30 23 15 10 8 8 12 16 21 25
24 37 48 51 53 61 61 68 64 63 57 51 45 40 34 26 19 15 13 8 10 15 19 25 31 35 39 40 42 43 42 47 49 48 47 46 40 40 36 36 31 19 16 15 16 20 24
31 46 40 56 64 62 64 67 64 60 55 52 48 43 33 26 20 17 14 13 11 15 21 22 29 32 35 41 41 41 41 46 48 48 47 50 42 43 46 45 45 38 31 28 23 25 24
47 45 50 58 55 65 62 62 63 60 54 51 49 43 32 24 23 20 16 15 12 11 19 22 22 28 32 35 32 40 43 37 44 47 48 51 55 51 49 43 30 39 45 49 41 28 30
55 51 44 54 51 62 63 62 58 54 53 50 46 41 31 23 22 20 13 10 8 8 17 24 28 29 32 36 37 34 42 37 42 45 43 39 42 48 51 52 55 42 40 35 32 32 33
59 62 55 55 51 52 59 63 57 52 52 49 45 38 29 22 21 19 13 11 12 9 16 21 27 31 34 38 41 44 45 43 42 46 45 45 47 47 55 51 58 59 54 48 43 45 48
66 65 60 66 54 59 63 61 58 52 50 49 44 36 30 24 21 19 11 7 8 7 10 17 21 26 29 35 40 43 47 48 46 43 49 47 53 48 52 55 61 58 61 64 55 48 47

GFSGBSN_250_spd_072.txt.gz
Wind_Speed
110 108 105 108 107 106 106 104 103 103 101 99 99 101 100 97 97 99 101 104 109 104 105 103 100 92 85 75 74 67 60 59 62 65 63 64 65 67 71 71 69 62 65 66 68 65 65
89 97 104 107 114 114 112 114 112 108 106 105 107 105 105 103 102 105 106 111 109 104 105 103 93 86 79 74 72 65 60 62 64 64 64 67 69 68 70 67 60 60 60 62 61 63 62
82 85 87 90 97 102 107 112 115 114 111 110 109 112 112 109 110 111 109 109 105 104 100 93 83 78 75 69 65 65 62 64 61 63 64 69 66 63 63 54 51 53 54 56 56 59 65
88 89 87 87 90 92 92 94 103 105 111 111 110 112 113 109 107 110 106 104 106 101 95 88 79 73 71 66 62 61 62 61 60 63 65 64 61 59 52 43 45 44 46 47 55 58 63
95 94 94 92 92 88 88 89 92 94 93 94 91 96 100 95 93 98 99 96 95 93 87 76 72 67 66 58 58 58 59 59 62 63 61 59 52 47 39 41 40 38 41 48 54 59 64
97 97 96 98 91 89 83 85 84 87 81 82 85 89 86 83 79 83 82 86 82 78 75 68 67 61 62 49 55 57 57 60 62 60 54 49 42 38 37 36 34 37 40 48 55 63 66
94 93 91 92 87 83 79 73 69 84 76 74 78 75 65 64 70 74 71 74 74 72 65 64 60 60 45 53 55 54 56 59 60 51 45 38 33 34 36 35 37 42 47 53 56 60 59
87 91 92 92 86 83 76 71 65 76 80 67 73 63 53 57 63 66 66 66 66 64 61 61 56 51 54 55 53 52 54 56 51 43 35 28 26 30 33 36 38 44 49 53 53 60 67
88 89 90 90 89 81 76 71 67 66 79 65 68 56 55 57 59 59 59 59 58 58 58 57 52 52 55 52 49 50 54 51 43 35 25 21 23 28 31 34 39 45 49 50 58 58 55
89 87 89 88 84 80 76 74 74 71 63 72 63 52 48 55 52 50 52 50 54 53 51 54 49 51 47 47 46 51 50 45 35 24 19 18 21 24 29 36 41 43 45 44 49 59 58
94 91 87 82 75 67 65 59 58 59 57 64 61 50 42 45 40 45 42 44 47 48 48 49 44 46 46 43 47 50 46 39 28 19 14 16 19 23 31 36 37 36 41 47 54 62 65
97 91 88 81 72 66 59 49 40 41 48 59 52 45 45 37 36 38 35 40 42 45 46 40 42 43 40 42 47 47 41 31 22 15 11 12 19 26 32 36 39 41 42 49 58 62 65
87 81 74 64 54 49 42 37 30 29 39 57 55 51 42 35 35 29 34 34 39 40 33 33 39 36 37 41 44 41 34 27 18 12 9 11 21 29 34 36 40 42 44 54 54 59 63
79 68 57 48 39 33 27 22 20 26 40 51 54 47 41 37 30 27 27 31 35 30 27 31 31 35 36 38 39 34 28 22 11 6 4 11 14 20 25 34 39 48 50 51 51 55 62
67 56 47 33 26 20 16 16 25 32 35 48 49 47 41 31 27 22 25 27 28 18 22 23 28 31 34 36 33 28 23 17 9 5 4 10 11 12 17 25 35 45 52 50 56 57 61
56 45 33 23 17 12 20 24 27 33 51 48 47 46 37 29 21 21 20 20 10 15 19 22 24 27 29 29 28 24 18 12 11 10 5 7 13 16 20 27 32 38 43 50 53 55 60
46 33 24 18 12 17 22 31 39 48 58 50 49 42 35 28 21 16 17 7 8 14 19 22 23 24 24 26 24 21 19 16 16 13 12 9 5 13 19 27 32 34 36 41 45 51 53
37 25 19 13 12 17 25 38 47 66 56 50 46 42 38 29 20 15 10 6 9 17 23 23 23 23 26 26 26 27 25 21 18 20 17 11 5 4 11 15 21 25 30 34 36 40 45
29 21 13 9 5 18 33 44 57 46 59 60 52 46 38 29 18 10 3 10 13 21 25 23 23 26 26 30 32 33 32 27 23 23 23 20 16 9 5 11 17 22 27 30 33 35 39
23 16 6 3 12 27 39 48 55 56 55 58 55 47 40 29 18 9 8 17 17 20 23 25 27 27 31 35 38 38 39 36 35 32 26 21 17 15 13 7 3 10 17 24 27 30 36
15 8 1 9 14 28 43 50 50 61 61 58 54 48 41 31 22 15 15 17 20 24 25 29 32 32 35 39 39 42 47 50 47 46 41 37 28 18 12 8 6 8 5 12 16 23 30
6 2 7 18 10 29 47 50 57 63 63 62 54 47 40 31 23 19 19 16 19 23 28 33 37 39 44 47 49 48 51 51 51 50 53 50 47 40 34 25 17 10 5 6 11 17 22
2 6 13 15 9 34 32 47 55 63 64 61 54 47 41 32 24 21 20 18 19 22 29 34 38 42 48 46 49 49 50 48 51 54 55 54 52 50 48 40 37 28 21 12 5 9 17
8 18 24 18 14 35 34 50 64 65 63 56 51 49 40 33 27 23 22 20 21 23 27 32 36 40 42 42 42 43 45 43 46 46 47 47 49 51 49 46 43 36 33 28 24 19 18
10 21 35 19 27 36 37 53 63 63 59 53 47 46 40 34 29 27 24 23 23 22 26 31 31 33 35 37 38 40 43 45 44 45 48 45 42 44 44 46 47 48 43 40 38 39 32
20 35 32 17 31 23 36 49 64 62 57 53 47 43 40 36 30 26 24 24 24 26 28 32 33 33 35 39 38 45 42 38 46 41 47 42 47 50 46 46 41 36 39 37 42 40 40
28 38 34 32 28 34 45 58 64 59 55 50 45 40 38 34 28 26 21 21 22 26 30 33 34 37 38 41 40 42 44 47 48 47 48 47 49 46 49 50 51 50 51 51 43 40 39
35 35 36 36 35 33 50 61 61 56 53 48 42 39 37 33 26 21 20 22 23 22 24 27 30 32 33 36 37 40 39 39 43 42 46 47 47 47 50 51 56 55 58 57 58 58 53
34 38 46 43 38 45 57 60 57 55 51 46 40 36 34 30 25 22 19 17 16 15 17 20 23 24 27 30 31 34 36 39 41 40 41 46 45 47 51 52 54 56 59 62 64 66 68

GFSGBSN_250_spd_075.txt.gz
Wind_Speed
69 76 76 73 75 81 78 84 87 90 102 105 112 113 109 111 111 109 106 98 93 98 98 97 98 96 93 97 96 93 86 73 68 66 64 63 68 69 70 71 67 62 64 65 70 72 76
71 74 80 79 81 82 84 84 78 78 79 86 92 97 99 107 111 112 109 106 97 97 99 100 100 97 95 92 88 82 74 64 62 61 61 63 68 66 68 70 66 68 67 67 70 71 73
73 76 78 83 86 86 89 89 90 84 83 82 82 86 93 90 97 100 104 104 100 98 99 100 99 89 87 82 78 72 64 58 56 60 61 62 64 66 69 67 69 68 68 67 68 70 70
88 83 79 79 86 88 91 93 92 88 88 87 83 83 85 85 84 83 92 90 93 97 95 90 87 81 79 69 64 61 56 51 54 56 60 62 63 65 64 67 67 65 63 61 61 59 59
100 102 91 83 82 85 90 92 88 89 87 84 85 80 78 77 79 76 74 70 77 82 80 73 74 69 63 61 56 52 49 54 54 55 58 61 63 63 65 64 62 58 51 49 45 45 49
107 107 98 89 85 84 85 85 86 85 81 81 81 76 73 74 71 67 65 61 70 73 69 69 65 58 59 52 47 42 46 52 54 54 57 62 63 63 61 57 52 45 41 37 39 38 42
111 105 98 89 86 87 86 85 82 80 80 71 72 68 68 65 62 56 58 60 65 59 57 55 53 54 51 41 41 42 48 51 51 54 59 61 60 59 53 48 42 37 34 34 37 37 42
112 105 96 86 85 85 86 85 83 79 75 78 64 64 64 62 56 52 52 51 50 46 47 47 47 44 38 36 42 41 42 45 50 55 56 55 52 48 42 36 33 31 31 36 36 37 45
109 100 93 91 88 85 82 78 72 70 66 70 63 63 59 59 52 51 43 50 42 41 44 44 40 34 31 33 37 39 39 45 50 51 47 44 43 37 31 29 27 30 32 35 37 43 50
106 98 93 88 80 73 67 59 52 48 47 52 55 50 53 54 56 49 45 43 38 38 41 38 30 30 29 35 34 35 41 45 48 45 36 33 31 26 25 23 26 29 31 35 39 45 52
108 101 90 78 68 61 52 46 38 34 38 41 40 37 39 52 57 46 43 39 37 38 32 25 21 25 31 33 32 38 40 42 42 34 25 22 19 18 19 21 25 28 32 36 38 43 48
105 96 81 72 64 53 43 33 26 21 29 33 35 33 44 50 49 44 38 37 35 26 24 13 17 25 29 29 33 38 37 35 32 23 17 15 12 12 17 21 24 27 28 27 31 38 51
97 84 73 62 52 44 36 26 19 16 26 28 27 35 36 41 39 35 32 30 23 10 8 11 17 24 24 30 31 32 31 29 24 16 12 8 8 11 16 19 20 23 26 26 33 38 47
85 75 62 51 42 35 28 19 13 12 23 26 27 24 29 29 31 32 27 17 2 3 6 12 17 20 24 25 26 28 25 23 19 13 9 4 4 7 12 19 22 24 25 28 36 40 43
76 64 52 44 34 28 19 11 9 14 21 23 28 32 29 30 33 27 17 13 13 8 8 11 12 15 20 22 22 21 19 17 14 11 6 2 5 5 9 13 23 26 29 31 37 40 38
67 56 44 36 26 16 10 8 16 27 34 30 36 40 37 37 28 20 19 20 15 12 4 5 8 14 18 18 18 16 15 13 11 11 11 8 6 9 7 11 21 27 29 34 38 38 38
60 48 37 25 16 9 5 7 15 29 41 45 42 42 37 33 28 31 26 22 14 10 9 9 12 15 15 14 15 14 16 16 15 16 17 16 12 7 9 12 14 16 24 28 31 32 35
51 39 27 16 12 9 8 15 28 35 44 52 47 41 41 40 38 32 27 22 20 19 15 15 17 15 17 18 18 17 23 23 24 22 17 19 19 13 12 7 8 9 13 16 23 26 29
44 32 19 12 13 11 14 27 36 41 51 47 48 48 45 43 36 31 33 29 25 24 22 23 20 21 23 26 28 29 31 33 33 30 29 26 23 19 16 15 12 10 11 10 11 15 20
37 25 18 20 15 10 12 36 44 45 45 53 55 49 46 42 38 39 37 32 28 29 31 22 24 28 30 33 39 41 42 41 40 38 37 33 30 28 25 19 15 12 10 9 7 11 17
30 23 27 29 18 8 6 43 46 45 48 53 54 53 48 41 38 40 40 36 33 34 32 28 32 35 40 45 51 51 47 50 53 55 51 45 41 39 36 30 25 21 15 10 4 8 10
23 26 39 29 15 12 20 39 43 48 53 53 50 49 47 44 41 39 36 37 36 38 37 38 38 42 45 50 51 53 56 58 60 57 52 51 53 50 46 41 39 35 29 21 15 10 9
23 37 34 25 14 7 25 33 44 55 49 52 47 46 47 46 41 37 35 34 39 41 42 43 45 49 52 54 56 55 57 59 57 56 54 54 53 51 48 46 43 41 39 34 31 26 20
34 38 30 20 12 20 27 39 53 53 52 49 48 44 48 46 42 36 34 35 38 42 43 45 48 51 52 53 51 52 50 51 51 49 52 50 51 50 49 46 45 40 40 38 37 34 27
40 39 26 14 10 17 19 38 54 52 50 47 46 44 47 46 41 35 33 33 34 38 42 43 44 46 48 49 47 50 50 50 51 46 43 42 41 43 47 49 48 49 47 44 40 39 41
33 28 18 14 11 24 43 55 52 48 47 46 47 43 45 43 40 38 36 35 35 36 38 39 40 41 41 40 39 40 41 44 45 43 43 40 42 42 44 43 42 41 41 42 42 39 37
24 21 18 14 22 35 52 54 50 47 45 43 44 41 41 39 38 35 35 36 36 38 38 38 40 39 36 38 38 37 39 41 38 39 42 42 46 44 48 42 42 42 44 44 45 47 45
14 16 22 17 37 49 53 52 48 46 44 41 41 40 38 35 35 34 35 35 35 34 33 32 33 34 35 36 37 38 39 40 40 40 43 42 42 47 46 49 47 48 50 50 50 53 56
8 8 18 25 41 45 49 49 48 45 43 41 38 35 33 33 33 32 29 27 27 27 27 29 29 31 32 33 34 35 37 39 39 41 43 43 46 47 47 49 50 52 51 55 54 56 60

GFSGBSN_250_spd_078.txt.gz
Wind_Speed
72 74 76 75 72 73 76 76 74 74 77 78 83 87 87 90 94 98 102 102 105 106 106 99 94 93 94 94 89 81 77 76 76 76 77 74 71 66 69 67 70 65 67 58 54 57 61
76 79 79 80 85 87 86 86 86 80 76 76 76 79 83 90 91 92 93 91 90 93 95 93 90 91 91 92 84 76 73 74 74 73 71 69 62 66 63 67 67 66 62 57 53 57 60
78 81 85 85 87 89 91 94 92 81 79 76 75 76 80 83 85 86 87 85 85 83 84 90 83 84 85 83 76 72 70 68 68 64 64 58 59 61 63 64 63 62 58 56 56 59 61
85 86 88 88 92 95 93 89 87 82 78 77 77 76 78 79 80 80 82 82 81 80 77 81 79 80 75 71 67 66 63 59 58 56 56 55 57 61 63 60 60 61 60 57 59 60 64
89 90 90 92 95 99 97 91 84 78 81 78 75 77 79 79 78 78 74 77 78 73 75 76 69 68 63 63 64 59 56 52 53 49 51 54 57 61 60 60 59 59 60 57 59 64 64
95 96 99 98 100 99 97 91 83 80 77 80 73 72 74 76 77 73 72 69 68 67 70 64 62 56 54 55 55 52 46 43 43 47 51 55 56 59 57 56 57 57 57 60 60 58 52
104 105 106 105 104 98 93 88 83 80 76 75 75 68 63 67 69 65 64 62 59 57 57 52 51 49 47 48 49 42 32 35 42 47 51 54 55 52 53 55 55 56 57 50 46 45 47
116 116 112 108 101 91 82 75 70 67 66 64 64 63 57 56 57 55 55 55 54 50 47 46 44 42 42 38 32 25 29 37 41 47 49 50 51 52 51 52 53 50 43 40 37 35 36
122 121 111 98 86 76 68 61 57 55 54 55 55 54 49 46 50 52 48 45 48 43 39 34 32 33 24 22 19 23 29 31 38 42 46 48 47 47 45 45 42 38 35 31 30 32 35
128 116 99 84 72 64 56 50 46 45 44 46 47 49 43 37 43 47 45 45 41 34 32 29 25 18 15 18 19 24 26 30 34 40 43 42 39 39 39 37 33 30 28 26 25 28 30
123 105 89 75 64 54 45 38 33 35 36 35 41 39 35 32 43 47 42 39 30 31 25 17 14 12 16 14 17 22 23 26 33 36 37 32 32 31 28 25 24 23 21 20 21 27 28
109 93 77 64 54 46 36 28 23 21 24 28 30 25 24 35 44 45 36 30 32 18 14 12 12 12 8 13 14 18 22 26 28 29 24 24 22 20 18 16 18 15 17 18 21 25 31
97 80 65 53 44 37 30 23 16 11 15 16 19 24 35 37 36 34 32 27 18 16 15 15 12 6 6 9 12 18 20 20 21 16 14 14 14 12 10 11 12 12 13 14 17 21 28
83 66 55 45 36 28 22 18 11 3 8 10 15 18 20 23 31 26 27 22 20 22 18 12 7 5 3 9 13 14 13 11 9 8 6 5 3 4 8 9 13 11 10 11 14 17 23
70 57 47 37 27 21 18 15 9 9 12 13 19 24 29 34 38 35 28 30 29 23 17 13 7 3 6 8 8 8 6 5 3 2 3 6 7 9 9 12 13 13 13 12 16 21 23
62 50 40 30 22 17 20 17 14 21 27 34 43 46 47 44 41 42 41 36 29 23 18 11 7 6 5 3 6 6 5 4 8 10 12 13 11 14 12 11 12 12 16 17 18 20 21
53 45 35 24 18 24 22 17 17 29 41 45 51 43 43 49 47 45 40 33 29 22 17 15 12 9 8 11 12 10 11 12 14 15 15 16 16 17 17 15 12 13 15 16 18 22 25
43 37 27 24 33 27 21 16 28 35 46 46 50 51 48 52 48 43 38 35 31 25 23 17 14 15 16 17 16 17 20 22 21 23 23 21 23 21 22 19 16 11 9 12 11 14 21
35 29 29 40 34 22 23 33 39 45 43 44 50 55 53 52 50 45 40 37 34 29 24 23 22 21 22 25 26 27 27 29 28 29 30 29 28 24 22 21 22 23 15 7 6 7 9
35 36 46 45 38 24 31 36 41 41 45 57 58 57 54 54 52 48 43 39 38 34 33 28 28 30 33 37 41 43 41 40 40 40 37 36 34 32 27 20 19 19 18 15 12 12 10
44 47 55 40 37 29 35 38 38 46 54 55 57 59 58 58 53 49 45 41 41 43 37 35 36 39 43 48 50 53 55 53 51 51 49 48 45 42 35 32 28 24 21 17 14 10 6
49 47 45 41 31 30 30 38 50 56 56 60 60 61 62 57 52 50 48 46 44 45 42 47 47 49 53 53 50 52 53 55 56 53 50 46 47 47 46 45 45 40 33 26 22 20 16
45 39 28 29 25 24 26 37 51 51 57 63 62 57 62 56 54 50 50 49 46 44 47 50 52 54 57 58 58 57 58 59 57 56 52 51 49 47 46 45 43 39 38 36 34 29 26
34 28 19 24 19 18 31 41 46 50 55 59 58 58 60 56 54 50 51 50 51 51 54 56 58 59 57 58 55 52 52 52 52 51 49 49 49 48 46 45 45 41 40 36 34 34 31
25 21 18 13 20 27 34 40 43 48 51 54 55 54 55 54 50 48 48 49 52 53 54 53 55 55 55 54 53 51 50 49 46 45 44 42 44 45 44 43 42 41 41 39 41 38 34
27 8 10 9 17 24 35 40 43 46 48 50 48 49 49 49 45 45 45 45 47 49 48 49 50 49 49 49 48 48 46 46 42 42 45 45 42 41 43 41 40 38 37 37 36 36 39
13 8 3 14 18 27 34 37 41 43 45 45 46 45 45 47 44 42 41 42 43 43 44 45 46 46 46 45 44 44 44 41 41 42 39 42 41 39 39 41 40 38 38 38 39 39 40
12 9 1 8 20 26 30 32 37 39 41 43 42 42 42 43 43 41 39 38 39 39 38 40 41 41 40 39 39 37 38 37 39 39 38 38 39 38 38 40 39 37 38 40 41 42 44
12 0 8 12 16 24 23 28 33 35 36 38 39 40 40 40 38 34 33 33 32 33 33 34 34 35 33 33 33 34 34 34 34 35 35 37 37 36 37 39 39 39 40 42 44 46 48

GFSGBSN_250_spd_081.txt.gz
Wind_Speed
80 78 79 82 83 85 82 80 79 75 77 79 78 79 76 73 77 81 84 89 91 94 96 94 92 98 98 100 98 94 95 96 92 86 84 83 81 81 79 77 76 74 73 70 69 71 63
84 84 87 90 91 89 87 82 83 81 83 81 80 83 84 78 78 79 81 85 89 88 91 90 89 87 87 89 94 93 95 95 93 87 85 84 82 79 77 77 75 75 72 72 69 61 62
85 88 92 95 95 94 93 87 87 89 90 89 87 86 86 83 82 80 79 81 83 85 86 86 89 88 87 82 84 87 87 90 90 87 85 81 79 76 75 75 76 74 70 66 63 61 60
94 96 101 105 107 105 98 93 92 92 95 100 93 90 85 83 81 77 79 78 78 79 80 82 82 81 76 77 80 75 74 78 79 79 82 78 73 72 71 72 73 70 63 62 61 56 59
103 105 111 116 114 106 101 98 98 96 94 96 96 89 83 80 79 77 76 75 76 73 75 76 74 71 67 72 72 63 65 65 70 72 73 73 69 69 69 66 66 62 60 57 58 57 57
111 116 121 120 108 103 98 93 89 85 83 83 83 81 78 74 75 77 75 73 68 69 70 70 64 61 64 65 57 59 56 57 60 62 67 68 67 65 61 60 60 57 56 58 57 57 58
122 121 128 112 104 96 88 82 78 74 72 72 70 70 67 68 65 72 74 70 63 64 60 61 57 58 55 51 53 51 47 49 51 53 59 60 58 54 54 53 54 57 57 60 57 56 59
127 136 119 102 92 83 77 73 69 65 62 61 62 62 58 58 53 59 66 66 58 54 51 46 50 48 42 41 40 37 37 42 44 49 50 51 47 49 51 53 54 54 57 58 59 59 60
133 125 103 90 77 71 65 61 56 53 51 51 52 50 47 45 42 47 54 57 52 42 39 41 39 32 30 31 26 28 31 36 39 40 40 41 44 48 51 53 54 54 57 59 57 54 50
124 106 90 76 70 65 57 49 43 40 40 40 38 36 36 34 34 38 45 50 45 38 36 36 28 21 19 19 24 25 28 32 34 35 38 43 45 46 49 48 51 52 46 40 37 35 35
109 91 76 66 61 53 43 35 30 27 27 23 22 22 23 21 26 34 42 45 39 36 31 24 21 19 18 22 23 25 29 29 31 36 39 42 44 42 41 43 37 30 29 29 28 28 28
90 76 64 57 49 40 32 24 18 16 14 11 10 15 15 16 25 31 37 39 32 28 28 25 21 18 19 21 22 22 25 29 32 32 36 37 30 31 32 26 23 22 20 18 19 20 23
78 67 58 46 38 32 23 14 11 9 7 4 4 6 9 16 22 28 28 27 34 35 30 25 18 18 19 20 19 20 21 26 24 28 27 19 20 23 18 17 15 14 14 14 14 15 19
73 63 47 38 32 23 19 18 17 20 24 22 17 12 12 18 23 32 40 43 38 34 27 23 20 18 18 16 13 14 17 17 20 17 10 12 14 14 12 13 13 13 12 11 14 13 14
66 50 43 33 25 29 31 28 27 30 34 35 32 30 32 37 42 43 44 40 36 31 27 22 20 18 13 10 11 11 10 12 10 6 8 9 12 11 13 14 14 17 15 15 15 14 15
51 39 36 36 39 42 33 31 32 36 40 42 43 41 44 47 49 47 44 42 37 32 27 23 20 15 12 10 6 6 6 4 5 7 8 11 13 13 14 16 16 16 16 15 16 16 17
46 46 61 56 46 39 45 42 40 45 50 49 47 45 47 47 48 48 44 39 36 33 28 23 20 17 13 12 11 8 9 8 9 10 10 11 13 18 19 19 17 16 13 13 14 17 18
52 70 63 53 46 48 48 48 48 49 52 49 47 44 45 48 46 42 40 40 37 34 29 26 22 20 18 15 14 12 13 15 14 13 13 13 17 21 23 24 18 17 15 12 13 13 14
75 68 61 55 52 49 47 49 44 46 45 47 47 46 42 44 45 44 42 42 39 36 31 28 28 23 20 20 22 21 20 21 21 20 21 19 17 21 20 23 24 21 21 17 16 11 10
62 54 57 53 44 42 43 42 45 45 46 47 47 48 45 45 45 44 45 43 41 39 35 33 30 27 29 30 32 31 30 31 30 29 28 28 27 25 22 19 18 21 19 20 18 18 15
59 47 51 43 39 38 40 45 48 48 49 50 50 50 50 48 48 49 47 45 47 44 40 40 38 38 38 42 45 45 44 43 42 41 41 39 37 34 31 28 24 24 22 16 13 17 15
49 44 43 33 33 38 42 43 44 48 48 51 55 54 55 54 55 52 54 53 48 47 44 45 48 51 53 54 52 51 50 52 52 52 51 49 45 46 45 43 41 39 33 28 24 20 19
43 40 35 29 29 32 40 39 43 49 51 53 54 58 58 57 58 58 58 57 53 52 53 56 58 59 61 61 59 57 57 56 53 52 53 51 49 47 44 44 42 42 39 35 33 32 31
41 38 29 29 28 28 32 40 46 49 51 53 55 56 58 59 60 60 58 56 54 52 54 56 59 57 57 59 56 55 55 54 53 51 51 51 49 49 48 46 44 39 41 41 37 31 32
38 26 25 23 24 23 28 38 45 50 51 52 52 56 57 59 59 59 58 56 56 55 54 56 57 56 58 56 53 51 49 47 47 46 46 46 45 44 44 43 41 42 42 41 39 35 33
32 25 22 22 22 22 27 34 40 45 46 49 49 49 52 53 53 53 53 52 52 52 53 54 53 53 54 51 50 49 48 46 45 44 43 42 41 40 39 38 37 36 36 36 34 32 34
32 28 19 22 19 21 24 30 34 38 39 42 43 43 45 45 46 44 46 46 46 47 48 48 49 49 47 47 45 43 42 41 40 39 38 38 39 37 35 33 32 34 33 32 32 34 34
28 21 11 16 16 17 18 22 25 31 34 35 35 36 38 37 37 38 38 38 40 40 40 41 40 42 41 40 39 39 38 37 37 36 34 33 32 32 32 30 30 33 32 33 32 35 37
29 13 16 10 12 12 13 13 15 21 27 29 31 29 29 28 30 31 31 32 32 32 33 34 34 35 35 34 33 33 31 30 30 30 30 29 29 29 29 29 30 30 32 33 34 34 38

GFSGBSN_250_spd_084.txt.gz
Wind_Speed
86 88 92 96 95 91 92 96 95 97 94 90 85 81 78 77 77 77 80 79 84 80 85 90 92 94 91 91 92 93 95 99 103 104 101 100 97 93 92 91 89 86 85 85 83 83 84
88 91 101 103 101 99 102 104 102 99 98 96 91 85 81 81 78 82 82 84 84 85 81 81 86 88 87 87 89 88 92 93 94 103 103 102 99 96 93 92 90 89 89 87 86 84 86
92 102 108 108 107 108 109 109 107 103 100 99 98 90 89 86 86 85 87 87 86 84 87 85 84 86 93 90 87 84 86 87 85 90 100 99 99 99 96 91 88 87 86 89 92 90 85
106 106 118 114 114 112 111 112 109 106 101 97 94 94 91 90 90 91 91 89 87 85 86 84 79 82 88 87 84 80 79 77 78 81 85 88 93 97 94 92 91 89 92 90 89 88 86
114 122 122 118 114 116 111 106 100 95 88 83 83 85 87 87 86 89 90 89 88 85 81 81 76 79 80 81 77 70 67 67 72 75 76 79 81 84 89 89 93 93 89 83 82 82 81
127 122 121 116 108 99 93 88 83 79 76 73 72 73 74 75 76 78 79 81 85 82 74 74 71 74 74 72 64 56 56 63 64 65 67 68 68 71 76 82 84 81 76 75 72 71 67
120 113 109 101 94 88 81 74 68 64 63 63 62 60 61 63 65 67 68 72 72 71 71 69 68 66 65 59 49 48 49 50 52 56 56 55 60 66 67 68 70 69 66 68 64 61 58
109 101 96 90 81 75 67 60 55 53 52 51 51 50 51 49 50 53 54 62 59 65 59 60 62 59 49 40 40 41 40 43 45 49 50 54 56 55 56 56 57 56 59 59 58 55 55
87 76 75 70 65 60 52 46 46 43 41 39 37 36 38 35 36 39 44 48 49 51 51 52 49 41 32 31 33 30 33 36 43 45 47 44 44 45 45 45 48 50 54 55 54 54 53
80 78 81 69 60 50 43 38 36 33 30 28 27 25 25 22 26 29 34 31 37 41 40 38 34 29 29 27 26 29 31 39 37 37 35 35 36 37 40 42 44 48 49 51 51 51 55
82 82 73 61 56 45 39 32 26 23 21 18 17 14 12 15 18 22 24 26 31 28 30 30 31 27 24 25 27 26 30 33 27 29 32 31 34 34 37 40 43 46 48 52 55 55 52
81 70 52 50 45 39 34 27 21 15 12 11 7 2 4 12 18 22 22 22 23 29 33 32 30 29 27 28 27 26 25 24 24 28 28 30 32 36 39 39 42 44 44 41 39 36 35
69 62 54 51 43 36 29 22 18 15 17 17 15 11 12 13 17 20 22 25 29 32 33 33 32 31 29 27 27 25 22 19 25 24 26 30 31 32 34 36 34 28 27 27 25 24 23
82 75 68 60 55 42 31 26 22 24 28 30 27 23 22 25 27 29 31 33 36 36 36 36 35 32 31 27 21 21 17 23 19 22 22 21 24 26 26 21 18 17 17 17 17 18 19
80 77 67 59 53 47 39 31 34 37 39 39 36 32 32 32 32 34 37 39 41 39 39 38 35 32 27 21 19 15 18 14 16 14 13 16 18 15 11 13 14 16 16 17 16 17 15
75 72 65 62 60 57 53 46 43 42 45 46 47 44 42 41 44 43 45 43 44 42 40 36 31 26 21 19 16 14 11 11 8 8 7 8 7 9 14 14 12 13 13 14 15 18 17
68 66 62 60 57 57 56 51 50 48 46 47 50 44 39 39 39 41 45 43 42 40 36 30 26 23 20 17 15 13 10 8 7 6 8 7 10 14 14 15 16 16 13 16 14 17 18
66 63 58 54 51 52 50 49 49 49 47 45 46 44 36 36 38 40 40 38 37 35 32 29 25 25 21 19 18 16 15 12 12 11 10 11 14 15 16 18 19 19 19 17 15 15 15
67 68 61 53 49 46 43 42 41 43 41 41 39 43 35 35 36 37 36 36 38 36 34 33 30 28 26 25 25 23 22 22 20 19 18 19 14 15 16 16 22 21 21 21 19 18 16
66 60 63 54 50 49 46 43 40 38 38 38 37 37 37 36 39 40 40 41 42 41 40 39 37 35 35 34 34 35 33 33 33 33 29 26 25 25 21 16 16 15 15 16 20 18 17
62 61 52 53 48 44 45 46 46 45 44 44 44 46 47 46 44 45 46 46 50 47 45 44 44 46 46 45 47 47 47 45 42 41 38 37 35 33 29 27 26 25 20 19 14 11 8
57 58 55 47 44 43 44 47 48 48 51 52 51 56 55 54 55 54 53 53 54 53 53 52 52 53 52 52 52 54 53 51 50 49 50 47 47 44 43 41 39 36 32 28 24 21 19
50 54 52 46 40 40 43 46 50 49 52 51 58 60 63 59 60 55 55 53 52 53 55 57 57 59 59 59 58 59 57 56 55 54 53 52 49 49 49 48 45 42 42 42 39 34 33
44 47 49 45 40 37 42 44 47 52 53 55 56 60 60 60 58 61 60 60 59 60 61 61 61 59 61 60 60 58 58 57 55 54 52 51 51 49 49 48 46 44 44 37 37 36 30
39 41 44 45 40 36 35 42 44 48 50 50 51 56 56 58 58 61 59 60 61 58 59 59 58 56 58 56 55 54 53 52 50 50 49 48 46 45 43 42 41 40 40 39 36 36 37
47 35 36 39 42 38 35 36 40 43 46 47 48 47 51 52 54 54 55 55 54 52 52 53 53 52 52 52 51 50 49 48 46 44 43 42 42 40 39 38 37 36 35 35 36 34 35
52 28 27 32 34 35 35 32 33 37 39 41 43 43 44 46 46 46 47 48 47 46 47 46 48 48 47 46 44 43 42 41 39 39 38 36 34 32 32 32 31 30 27 26 29 31 30
75 43 19 22 25 29 31 32 29 27 31 33 34 35 35 35 37 38 39 40 40 39 38 39 39 39 38 37 37 36 35 34 34 32 30 30 30 29 30 29 27 26 27 27 27 29 29
69 58 35 15 18 20 22 25 24 20 22 25 25 27 29 27 27 29 30 31 31 31 32 32 31 31 30 30 30 30 29 28 27 26 25 25 25 24 24 24 24 25 27 27 28 30 30

GFSGBSN_250_spd_087.txt.gz
Wind_Speed
96 98 105 104 100 100 104 103 103 103 102 99 98 95 94 91 89 87 85 84 80 84 83 81 85 91 91 97 96 95 92 92 95 100 103 105 108 104 103 102 100 96 92 89 89 89 90
116 112 107 106 108 110 111 109 108 107 105 104 102 103 100 98 95 94 91 88 87 85 84 83 88 92 89 88 91 94 90 90 92 92 93 98 100 102 104 106 103 98 92 89 88 90 91
112 106 104 104 105 105 105 104 104 102 101 102 101 102 102 101 100 98 94 92 90 90 87 86 86 89 92 88 88 91 88 86 82 82 85 87 90 94 96 101 102 98 94 89 92 91 90
102 103 106 96 92 89 88 90 89 88 86 85 83 84 87 91 94 94 94 91 91 88 89 90 87 89 89 91 91 89 90 86 81 73 69 74 77 83 93 95 94 92 92 94 93 91 92
92 87 90 81 72 71 73 72 73 74 73 73 71 72 76 76 79 82 83 85 84 88 88 87 90 88 88 88 87 87 87 90 84 76 70 72 77 81 86 90 91 88 86 93 96 94 91
88 79 76 75 71 70 70 68 68 60 55 56 56 55 58 59 64 68 70 76 74 81 81 84 84 82 84 85 83 81 79 79 81 76 72 72 73 76 76 77 79 81 81 87 90 89 83
75 80 76 78 73 62 56 54 51 47 44 40 40 41 44 46 47 51 56 59 61 68 73 73 72 75 77 72 71 68 67 72 71 66 64 66 65 64 63 67 71 72 75 76 77 73 73
69 71 84 77 71 61 58 51 41 39 35 33 31 31 32 35 38 42 45 45 47 55 62 57 63 60 60 59 58 58 58 57 52 52 51 51 53 55 59 62 62 63 69 69 66 63 59
73 75 79 81 78 70 63 51 41 33 27 23 21 19 18 21 25 30 35 39 42 47 49 46 49 46 45 45 48 48 44 36 43 42 40 43 47 52 54 54 50 50 51 52 53 53 53
80 81 82 79 75 70 65 55 44 32 24 18 14 10 8 12 16 21 25 31 34 33 30 33 39 32 36 38 36 32 32 35 38 35 37 42 43 41 39 38 41 42 42 44 45 45 46
82 87 84 81 75 67 61 49 41 29 21 16 12 8 3 4 12 16 19 22 24 23 26 31 27 29 32 30 29 29 34 37 29 30 32 33 31 31 32 33 34 36 38 40 42 43 44
88 87 85 84 75 66 60 48 37 28 22 18 14 14 10 9 11 16 20 23 24 27 29 29 31 31 30 30 31 33 34 26 26 26 25 26 25 24 26 26 28 31 34 37 38 41 43
86 84 85 83 79 66 59 50 40 30 29 25 20 19 17 20 20 20 23 26 26 29 31 34 35 34 33 32 29 28 23 24 23 21 20 20 17 19 20 24 29 32 34 35 35 34 36
87 89 85 81 76 71 60 53 49 45 40 35 34 28 24 24 26 28 29 30 32 35 37 37 38 35 31 29 26 24 22 17 16 13 14 12 15 17 22 24 26 26 25 25 25 25 26
90 90 88 78 73 69 66 59 50 51 53 49 45 38 35 32 32 33 34 34 35 34 36 38 36 34 32 28 25 19 16 13 11 10 9 10 11 13 14 14 15 16 15 15 16 15 17
91 88 83 79 67 65 62 59 58 53 52 49 56 48 38 37 39 38 39 39 42 42 40 36 34 30 28 22 19 15 13 11 9 7 5 6 9 9 8 8 7 6 6 9 10 12 14
88 87 81 75 68 63 60 57 52 52 53 50 51 52 42 39 40 42 37 37 37 37 37 33 30 26 22 19 17 15 14 13 14 12 13 11 10 6 7 5 4 5 7 8 8 9 11
81 87 79 71 66 61 57 55 52 49 47 44 43 48 42 40 38 37 34 33 34 32 31 29 28 28 27 23 22 22 20 18 17 16 13 15 14 13 10 10 9 10 13 11 11 10 10
73 75 77 70 67 62 57 53 50 48 46 42 39 41 38 35 34 33 30 34 38 41 41 40 37 36 33 31 30 28 26 23 24 23 22 21 17 15 13 11 12 12 14 17 14 12 11
72 70 72 73 65 65 60 53 51 50 48 45 45 46 45 43 43 42 41 43 46 46 47 45 45 43 41 39 40 41 38 37 36 33 31 28 26 24 24 21 19 18 14 17 12 12 14
70 70 65 70 64 61 63 61 54 51 54 54 57 62 57 52 52 50 51 53 55 53 53 54 53 52 50 49 49 48 45 44 43 42 39 38 35 33 32 31 31 29 28 27 24 20 17
71 60 64 61 66 64 61 61 62 63 59 57 69 67 63 62 62 63 63 63 62 61 61 62 61 59 59 59 56 54 53 51 50 49 50 48 48 46 43 44 43 40 41 39 35 32 25
93 59 55 58 57 64 63 60 62 64 63 67 67 64 64 64 65 66 65 66 66 65 63 64 64 63 61 61 60 59 56 57 56 57 57 55 54 51 50 51 48 45 46 46 41 38 34
92 70 54 49 52 57 59 58 59 61 62 61 62 61 61 62 63 66 66 67 67 66 64 62 62 62 61 60 59 59 56 57 56 55 53 51 49 48 47 46 46 45 41 38 38 40 33
87 84 55 40 45 47 51 55 55 55 56 57 57 57 57 58 58 60 62 62 62 61 60 61 59 58 58 57 55 55 54 52 51 51 49 46 46 45 44 44 43 40 37 37 37 35 31
81 79 61 44 36 39 42 44 46 48 47 48 50 50 50 51 54 55 55 55 55 55 53 53 52 52 52 50 49 48 47 46 44 43 42 41 41 39 38 38 35 34 33 32 31 29 28
70 78 69 58 39 32 32 34 36 39 40 41 42 43 42 42 45 45 45 46 46 46 45 44 44 44 43 42 41 40 39 38 37 36 34 33 32 31 30 28 27 25 25 24 23 21 23
68 67 70 72 58 37 27 25 26 28 31 34 35 34 34 33 33 35 35 37 37 36 36 36 36 35 34 33 32 31 30 29 28 27 26 25 23 22 21 20 19 19 20 21 20 22 21
64 62 67 71 56 51 34 27 19 18 20 22 25 29 27 25 25 25 26 27 28 30 31 30 29 29 28 28 28 28 28 25 23 22 21 21 21 20 19 19 20 19 19 20 21 21 23

GFSGBSN_250_spd_090.txt.gz
Wind_Speed
94 84 78 79 80 80 86 94 102 101 100 94 97 101 104 105 104 103 99 97 92 90 86 87 88 78 86 88 88 88 93 96 93 93 95 97 100 105 110 109 107 104 103 99 98 99 97
83 71 76 75 80 81 83 88 95 94 92 84 84 91 93 94 94 99 100 100 98 95 92 89 86 83 85 85 91 91 90 90 92 92 90 89 92 94 100 107 108 107 106 105 101 98 93
73 67 66 65 67 72 82 84 81 73 72 76 73 75 78 82 87 88 91 98 100 97 93 93 91 89 86 85 85 91 90 90 91 88 86 85 83 87 88 94 99 102 105 105 105 100 92
72 67 66 56 60 68 77 59 59 50 50 60 68 69 65 66 71 75 81 88 93 94 94 94 92 92 90 85 89 88 91 93 93 92 89 85 83 79 82 84 86 90 91 98 103 99 92
73 69 61 57 62 68 69 54 45 42 39 43 46 50 54 56 60 67 74 79 85 87 89 90 93 93 92 87 87 84 86 87 88 88 91 86 85 75 72 71 72 78 84 93 94 90 87
70 68 64 60 62 65 63 63 50 41 35 34 34 34 40 46 54 60 66 72 77 77 81 85 89 87 86 87 86 81 83 83 84 84 84 80 81 75 71 62 65 73 77 84 84 81 81
76 71 69 65 66 68 67 66 54 46 32 26 25 27 29 34 42 51 57 63 69 72 72 78 82 82 82 79 78 76 77 78 79 79 77 72 72 69 62 62 70 71 73 76 75 74 76
76 78 79 75 71 66 68 61 53 46 31 23 18 17 20 24 32 37 45 54 59 63 65 69 74 69 67 71 69 68 67 68 68 69 68 60 62 58 62 62 63 65 68 68 69 68 68
87 84 87 81 74 71 69 68 57 46 33 21 13 9 10 15 20 29 37 38 38 46 49 53 58 56 53 53 53 52 52 52 53 54 51 53 50 51 48 51 54 57 61 62 58 55 53
92 88 93 87 73 69 67 65 52 41 33 23 12 3 3 7 14 21 26 26 30 36 43 42 41 41 34 32 36 39 41 43 44 44 39 43 42 41 46 44 45 45 45 46 45 46 46
98 93 93 88 74 67 64 67 50 41 34 29 21 13 8 7 10 14 19 23 27 32 33 28 29 27 26 28 29 32 35 38 32 32 36 33 33 36 33 36 36 35 35 38 39 40 39
99 98 97 89 77 67 65 61 57 46 37 34 31 22 17 15 16 18 19 22 24 26 23 22 26 26 28 28 31 32 29 26 30 29 23 24 26 27 28 27 27 26 27 28 30 31 31
101 99 98 90 79 68 65 64 62 53 42 42 42 33 25 22 19 18 22 24 26 27 28 28 29 31 30 30 28 27 26 24 23 19 20 21 20 20 17 15 17 18 20 22 25 27 29
101 100 96 91 83 72 65 63 65 62 47 51 49 41 35 33 29 29 30 29 27 26 29 30 28 29 32 31 27 24 23 21 17 16 14 14 12 12 12 11 12 15 18 20 22 22 24
97 98 96 91 83 74 66 62 63 64 58 54 54 50 45 39 36 35 33 33 32 32 32 34 32 31 30 27 25 23 21 18 16 14 13 11 8 7 5 4 8 11 13 14 14 15 16
95 93 94 90 84 76 68 64 59 58 58 56 62 59 53 51 45 42 40 37 35 33 33 31 31 29 27 27 25 23 22 16 13 13 12 12 10 6 4 5 5 5 5 5 6 5 8
92 87 90 89 85 80 69 64 60 58 54 48 58 60 58 55 51 48 44 40 38 38 35 34 31 29 29 26 22 19 20 20 19 19 18 16 14 10 6 6 6 5 2 2 1 2 1
84 81 83 85 84 83 76 66 60 55 54 47 50 52 48 46 44 43 40 38 37 35 35 30 28 28 29 28 29 26 25 24 23 22 19 19 15 12 11 13 11 10 8 8 7 8 9
80 75 76 81 82 85 80 74 65 60 55 51 54 52 50 47 43 40 38 38 40 41 42 43 41 38 37 36 36 34 31 29 27 26 22 21 19 18 19 18 17 13 15 16 16 17 16
97 78 72 73 78 82 82 78 72 69 61 60 63 60 56 55 49 46 44 46 47 47 48 48 49 48 46 43 44 42 39 36 35 33 30 29 28 28 29 27 25 24 25 25 22 21 20
96 90 78 67 69 73 78 76 76 70 71 70 68 64 63 63 62 59 55 52 57 58 56 56 55 55 56 53 50 47 45 44 42 39 40 37 37 36 35 32 30 29 28 28 27 27 25
93 91 79 68 61 62 69 73 75 75 76 73 73 71 68 69 68 67 64 64 65 66 65 65 64 63 61 62 59 58 55 53 52 50 49 47 46 45 43 41 38 37 37 37 38 38 35
84 83 91 68 64 58 56 62 67 69 69 70 70 69 69 69 68 68 67 67 69 69 69 70 69 66 64 64 62 61 59 58 56 54 52 51 50 48 48 46 48 47 43 41 39 38 37
83 82 80 81 67 57 52 50 55 60 62 61 63 64 64 66 64 65 65 64 65 66 65 65 64 61 59 58 56 56 55 54 53 51 50 49 47 47 47 44 42 41 39 37 33 32 34
73 75 78 79 73 70 53 47 45 49 52 53 54 54 54 56 56 57 57 57 58 60 58 57 56 54 53 53 52 50 49 48 47 45 43 41 39 38 36 36 37 35 34 33 31 28 24
65 71 71 77 70 68 59 46 41 39 42 43 44 45 47 47 48 49 49 49 49 49 49 48 48 46 45 44 43 42 40 39 37 35 34 33 33 32 31 31 29 29 27 25 24 22 19
61 71 67 70 62 68 62 63 44 37 33 33 35 36 36 37 39 40 41 41 41 40 39 39 38 37 36 35 33 31 30 29 28 27 27 27 26 25 25 24 22 21 20 18 16 16 14
59 61 61 65 65 64 60 61 60 47 33 29 26 27 29 30 29 30 32 34 34 33 32 33 31 29 28 27 25 24 23 22 22 21 20 19 18 17 16 14 13 13 12 12 12 11 11
54 54 57 59 63 59 57 53 58 54 48 31 25 23 20 21 23 24 24 25 27 28 28 27 27 26 25 23 21 19 18 17 16 14 14 13 12 11 11 11 10 10 10 10 10 13 15

GFSGBSN_250_spd_093.txt.gz
Wind_Speed
69 69 70 71 73 74 75 78 80 83 84 82 81 80 82 85 83 90 98 99 103 103 98 93 91 85 86 84 83 83 84 90 92 93 95 98 101 104 110 115 113 110 108 106 103 105 101
64 65 68 65 68 66 66 66 74 77 80 82 84 83 83 88 92 94 93 96 100 107 104 99 96 90 88 88 84 84 85 86 86 89 93 93 91 95 94 96 99 103 108 108 106 107 103
74 76 71 67 65 58 57 59 65 67 69 69 69 72 79 79 83 90 90 91 96 100 107 104 98 97 95 90 88 87 86 87 86 90 94 92 93 94 91 88 87 90 94 100 104 102 102
85 81 73 66 56 53 52 55 59 58 46 44 49 55 61 64 68 71 74 79 85 93 98 101 101 100 93 94 94 90 87 88 91 89 88 93 96 95 91 88 82 80 82 89 96 97 100
90 82 75 66 56 51 52 52 55 42 31 29 35 41 44 50 53 56 57 62 72 81 88 93 99 98 96 98 93 90 89 91 91 91 91 92 92 92 93 88 84 78 77 77 79 86 92
94 90 81 70 61 56 56 55 49 38 32 25 22 25 30 39 42 46 56 59 64 70 79 84 94 94 95 97 94 91 92 90 87 87 87 90 91 91 90 91 81 73 72 72 73 80 82
100 95 85 77 66 61 62 55 44 37 32 24 20 17 18 26 35 41 53 62 67 65 67 74 84 89 92 95 92 89 87 87 84 84 85 86 85 84 83 78 72 67 66 71 76 74 74
103 97 91 81 68 64 65 60 54 43 31 22 19 11 11 17 28 38 48 54 60 64 63 69 73 74 83 89 88 85 83 80 80 81 81 80 81 78 75 71 65 64 70 66 71 69 71
103 99 93 84 70 63 64 62 54 41 29 22 17 11 4 9 21 30 36 47 51 56 59 62 66 67 70 73 75 75 74 72 71 68 68 72 73 70 64 60 59 60 58 60 62 66 65
104 101 94 86 75 67 65 59 53 39 29 25 19 10 4 6 9 16 21 26 36 44 48 54 58 61 57 53 53 55 57 58 57 57 60 61 58 52 54 53 49 48 50 51 54 55 56
104 103 98 91 83 73 64 66 59 47 37 34 27 18 12 13 12 14 18 22 25 30 37 39 44 47 45 38 38 40 45 48 46 45 43 41 43 44 41 36 36 38 38 40 42 44 44
102 103 102 97 90 78 70 70 65 53 43 39 35 31 26 21 19 21 21 23 23 23 23 26 27 29 30 27 25 28 30 31 34 33 30 31 34 27 24 26 26 27 29 29 31 32 31
101 102 105 103 94 86 76 66 70 63 54 50 43 40 36 31 27 27 26 25 23 20 19 20 21 21 21 21 22 24 27 27 23 20 22 19 17 17 17 18 18 20 19 20 20 21 23
101 101 103 105 100 93 82 70 65 69 61 59 56 49 44 37 34 32 31 29 26 27 25 23 25 26 26 27 25 23 21 20 19 17 15 13 11 12 14 15 16 14 14 14 13 14 17
98 99 98 101 103 98 87 76 68 64 63 64 61 59 54 49 42 38 34 31 30 29 28 30 26 24 24 24 25 24 22 20 18 17 15 13 13 13 11 8 6 3 3 4 6 9 9
99 96 96 94 97 98 92 83 72 66 62 61 61 64 61 58 54 49 45 39 36 35 35 33 32 31 30 29 29 27 25 22 20 17 16 15 15 13 9 6 6 6 2 3 2 1 1
102 94 91 90 89 96 94 88 80 69 64 61 58 59 58 58 56 54 50 45 44 43 42 39 36 36 34 32 29 25 23 22 21 21 21 19 16 15 12 10 9 5 7 7 6 5 5
107 98 90 85 85 90 92 89 86 77 67 65 63 59 56 56 51 49 46 44 43 42 40 37 35 34 32 29 28 28 28 28 27 26 24 22 19 17 16 16 14 11 15 14 12 12 10
99 97 94 79 81 83 88 89 88 82 73 71 71 62 58 55 51 50 48 47 47 45 44 44 42 40 39 40 38 36 35 34 32 30 26 25 24 20 19 21 20 18 18 16 15 15 15
94 94 89 82 74 77 81 83 84 84 79 77 74 67 63 63 59 56 52 53 55 54 54 54 53 52 52 50 48 45 43 41 37 35 32 30 30 28 27 27 26 24 22 20 20 16 16
86 88 89 87 80 70 71 74 77 77 78 80 76 73 70 67 65 64 63 59 58 59 58 58 58 56 52 52 50 49 49 46 43 41 39 37 35 35 33 32 30 30 29 27 26 24 20
78 81 82 79 85 67 65 66 65 68 72 73 76 76 73 72 72 71 70 68 69 69 69 69 68 64 62 62 61 59 57 55 54 52 50 48 49 48 46 43 41 39 38 37 40 38 31
71 75 80 76 74 77 65 57 60 59 61 64 66 68 69 68 66 66 66 66 66 66 66 66 66 66 65 63 62 60 57 56 53 51 50 50 48 46 43 40 41 40 40 39 36 35 35
64 69 71 78 67 69 73 60 50 51 52 53 55 57 60 61 59 59 60 60 59 59 60 60 60 60 57 56 54 52 51 49 47 46 45 43 41 40 40 38 37 35 33 32 30 28 27
57 64 68 72 70 61 68 70 56 45 45 45 47 48 49 50 50 50 51 52 52 52 53 51 49 47 46 45 44 43 41 40 39 38 36 35 33 31 30 29 28 27 25 23 20 17 17
50 57 63 65 69 56 59 67 63 60 43 39 38 39 40 42 42 42 43 44 43 43 44 44 42 40 38 37 35 34 32 32 30 29 28 26 24 23 22 22 21 20 19 18 16 15 13
46 51 55 61 58 61 56 56 61 64 61 49 37 34 34 33 33 35 36 37 37 37 37 37 35 34 33 31 29 28 27 25 23 23 22 20 19 18 16 16 15 14 13 12 12 12 11
44 47 50 51 57 58 57 50 51 56 61 59 55 42 34 31 28 26 27 29 30 29 29 31 30 29 28 26 25 23 21 21 20 19 20 18 18 17 16 15 14 14 14 12 12 11 10
42 44 46 45 47 51 54 55 52 50 58 55 53 51 50 33 26 22 20 23 24 25 25 24 24 24 24 23 22 20 17 17 16 16 18 16 17 17 17 17 15 16 14 14 14 14 14

GFSGBSN_250_spd_096.txt.gz
Wind_Speed
72 77 73 74 66 62 62 64 66 70 76 81 83 85 84 80 76 76 76 85 92 99 103 105 106 102 97 93 89 82 80 81 82 77 80 81 85 94 106 110 109 108 108 110 110 109 104
82 79 80 73 66 60 57 56 55 56 60 68 70 73 75 76 77 76 73 72 84 91 94 102 108 106 99 97 95 90 84 82 81 80 78 81 85 85 88 94 97 103 111 116 116 114 109
87 87 85 74 65 57 52 50 51 54 59 60 61 60 65 70 75 73 71 72 75 84 88 90 103 106 105 99 99 93 87 84 82 81 82 77 80 84 83 83 84 86 90 93 99 104 106
96 94 87 74 62 54 52 51 50 48 50 54 53 52 56 61 67 72 70 71 72 75 76 82 87 95 106 103 102 98 91 86 84 82 81 82 81 83 87 88 88 86 84 85 89 88 89
99 99 88 74 64 56 54 51 44 38 36 39 37 37 43 51 54 55 63 68 72 69 73 73 76 81 94 101 100 98 96 90 87 86 84 83 82 84 89 91 92 89 86 79 79 81 80
103 103 93 80 66 60 62 54 46 37 30 27 26 26 28 32 42 47 49 55 63 64 70 78 82 84 86 92 100 98 96 92 88 88 88 86 87 88 86 87 92 91 87 83 81 77 76
103 107 102 86 69 66 69 56 48 42 34 24 20 17 17 22 28 35 40 50 56 56 67 81 84 84 85 90 88 91 96 96 94 91 92 92 89 88 89 89 91 90 91 89 86 78 73
104 108 104 92 76 71 71 61 50 39 30 22 16 8 7 12 17 24 33 41 47 48 60 73 80 84 86 87 86 89 94 96 94 92 91 90 89 90 89 90 87 89 89 83 77 66 65
104 108 104 99 85 77 72 66 53 43 33 27 22 12 6 1 5 12 26 32 39 46 58 67 77 81 84 84 83 85 85 87 91 92 91 89 87 87 89 89 88 86 80 73 67 61 64
104 109 107 105 96 86 76 76 62 51 38 31 27 18 13 10 8 11 17 21 28 37 49 57 64 69 70 72 73 76 77 76 80 82 83 83 83 82 82 80 78 74 69 64 59 54 60
102 108 111 111 107 96 85 82 71 56 49 40 33 26 23 18 13 12 12 16 23 32 42 51 56 57 64 65 68 70 70 69 68 67 67 68 67 65 64 62 62 58 55 48 45 47 52
112 103 110 111 110 105 92 84 79 66 54 47 38 34 31 28 25 21 16 15 17 20 28 34 41 43 44 47 50 52 54 56 56 54 53 54 54 52 51 45 43 38 36 35 36 38 39
117 103 105 109 110 108 102 92 81 75 63 58 53 46 38 32 29 29 27 23 20 18 17 18 22 26 24 25 31 34 35 37 41 45 44 41 36 30 30 26 25 24 21 23 23 24 24
116 112 98 105 107 108 107 101 92 80 70 64 60 54 49 41 35 33 32 29 28 26 24 20 20 20 20 24 28 31 30 28 26 22 20 20 21 19 18 14 15 12 15 17 14 16 17
111 114 99 97 103 105 107 106 98 89 77 67 64 58 57 50 44 38 35 30 28 27 27 28 27 26 25 24 23 21 22 20 17 16 17 17 16 13 9 6 7 7 9 8 7 8 8
103 112 104 91 96 98 100 108 103 95 85 75 67 62 60 57 53 47 44 39 34 32 29 28 28 28 27 28 28 27 25 24 24 21 18 14 13 9 9 9 8 7 7 7 7 6 7
99 104 104 102 87 91 91 97 104 100 90 84 73 63 57 55 56 50 52 46 45 43 41 39 37 36 33 31 32 30 27 24 21 20 19 19 17 17 15 16 12 12 12 12 13 13 12
91 100 105 98 88 83 86 85 91 97 94 88 78 69 64 58 54 52 50 48 47 46 45 43 39 37 35 32 29 26 26 29 28 28 27 25 22 22 17 14 16 18 18 17 16 15 15
86 91 99 92 94 79 78 81 83 88 89 89 85 75 68 67 59 55 53 53 53 51 50 48 46 43 42 42 41 42 41 38 34 31 29 27 25 23 19 19 20 20 20 21 20 20 19
79 84 89 88 88 94 74 73 74 77 83 85 87 83 81 75 70 67 63 57 57 55 56 56 53 50 49 50 48 47 46 43 43 42 39 36 33 29 28 28 27 25 23 20 21 20 19
70 78 83 85 85 87 85 68 68 70 70 73 77 79 80 78 76 73 71 66 65 64 63 63 61 58 57 57 55 52 49 48 46 45 43 41 39 36 35 35 34 32 31 29 25 23 21
65 70 77 80 78 80 79 77 63 61 64 65 67 68 71 73 74 73 74 71 69 68 67 67 66 65 65 63 60 60 58 56 54 52 49 47 46 44 45 45 42 41 41 40 38 29 19
54 62 70 72 72 75 75 75 73 61 55 55 60 61 62 63 64 65 64 64 63 63 62 61 61 60 59 57 54 53 53 50 48 45 45 44 43 41 38 34 32 32 31 30 31 30 28
49 54 64 67 68 68 70 69 68 67 64 54 50 53 53 54 54 54 54 55 55 54 52 50 50 51 50 50 49 47 45 43 41 40 38 36 34 32 30 27 26 25 25 24 23 23 22
45 50 56 58 63 63 68 68 60 65 65 66 56 47 47 47 47 46 47 47 47 46 46 44 44 43 42 41 40 38 36 35 33 31 30 29 27 26 24 22 22 19 18 18 18 17 17
36 44 47 51 54 56 58 59 58 62 60 61 63 58 44 40 40 41 41 42 43 42 41 39 37 36 36 35 34 32 30 29 29 27 26 25 24 22 20 18 16 14 13 13 12 12 12
38 39 43 47 46 50 52 53 57 58 55 56 60 61 62 45 36 35 36 38 39 39 39 39 38 36 34 31 28 28 27 28 28 27 27 27 26 24 24 22 20 18 16 15 15 15 14
36 36 37 41 42 44 45 48 50 52 54 53 56 58 61 57 50 34 31 33 34 35 35 35 36 35 34 34 34 32 31 30 31 30 28 27 26 25 23 23 23 22 20 19 18 16 16
39 40 34 35 38 42 44 43 42 45 47 54 49 51 57 58 52 50 39 30 28 29 31 29 29 29 29 27 26 27 27 26 27 28 27 27 26 28 28 25 24 22 20 19 19 17 17

GFSGBSN_250_spd_099.txt.gz
Wind_Speed
80 86 88 82 70 62 55 53 51 51 52 56 59 64 68 74 74 72 68 67 81 81 83 94 108 107 104 101 97 92 89 81 78 76 76 75 75 78 83 86 93 99 101 98 100 99 96
86 93 94 82 69 60 53 53 52 49 50 50 52 56 59 61 66 65 64 65 70 76 82 84 92 101 105 106 102 96 89 89 84 81 80 75 73 75 74 78 84 86 93 99 102 102 99
92 99 101 81 64 57 56 57 51 46 44 44 48 52 56 59 60 60 62 61 62 63 72 77 82 85 105 104 105 102 95 92 90 83 79 80 76 76 77 78 80 78 80 84 90 96 102
97 104 104 85 68 60 62 54 46 36 33 35 39 45 48 44 46 57 62 61 56 55 65 67 75 77 87 101 106 106 99 95 93 88 86 81 79 79 77 78 78 79 82 83 82 84 87
99 105 107 91 73 67 65 57 47 37 28 24 25 30 31 33 37 43 52 60 57 54 59 66 72 75 78 85 99 106 102 99 97 94 90 86 84 82 79 81 81 82 84 83 82 81 83
98 106 109 99 78 69 71 59 47 36 28 21 15 16 17 20 28 35 38 44 58 58 59 68 71 75 74 77 83 98 99 100 99 98 92 89 88 86 83 82 82 82 83 87 90 88 86
101 107 110 106 88 77 75 63 50 42 36 25 16 12 9 9 12 20 25 31 41 51 54 62 67 71 67 67 72 77 88 96 96 95 95 91 93 89 87 85 85 85 86 89 90 88 90
108 107 109 110 99 86 79 69 56 50 41 29 22 15 9 3 5 9 16 24 30 42 56 61 69 69 69 68 69 69 73 81 91 97 95 95 91 90 90 90 88 87 89 92 95 90 85
111 105 109 112 107 94 84 78 65 58 51 43 31 24 18 14 10 9 12 19 28 43 56 58 63 64 66 66 66 63 63 66 76 86 87 88 90 90 90 90 90 91 92 91 89 85 83
112 112 109 112 111 104 90 84 75 63 59 53 41 34 31 28 24 20 16 16 26 40 54 56 62 65 65 65 65 62 61 62 64 71 81 86 86 88 88 89 92 91 93 90 84 81 79
120 121 108 111 113 112 104 91 83 73 64 60 53 44 37 36 34 29 21 14 19 33 45 51 55 56 58 61 62 61 61 61 66 67 70 76 81 83 83 85 85 85 80 76 72 66 64
117 120 119 106 111 112 110 100 89 83 74 65 59 52 45 39 36 33 29 24 19 26 34 42 48 52 55 58 61 61 63 62 63 61 63 68 71 70 71 69 67 64 61 59 54 52 49
111 116 120 101 105 112 111 107 98 87 80 74 64 58 50 42 37 36 35 33 26 22 21 26 34 40 45 48 51 51 50 48 50 49 50 49 50 50 51 52 49 47 45 41 36 35 35
105 111 114 111 101 105 110 111 104 96 86 78 73 64 54 49 43 36 34 36 34 25 24 19 21 23 27 30 32 33 31 34 38 39 38 34 33 34 33 31 28 25 23 23 22 22 23
100 106 108 110 107 96 102 107 110 105 97 86 73 68 62 57 52 45 39 34 31 28 26 27 27 26 26 27 27 29 31 25 24 24 26 25 23 17 15 13 14 15 14 9 6 8 9
92 99 102 108 109 92 92 98 103 106 103 95 84 70 62 63 60 55 50 42 36 32 27 23 20 18 17 16 15 17 16 17 18 17 16 15 14 13 13 13 14 12 11 9 7 5 6
86 91 95 99 102 101 89 86 91 96 99 105 95 79 69 64 59 62 59 52 46 41 38 35 30 27 24 23 23 22 22 23 23 22 18 19 21 20 18 16 15 16 16 14 12 14 14
81 86 88 93 94 100 102 84 82 86 90 95 98 88 79 75 72 63 56 54 50 48 47 45 41 39 37 33 30 29 29 28 27 27 28 27 26 23 19 18 18 21 19 20 20 21 19
74 80 82 84 90 96 100 94 80 76 81 84 86 85 90 92 79 74 67 61 57 54 53 51 49 47 45 45 43 42 41 39 40 37 36 33 31 29 28 28 24 24 25 26 30 26 21
65 73 76 78 83 89 92 92 91 80 71 72 76 78 81 83 82 82 80 74 68 62 59 59 56 55 54 53 53 52 50 48 46 42 40 39 39 37 35 34 30 24 23 24 24 24 23
56 68 71 70 76 80 87 89 90 92 80 66 67 69 70 71 72 73 75 74 73 72 70 67 65 64 63 63 62 61 59 56 54 53 51 49 49 50 49 46 41 37 32 29 27 23 20
49 59 63 66 68 73 77 81 85 89 88 83 63 59 61 64 64 64 66 66 66 65 65 64 63 61 60 59 57 56 55 53 51 49 47 45 42 42 41 39 38 37 36 35 31 29 28
41 51 55 61 64 62 64 73 77 83 84 85 85 65 57 58 59 60 59 57 56 56 55 55 54 54 53 52 51 49 47 45 42 40 39 36 35 33 32 31 30 29 27 25 24 23 22
35 43 48 58 55 57 59 61 64 73 74 79 82 82 72 56 55 56 56 55 53 50 49 48 47 46 45 44 42 41 39 38 36 35 33 31 30 29 28 26 26 24 22 21 20 19 18
36 37 44 48 48 49 52 56 59 62 67 71 74 76 80 77 62 52 51 50 49 47 45 43 42 42 42 41 40 41 39 38 37 36 35 34 34 33 30 29 27 24 22 21 19 18 17
34 33 42 44 41 42 45 47 53 56 58 63 69 70 72 74 74 65 51 43 42 42 44 43 40 38 38 38 39 40 39 37 37 36 35 34 33 31 30 29 29 28 26 25 25 24 22
26 33 38 39 39 35 40 43 46 48 54 56 59 60 67 65 64 69 63 57 50 42 39 39 38 36 34 33 32 31 30 30 30 28 27 27 27 27 25 24 24 23 22 21 20 18 16
31 27 32 33 38 35 38 38 41 45 46 48 54 52 56 62 64 64 60 63 60 48 43 40 36 34 32 31 30 29 28 28 27 26 24 23 21 22 22 20 20 21 21 21 22 22 22
40 39 33 30 29 33 35 35 35 38 42 40 44 45 47 55 54 57 60 58 57 52 46 41 36 35 34 31 30 29 28 28 27 27 29 27 26 26 25 26 25 26 27 27 27 28 30

GFSGBSN_250_spd_102.txt.gz
Wind_Speed
77 81 91 93 76 63 59 59 57 54 47 51 54 55 55 58 64 74 80 81 88 94 90 89 103 110 107 105 100 94 89 85 82 81 78 74 73 71 75 87 92 92 95 97 93 92 90
83 86 95 92 78 67 63 52 43 39 37 37 42 44 50 53 55 61 67 73 73 83 92 90 89 95 104 109 105 99 91 90 87 85 81 77 76 74 75 75 79 83 89 95 97 94 92
88 92 98 95 78 68 59 51 43 33 27 28 30 33 39 45 50 53 56 57 66 75 83 92 90 89 89 96 104 100 97 94 91 88 87 84 81 77 75 76 77 80 82 84 88 91 93
93 96 101 93 78 71 64 54 43 34 24 19 21 25 29 32 38 42 44 49 59 62 65 86 89 86 85 86 93 98 100 100 96 93 89 88 83 80 77 75 76 77 78 79 79 78 81
99 95 103 95 81 76 68 54 40 35 30 21 15 13 17 20 23 28 36 46 51 52 57 72 85 85 84 84 87 85 92 103 98 96 93 90 88 84 81 80 79 80 80 80 79 78 79
107 96 104 102 84 77 72 60 46 38 31 26 18 10 4 9 15 21 30 40 49 46 54 63 77 83 87 84 78 76 80 92 96 96 92 93 89 86 85 83 82 83 82 83 83 81 84
112 98 104 107 93 79 77 66 58 49 39 29 21 13 6 4 10 17 24 35 42 45 50 59 67 71 77 75 71 74 69 79 91 93 92 92 93 91 88 88 87 84 85 85 83 83 86
110 105 102 108 104 89 82 73 64 58 48 38 31 25 19 13 8 10 19 29 37 48 51 54 60 62 69 68 68 68 64 65 71 83 92 96 93 93 94 91 89 89 88 86 89 90 90
109 109 103 108 109 104 89 84 73 63 53 37 31 32 29 26 22 18 22 27 34 44 50 49 52 59 63 63 62 63 64 65 66 68 78 91 93 91 91 94 94 92 93 93 93 94 96
110 110 106 104 108 113 103 91 84 71 60 50 41 38 38 37 33 28 25 25 32 43 49 49 51 57 58 57 58 58 60 59 59 58 63 73 81 86 89 91 90 93 94 94 97 97 94
106 111 112 104 106 112 114 101 90 81 70 61 55 45 39 35 38 32 27 25 26 35 41 43 43 47 50 53 54 52 53 51 51 53 55 61 69 78 85 87 89 90 89 87 86 82 82
105 109 111 115 101 106 112 111 99 88 79 69 62 54 44 38 35 36 31 26 24 28 34 33 35 38 44 47 48 49 49 48 48 49 49 52 55 58 60 63 66 69 71 71 68 66 64
101 105 111 115 107 101 105 110 110 96 87 75 68 61 51 43 39 38 35 30 25 25 26 29 30 33 36 40 42 42 43 43 44 45 46 47 48 49 50 53 56 60 64 62 61 55 50
96 101 104 111 113 96 99 103 104 107 95 84 74 67 59 53 48 39 37 31 27 20 17 15 19 23 27 30 31 33 35 36 40 41 40 41 42 44 45 45 49 49 49 47 42 35 27
89 95 98 105 113 116 95 96 99 101 103 96 83 73 63 58 53 46 40 37 27 22 20 18 16 16 15 15 18 23 26 28 30 32 34 32 31 31 33 35 34 33 28 22 20 18 16
80 88 95 97 104 111 115 94 92 94 97 101 96 83 72 63 59 57 58 46 39 34 27 20 16 13 12 11 9 14 5 8 14 16 19 18 20 21 19 15 12 11 14 11 8 6 7
74 78 86 94 96 99 106 113 90 89 90 94 97 92 84 78 71 68 58 54 49 44 41 36 32 29 24 21 18 16 14 14 13 12 11 11 11 11 11 12 14 13 12 14 14 15 16
67 72 75 85 92 91 97 103 106 87 87 85 87 84 88 92 92 78 68 61 53 49 48 45 42 40 38 36 32 30 27 24 24 24 22 19 17 17 20 21 18 17 19 19 18 19 17
61 68 69 73 83 89 93 95 98 102 98 86 81 75 80 91 84 84 79 74 66 62 57 53 51 49 47 46 45 42 39 38 37 35 33 31 32 30 27 26 26 26 25 23 22 20 19
51 62 62 66 69 80 87 88 90 90 95 100 93 78 75 74 72 72 74 74 73 72 69 66 63 60 58 57 57 57 56 53 51 49 48 45 42 37 32 29 28 25 23 22 19 17 15
46 53 58 59 62 68 77 81 83 82 85 92 95 93 75 70 65 64 65 65 66 68 67 67 65 64 63 62 60 58 56 55 54 52 50 49 48 46 42 38 36 35 31 29 26 22 18
42 44 52 53 54 60 66 69 77 80 75 82 86 87 90 85 66 63 58 55 55 56 57 57 56 56 54 53 53 51 50 48 46 44 42 42 40 38 36 34 33 31 30 29 28 27 24
39 35 44 45 54 54 60 66 68 72 77 77 74 80 80 84 83 70 58 58 53 50 49 49 48 48 48 46 46 45 45 44 42 41 39 39 37 34 31 30 28 26 24 23 22 20 18
37 31 41 41 44 45 50 57 59 63 65 75 65 68 73 75 78 73 64 55 50 51 48 47 47 46 45 45 43 42 40 40 39 38 35 34 33 31 29 27 27 24 23 23 22 20 19
33 35 34 33 37 38 43 48 47 57 56 64 62 60 62 70 71 72 67 61 52 45 41 41 41 41 41 40 40 38 36 34 34 33 31 30 28 26 25 23 21 21 21 21 20 18 17
28 33 36 38 34 32 38 40 40 46 47 53 58 56 55 56 65 66 65 61 62 49 44 39 35 33 33 32 31 31 30 28 27 26 25 25 23 22 21 20 20 20 20 19 19 19 19
27 31 31 34 37 35 31 35 42 39 41 41 46 47 50 51 52 59 59 59 59 53 45 43 36 32 32 30 29 28 28 29 28 25 24 23 24 23 20 21 22 22 23 22 21 22 22
29 32 33 33 33 35 36 35 30 35 34 35 30 38 43 47 44 53 51 56 54 53 48 47 43 36 34 31 30 30 29 28 27 27 26 25 25 24 23 23 25 25 22 28 26 30 30
30 28 33 35 31 34 31 32 22 31 25 29 28 27 31 34 37 42 42 45 48 45 49 47 46 41 37 33 30 30 28 28 29 26 27 27 25 26 26 29 29 30 30 31 32 31 30

GFSGBSN_250_spd_105.txt.gz
Wind_Speed
88 78 86 86 78 69 65 58 50 43 39 39 40 42 49 56 59 60 69 76 85 89 95 98 96 94 104 107 101 97 93 91 88 83 81 81 84 91 98 102 101 100 98 97 94 94 94
91 81 89 84 75 68 55 48 44 39 33 31 29 31 36 46 50 56 58 65 71 78 85 94 94 94 92 99 104 100 97 95 89 83 80 78 76 76 77 76 80 87 98 99 98 96 97
88 86 95 88 74 69 57 48 41 32 25 22 21 20 25 33 40 48 54 57 62 68 79 85 92 92 91 90 97 104 102 97 92 86 81 79 77 75 74 72 72 74 76 80 86 90 93
92 86 98 96 79 70 60 50 42 34 26 19 12 13 16 21 31 36 44 48 55 60 70 77 85 88 86 88 87 94 105 101 95 89 86 82 79 77 76 75 76 73 74 74 73 72 74
96 88 101 103 87 75 65 58 50 43 32 23 15 9 8 14 20 27 33 41 48 53 57 67 76 81 83 86 85 86 92 102 96 93 87 85 84 82 78 78 77 76 76 77 75 75 75
111 89 99 108 94 81 72 62 54 49 42 29 17 10 4 5 14 22 31 41 42 44 51 62 72 78 81 80 81 79 78 91 99 95 92 89 88 85 82 80 80 80 80 80 78 79 80
111 99 95 107 105 87 78 68 59 53 46 36 22 16 9 5 10 20 31 38 36 39 47 55 63 66 75 75 76 74 74 72 88 98 92 91 89 89 86 85 86 84 85 85 83 82 83
109 112 95 104 109 96 83 78 67 60 50 38 26 20 15 12 12 16 25 32 36 40 43 44 51 65 70 73 75 70 68 65 69 76 84 93 93 94 93 90 87 88 88 87 86 85 86
106 115 106 101 107 108 91 84 76 66 58 43 33 27 23 19 18 19 22 29 35 37 35 38 47 54 61 63 66 69 65 64 65 64 66 74 82 89 92 90 90 90 91 90 89 89 89
103 110 118 98 104 109 105 89 83 74 67 57 44 35 32 29 26 22 21 26 35 37 31 35 42 49 54 57 62 65 61 61 62 60 61 65 70 76 81 90 94 93 93 92 91 93 93
97 109 112 116 112 106 109 103 87 83 73 67 60 49 40 35 35 31 26 25 30 30 27 29 34 40 45 50 53 56 58 59 58 58 58 57 56 61 68 76 85 89 90 91 92 93 91
90 100 107 112 115 110 105 109 100 88 84 70 66 61 53 48 40 36 36 33 31 27 25 24 28 35 43 47 51 55 55 54 53 53 53 51 50 52 57 64 72 78 80 81 83 86 86
89 93 104 109 115 116 104 103 107 101 90 82 72 63 57 53 48 43 36 33 29 28 24 22 22 27 34 39 43 45 46 46 46 47 49 49 49 51 53 52 51 52 55 57 61 64 65
85 87 99 103 108 112 117 106 101 102 98 89 82 70 59 54 50 46 40 32 26 23 22 19 18 21 28 33 35 37 39 41 41 42 44 44 43 40 38 39 40 42 46 51 55 56 54
79 81 90 95 102 108 107 116 108 97 95 97 91 77 67 58 52 49 50 47 37 28 23 19 16 16 19 22 26 28 29 31 32 32 32 34 35 35 36 39 41 46 44 44 42 41 39
72 76 81 89 96 98 101 109 108 110 95 93 96 87 74 69 65 60 56 46 43 41 37 30 25 22 19 15 16 18 20 22 24 27 30 31 32 33 34 34 31 30 29 27 23 18 13
63 69 76 83 86 90 100 97 104 107 104 94 90 81 79 80 79 73 58 52 48 44 41 37 34 31 26 23 19 17 16 15 17 17 18 19 18 19 19 18 16 14 11 9 7 10 9
54 61 70 76 81 79 86 92 96 102 101 98 91 81 78 85 92 80 70 63 57 52 49 47 44 41 39 36 32 29 26 23 19 18 16 14 12 9 9 8 10 11 13 16 14 15 11
48 54 62 64 72 78 75 81 86 94 97 96 89 87 81 83 78 76 77 77 71 65 61 59 54 51 49 47 44 40 37 34 30 28 25 24 22 20 18 17 15 15 15 14 12 11 11
41 47 55 59 63 71 72 73 76 82 90 91 87 87 82 76 68 65 66 67 68 69 69 69 68 66 64 62 61 59 57 53 49 44 40 38 36 33 31 28 24 22 20 17 15 12 12
37 40 47 55 52 62 64 66 71 73 75 81 84 85 86 73 67 64 60 57 57 58 58 58 57 57 57 56 55 54 53 51 50 48 46 44 42 40 37 35 33 31 27 26 24 23 21
34 36 40 44 47 51 58 61 63 62 69 68 77 79 79 80 72 64 57 56 53 52 51 50 50 49 49 49 48 48 46 45 43 41 39 37 35 33 32 30 28 27 25 23 21 18 16
32 28 35 39 42 47 50 54 55 59 61 65 64 67 69 80 75 71 64 59 48 45 46 46 45 44 44 43 42 41 39 37 35 33 32 30 28 26 24 23 22 20 19 16 14 13 12
29 25 28 34 34 41 44 49 46 53 56 56 54 60 64 65 74 69 66 66 60 53 48 41 38 37 37 36 35 35 34 33 31 29 28 26 25 23 22 21 21 21 20 19 19 19 19
28 21 30 25 31 34 39 41 38 47 47 47 50 50 53 57 61 63 66 63 63 59 51 46 43 42 38 34 30 27 26 25 24 24 22 21 21 21 21 21 22 22 20 20 21 21 21
23 17 26 23 25 32 29 33 31 40 34 42 43 42 47 47 51 54 57 55 61 56 57 51 45 37 34 32 31 29 26 26 26 25 23 22 22 23 22 21 19 21 22 20 20 21 22
24 22 20 21 22 29 31 25 24 33 27 32 35 39 35 40 41 43 49 48 50 58 52 50 48 44 39 37 32 32 28 27 28 29 27 27 25 21 22 20 20 21 21 22 23 24 24
28 21 19 18 18 32 27 25 18 27 27 26 31 33 35 30 35 31 37 46 42 45 47 48 44 45 43 40 37 35 34 31 29 28 27 26 28 26 26 26 28 28 27 27 27 30 32
25 26 31 30 26 28 30 22 21 27 31 28 25 28 31 32 31 33 28 31 32 35 38 35 40 39 42 36 37 37 37 33 31 29 28 29 30 29 26 28 29 31 32 37 37 35 35

GFSGBSN_250_spd_108.txt.gz
Wind_Speed
86 76 82 84 72 69 68 56 49 44 42 36 34 35 41 49 52 58 67 73 80 89 99 103 106 102 97 96 90 104 102 98 92 89 86 84 85 89 94 94 92 92 89 86 86 85 85
92 80 88 88 78 73 67 55 43 36 32 29 27 28 31 37 43 51 60 65 69 77 85 95 100 102 97 95 90 97 106 100 95 91 88 84 82 81 87 92 90 95 95 89 88 89 90
106 88 91 94 86 77 68 58 48 37 32 26 21 20 21 25 33 40 48 58 59 63 73 81 93 98 98 95 90 87 99 102 98 93 89 85 84 79 80 81 84 89 90 93 92 89 92
108 95 95 101 94 80 69 61 50 44 40 29 17 13 10 15 24 31 39 46 53 53 61 70 80 88 96 95 92 89 87 93 99 96 92 87 84 83 80 79 79 80 84 88 88 92 89
107 106 97 103 103 86 74 65 56 51 47 35 25 14 6 6 14 20 26 36 48 49 54 62 72 81 89 92 92 86 82 82 92 95 93 88 84 82 78 76 75 73 73 73 71 71 74
107 111 104 101 108 93 81 70 60 56 51 42 28 19 13 3 9 17 25 33 39 38 41 50 59 69 81 90 87 85 82 76 75 89 92 89 86 83 80 78 74 73 71 71 69 70 71
102 108 109 102 105 103 86 76 68 61 55 48 34 25 17 12 8 17 25 28 33 38 40 44 51 60 75 82 82 80 78 70 71 71 88 90 88 87 84 81 77 74 73 73 72 73 75
96 110 116 112 101 107 94 84 74 65 59 51 43 31 25 17 13 13 17 26 29 25 26 34 45 56 67 72 74 74 72 65 65 70 71 84 90 90 87 84 82 80 78 78 77 79 80
98 105 112 117 106 102 104 90 84 71 64 54 48 39 31 26 20 19 20 20 18 21 28 32 39 50 61 68 71 71 69 65 63 61 63 68 79 86 87 85 83 81 80 81 82 83 84
95 100 110 117 110 99 103 102 89 82 70 64 56 48 39 36 32 28 26 19 15 17 19 24 33 47 55 60 63 62 60 60 58 57 58 60 58 67 78 85 84 84 86 87 86 86 87
92 100 104 109 114 107 99 104 99 87 78 68 64 56 47 38 41 39 31 27 24 22 19 19 28 39 43 49 56 59 58 56 54 53 51 51 49 49 59 73 83 86 86 90 92 93 94
86 93 99 102 113 112 104 98 103 95 84 74 65 59 53 44 38 34 31 29 27 26 24 22 25 30 38 45 51 55 53 51 50 47 42 43 44 45 50 54 58 60 65 70 77 83 87
80 87 94 97 105 112 106 99 97 100 91 81 71 60 52 48 42 34 30 28 27 31 23 23 25 28 34 38 43 46 47 47 45 43 43 41 43 46 48 49 50 54 56 56 59 63 67
75 83 89 93 97 105 106 103 97 95 97 91 79 66 50 48 45 42 37 36 34 29 25 23 23 25 26 29 32 35 38 39 40 40 40 41 43 44 44 46 47 46 47 48 52 53 55
67 76 82 88 90 100 99 104 101 95 91 94 90 75 65 53 49 46 44 39 33 31 30 28 24 22 23 24 27 30 31 33 34 35 35 37 38 40 42 43 45 45 44 44 44 45 46
59 67 73 81 83 90 95 100 104 99 92 92 93 84 74 69 66 59 54 40 38 34 31 30 26 23 21 22 23 24 26 27 29 31 33 34 35 35 37 39 39 39 38 39 38 37 34
53 60 66 74 77 81 89 91 94 99 93 96 89 81 79 82 81 75 65 55 48 43 38 34 26 23 18 17 16 19 20 22 23 26 27 28 30 31 32 31 32 29 27 23 20 17 12
48 53 57 64 69 74 80 86 85 91 96 93 90 83 77 78 84 81 76 70 64 60 55 49 40 31 25 20 15 14 12 13 15 17 18 18 18 17 15 12 9 7 9 8 3 1 0
42 45 51 55 61 65 70 75 77 81 87 94 89 85 81 79 76 71 69 70 69 70 70 65 57 51 46 42 37 32 29 28 25 23 21 20 18 17 16 16 14 12 12 10 7 9 11
39 37 43 49 53 58 63 67 72 71 80 81 87 89 86 84 76 70 67 65 62 61 61 61 61 61 61 58 54 52 49 46 44 42 40 37 36 34 30 29 28 25 22 19 18 19 20
35 32 36 41 46 50 54 57 60 67 67 71 74 80 88 81 77 73 68 62 60 59 57 55 54 53 53 52 51 49 47 45 44 42 41 39 37 35 33 30 29 26 24 21 19 17 15
28 34 31 35 40 43 43 48 49 56 59 67 70 67 70 77 78 73 69 64 61 57 54 51 49 49 48 47 44 42 39 37 36 35 33 32 31 29 27 26 25 23 21 20 18 18 16
26 30 26 32 33 37 38 38 44 45 48 57 59 63 68 67 69 74 70 66 63 57 54 51 50 46 41 39 38 37 35 34 33 32 30 29 29 27 25 24 22 21 20 18 16 16 15
23 26 22 25 28 35 32 31 37 36 45 46 53 53 59 59 65 63 66 66 63 62 58 54 47 46 42 43 42 39 36 34 32 30 28 27 27 26 26 25 24 23 20 19 19 21 22
23 23 21 21 21 30 29 26 28 33 34 39 41 44 49 48 55 58 54 58 58 56 61 53 51 46 44 39 38 37 37 35 34 32 29 28 27 26 25 25 24 24 24 25 27 27 28
26 22 18 20 17 19 24 26 32 35 33 34 36 38 39 40 43 49 52 50 51 52 51 51 54 49 47 44 41 39 37 35 34 32 30 28 29 30 30 31 35 36 34 33 31 31 33
29 20 16 21 20 17 18 23 23 29 33 32 41 34 35 36 41 43 44 42 41 46 47 45 44 52 46 43 41 41 40 38 35 35 36 34 31 32 32 31 31 33 34 35 34 32 31
35 28 21 29 26 27 23 22 23 24 35 35 34 27 31 35 39 41 43 41 32 35 38 39 38 37 40 43 39 39 38 36 34 33 32 31 30 29 30 31 31 28 30 32 30 31 35
38 37 33 31 33 29 31 31 28 28 27 29 32 31 31 29 30 32 37 41 33 31 30 29 34 35 31 31 38 36 37 34 32 30 27 28 30 30 30 31 32 31 31 31 31 30 30

GFSGBSN_250_spd_111.txt.gz
Wind_Speed
92 100 89 85 85 76 71 61 53 44 34 30 30 30 30 35 46 55 60 63 78 93 103 108 102 101 96 93 92 102 109 105 99 94 90 89 86 88 89 90 90 86 84 85 82 78 83
91 103 94 89 93 82 74 63 53 43 32 25 20 20 21 25 33 42 49 56 68 79 86 99 107 104 101 96 92 93 104 104 100 95 91 87 85 83 83 82 84 88 85 81 82 82 79
95 107 98 92 98 85 76 65 58 47 36 26 21 16 15 18 25 31 37 47 59 68 75 82 94 103 104 99 100 91 92 101 99 96 91 86 84 84 82 79 78 78 82 84 84 85 83
93 109 104 93 100 90 77 69 63 52 45 35 25 16 10 8 14 20 27 35 45 57 68 70 78 89 98 101 99 94 90 89 101 101 96 91 87 84 81 78 77 77 78 75 79 83 85
95 111 109 100 100 96 81 70 66 58 50 41 31 22 13 5 4 10 19 29 39 49 58 64 68 78 91 101 104 99 92 87 87 96 98 93 89 86 82 79 77 75 75 74 73 73 82
99 104 113 106 99 100 85 73 67 60 55 46 36 29 22 13 6 10 16 23 31 40 51 56 58 64 72 86 101 102 94 90 86 84 89 92 91 89 85 79 77 76 75 73 71 70 71
101 103 110 110 100 102 91 80 73 66 59 50 42 38 33 24 14 11 15 21 28 35 39 40 44 52 61 74 97 99 97 90 84 77 78 74 83 91 87 84 80 77 76 74 72 74 74
96 103 110 114 105 98 98 88 75 73 66 56 45 44 43 39 30 21 17 17 20 26 31 33 38 46 56 66 80 93 94 89 82 77 73 67 68 77 85 85 81 79 75 73 73 73 75
92 102 106 105 108 97 100 95 84 72 70 61 55 46 43 40 35 30 24 19 16 18 20 25 33 41 49 59 69 81 83 83 81 76 70 66 63 62 70 79 84 81 78 76 76 77 76
88 96 101 105 110 101 97 103 91 75 68 63 56 53 46 42 38 32 28 25 20 20 21 24 30 38 45 54 64 74 79 79 77 72 65 59 56 53 51 60 74 79 79 79 79 80 80
82 89 97 99 106 107 98 99 103 85 70 65 58 52 48 45 43 38 34 29 26 23 19 20 25 31 38 47 56 62 67 67 67 61 57 52 48 49 50 51 57 68 76 78 80 84 84
75 83 91 96 100 105 104 97 97 98 84 70 61 54 46 44 44 42 39 35 31 29 23 20 23 25 30 38 45 52 56 55 54 53 50 47 44 44 46 47 48 50 58 68 75 80 84
70 76 84 90 96 101 104 99 95 94 99 86 75 63 49 45 46 45 44 44 40 32 26 25 24 26 28 33 39 45 50 51 47 46 45 43 43 40 40 42 44 46 44 46 49 54 61
65 70 78 84 88 94 97 102 101 94 94 98 91 74 63 54 52 51 49 47 43 35 32 28 25 25 25 26 32 39 44 44 42 40 39 40 39 38 39 40 40 39 38 41 45 46 49
58 64 69 78 80 86 88 98 100 98 91 92 92 88 76 68 62 60 55 46 39 40 38 33 28 24 24 24 26 31 36 38 37 37 37 37 37 36 35 35 35 36 40 41 43 45 46
54 57 63 68 74 79 83 87 95 100 93 91 90 85 85 88 79 68 60 47 43 39 39 35 33 29 26 22 21 24 27 29 32 33 33 33 34 33 33 31 32 35 36 37 37 39 39
49 50 55 62 67 69 77 78 86 91 95 90 91 86 86 84 86 86 69 57 48 42 41 36 33 31 29 24 22 19 19 20 21 23 25 25 25 25 26 29 30 31 33 34 35 33 28
42 46 49 56 59 61 66 74 76 81 86 89 87 80 84 86 86 79 77 77 69 59 52 43 35 30 27 23 22 18 17 16 15 16 17 17 20 22 23 24 27 28 25 13 2 2 4
36 43 43 46 51 55 58 63 69 74 77 83 85 84 84 84 80 77 74 72 71 71 69 63 54 46 40 31 26 19 15 12 10 10 10 11 13 11 8 11 16 17 17 17 14 13 13
30 36 38 37 45 48 52 54 59 66 70 73 79 79 79 84 80 74 70 69 66 66 65 64 61 59 57 52 47 43 38 34 31 29 27 27 27 27 27 25 26 26 25 22 20 18 16
25 30 35 34 37 41 43 44 51 57 63 64 68 73 73 75 75 76 74 68 65 63 59 58 57 55 53 51 48 47 45 44 42 41 39 37 34 32 30 28 26 23 21 20 18 17 16
22 24 29 29 34 36 38 41 40 48 52 58 61 63 68 69 73 70 75 71 68 61 58 57 55 52 49 46 45 43 42 40 39 37 36 34 32 30 28 26 24 23 23 24 23 22 21
22 22 23 26 26 31 36 36 39 41 47 48 54 57 60 62 62 66 67 68 66 65 63 59 54 51 48 48 46 44 42 42 41 38 36 35 33 31 29 27 25 25 24 23 22 21 21
22 21 19 20 18 21 24 29 33 38 39 40 44 48 51 54 56 56 58 60 59 62 61 60 59 57 53 49 46 44 40 37 36 36 35 35 35 36 37 36 35 32 31 31 33 30 29
26 22 21 17 13 14 20 23 27 30 35 36 38 39 42 45 50 50 51 51 54 53 53 54 59 54 51 50 46 45 44 42 40 40 40 38 37 36 36 37 37 36 34 33 32 30 27
28 26 24 23 18 21 18 19 26 23 29 32 33 32 35 36 39 44 45 45 46 46 45 48 47 48 51 47 43 43 43 41 39 38 37 37 37 37 36 32 30 30 29 28 27 27 29
32 30 31 28 23 24 25 25 23 24 25 25 28 33 31 31 27 33 36 40 37 42 39 39 40 40 42 43 45 42 38 37 36 35 34 33 32 31 30 29 29 29 28 27 29 29 33
34 34 34 34 29 26 27 30 29 23 23 26 26 26 24 23 28 25 28 35 37 35 35 35 36 38 39 39 41 41 38 34 32 33 30 30 28 29 29 29 29 28 28 29 29 30 30
40 36 36 36 35 35 31 32 33 35 28 24 24 23 23 16 19 25 25 26 28 33 34 37 34 34 33 34 34 36 38 34 33 30 33 34 35 29 27 27 29 29 29 29 31 32 33

GFSGBSN_250_spd_114.txt.gz
Wind_Speed
83 88 98 92 91 84 74 64 58 46 37 30 25 26 30 34 40 50 57 63 67 76 86 97 103 100 95 96 95 103 113 112 109 105 100 96 93 92 91 90 88 88 87 88 86 86 84
85 89 99 95 93 84 73 66 57 50 42 30 26 20 18 24 31 39 47 53 57 66 76 85 97 101 98 93 88 93 100 108 108 106 100 95 90 88 87 86 87 88 86 84 85 85 83
91 92 101 99 95 85 74 67 62 56 51 38 28 22 15 12 18 27 35 42 49 54 67 77 84 94 98 95 90 82 88 96 103 104 101 96 93 90 87 84 83 82 84 84 85 84 83
94 94 101 100 95 87 77 70 69 62 57 43 31 22 15 7 8 14 23 29 38 47 58 72 78 86 97 98 94 83 82 84 91 98 101 99 96 92 88 85 82 79 79 81 83 84 84
93 94 101 102 93 92 80 72 70 65 60 49 34 26 21 14 5 4 13 23 31 42 56 66 73 79 90 99 94 87 88 82 83 86 92 97 94 91 87 84 80 77 76 76 74 76 78
92 92 98 101 94 97 84 75 70 68 62 56 45 34 28 24 16 10 8 15 24 34 45 53 63 68 77 91 95 95 92 84 77 76 77 86 89 89 87 84 80 78 76 74 73 71 70
89 92 96 99 97 96 94 82 73 69 65 59 52 45 37 32 26 19 15 11 18 27 34 43 54 62 66 81 93 99 90 84 79 76 73 75 79 87 88 84 80 77 74 71 72 71 68
88 91 94 98 99 93 98 91 81 73 67 62 56 50 45 40 33 28 21 18 17 17 27 36 47 56 61 70 87 93 90 84 81 78 76 70 69 77 84 83 80 76 75 74 74 72 70
85 87 91 96 96 96 95 100 87 77 70 63 59 52 47 42 37 32 28 22 20 21 21 27 37 46 50 58 72 81 85 88 86 80 77 72 66 65 75 80 80 77 76 76 76 75 74
81 84 89 95 95 97 96 94 98 85 75 67 61 57 49 45 41 36 29 25 24 22 20 23 28 37 45 49 59 68 74 83 86 81 78 71 65 61 59 60 67 71 74 78 80 79 78
75 82 83 90 94 95 97 96 93 98 84 74 68 60 52 46 43 42 37 32 27 23 19 18 21 26 32 43 51 59 68 78 82 79 77 70 64 59 55 49 50 53 53 57 67 76 80
68 76 81 86 92 92 97 98 96 91 97 85 74 64 56 54 51 50 47 40 34 30 24 21 22 22 25 32 41 48 57 70 76 76 69 65 60 54 51 47 47 46 48 47 50 56 62
63 70 76 79 86 91 91 94 97 91 89 96 84 71 65 61 61 59 54 50 43 37 27 23 22 21 25 28 32 36 47 58 64 66 63 59 57 53 48 46 42 44 46 47 48 50 52
57 62 70 72 80 85 90 92 95 95 90 91 92 83 73 66 63 63 60 56 45 41 37 34 30 25 25 24 26 31 37 42 46 48 51 50 45 44 43 41 40 41 43 42 44 44 46
54 55 60 67 72 79 83 88 90 92 93 91 90 87 86 77 68 64 65 58 50 47 44 40 35 31 29 25 23 27 31 33 37 38 38 36 38 38 41 41 42 41 40 40 41 42 42
47 49 52 61 64 72 76 81 85 88 89 91 90 86 85 87 84 75 64 53 52 52 49 44 40 33 31 27 26 26 29 33 34 35 35 34 37 39 40 40 40 38 37 38 38 37 37
39 45 44 54 57 61 68 74 79 81 85 86 89 86 81 81 82 83 75 62 54 51 52 49 43 38 34 30 26 24 26 29 31 32 33 34 36 36 36 35 34 34 32 30 30 30 31
34 39 37 45 52 52 58 65 71 76 79 81 82 84 79 82 81 75 72 74 72 66 56 47 43 41 36 34 29 23 22 21 22 23 25 26 27 26 27 26 24 24 23 25 27 23 10
31 32 36 35 45 46 51 55 61 66 71 74 78 78 78 79 76 74 71 68 67 67 68 64 57 48 40 35 31 27 24 21 18 15 14 13 13 15 14 15 16 17 14 10 5 7 10
24 28 31 29 39 41 46 49 53 57 62 67 68 72 75 73 75 75 71 69 67 63 61 60 60 60 59 55 49 41 35 29 24 20 17 13 10 9 11 15 20 21 21 19 18 15 13
18 24 24 23 28 33 39 43 47 49 55 57 63 64 63 68 70 71 70 70 66 63 62 58 56 55 54 53 51 49 47 45 42 39 37 34 32 30 28 26 24 22 20 18 16 15 16
14 19 21 21 19 24 32 34 39 41 44 50 51 56 58 59 58 65 67 68 63 63 63 59 55 54 53 51 48 47 45 43 41 39 37 34 32 31 28 26 24 23 22 22 23 25 24
16 18 19 17 17 17 22 27 32 37 38 42 44 45 48 51 54 55 57 61 63 62 59 57 55 54 52 51 49 46 43 42 41 41 42 42 41 40 38 39 39 36 33 31 30 30 26
18 19 20 20 13 17 18 19 26 28 30 35 39 40 43 45 46 48 51 54 56 55 56 57 54 52 52 51 49 47 47 45 45 44 42 39 39 39 36 33 32 30 28 29 29 28 29
22 22 20 21 18 16 18 20 22 25 26 27 30 32 33 37 35 40 41 43 47 49 49 50 52 50 49 49 48 47 44 40 39 38 37 36 35 34 34 32 31 30 30 29 29 28 27
21 27 26 21 23 22 20 20 24 25 24 22 24 25 26 26 31 31 30 34 36 38 39 42 46 45 46 48 47 43 41 40 41 38 36 34 33 31 30 29 28 27 27 29 28 30 29
24 22 30 28 22 25 24 24 24 27 25 24 25 21 22 20 20 26 25 25 28 28 29 32 33 36 36 37 40 40 40 39 37 35 32 31 30 29 29 26 27 28 26 26 26 28 28
31 25 22 27 34 26 27 27 29 29 28 27 25 23 21 21 18 18 22 20 20 23 26 25 29 31 30 33 33 32 33 34 36 36 35 32 28 23 23 21 20 20 20 23 23 25 26
40 35 34 34 34 33 30 32 31 36 32 30 31 29 25 22 22 23 20 21 17 17 16 21 22 26 26 25 27 27 30 30 30 30 30 26 28 27 24 21 23 25 25 26 28 29 30

GFSGBSN_250_spd_117.txt.gz
Wind_Speed
72 81 87 91 84 85 74 64 55 48 40 31 27 22 23 25 28 35 42 51 61 66 77 98 103 102 109 117 119 119 118 113 109 106 104 101 101 99 97 94 95 92 90 88 87 85 82
75 83 88 93 86 88 74 63 54 51 46 40 32 25 16 16 22 27 33 38 48 53 61 79 98 101 102 101 109 117 118 115 109 105 104 100 98 98 97 95 91 90 90 89 87 86 84
78 84 91 94 88 90 78 65 56 52 50 44 36 27 18 11 15 19 24 32 38 41 53 67 84 99 102 99 92 107 114 113 110 108 103 103 99 96 95 94 91 88 88 87 86 84 83
79 85 91 95 93 90 85 70 60 55 54 50 42 31 19 11 5 12 17 23 30 39 46 61 77 90 102 97 98 94 96 107 110 107 106 103 101 98 96 93 91 88 87 86 84 82 81
79 86 89 96 96 91 92 77 65 59 58 51 44 38 27 18 8 3 12 20 26 35 46 56 69 80 91 101 101 94 86 89 93 98 100 101 99 99 97 94 90 86 83 82 81 79 77
79 84 90 97 98 92 95 83 70 62 61 55 48 43 35 24 15 7 9 14 23 31 41 50 59 72 81 101 102 99 85 82 81 82 86 90 92 93 94 92 86 85 82 78 77 74 73
79 82 91 96 98 94 94 90 77 68 64 59 51 43 39 31 24 17 13 13 14 22 33 40 49 62 76 89 103 92 83 82 79 75 72 74 78 83 89 89 87 85 82 79 77 74 72
76 80 88 94 98 96 93 96 82 72 69 63 56 47 41 37 34 29 22 18 18 22 28 32 39 52 66 76 86 89 86 85 79 72 66 64 67 71 76 81 84 83 82 78 75 73 71
70 81 86 90 95 95 95 93 91 77 69 67 61 52 45 39 37 36 34 27 23 20 23 26 34 48 57 67 77 88 89 84 77 70 63 59 57 59 62 67 71 76 77 76 74 73 71
66 76 81 86 92 95 95 93 95 89 74 70 66 58 49 42 37 37 35 35 32 24 22 23 28 39 50 57 66 79 74 77 75 69 65 60 51 48 48 48 52 60 67 70 71 73 72
60 69 76 83 89 92 93 94 92 94 86 72 70 66 61 51 44 41 37 32 31 30 25 22 26 32 38 44 50 59 67 75 75 73 67 59 51 45 43 42 42 45 48 56 65 69 70
57 62 74 75 83 88 90 93 92 91 93 83 72 68 66 64 59 52 44 38 34 30 24 21 23 24 29 34 37 43 49 64 74 71 65 60 54 49 46 43 40 40 38 40 48 57 60
54 57 65 71 76 81 90 89 92 90 88 90 84 71 67 66 65 62 56 49 42 36 27 24 23 24 23 24 26 31 40 58 71 71 67 61 57 49 45 42 40 38 37 37 38 43 49
49 53 56 65 69 75 84 87 87 90 87 86 88 84 72 66 67 65 62 57 50 40 34 31 28 24 22 23 25 30 37 44 56 69 68 65 57 50 45 42 41 38 37 38 42 46 49
42 45 52 58 62 69 75 84 85 85 88 85 85 83 84 74 67 66 67 62 56 52 47 41 37 30 27 25 26 25 26 30 37 44 55 53 50 47 44 44 42 40 40 42 44 47 48
38 41 46 52 57 62 67 75 81 83 84 85 85 84 80 83 81 71 64 57 56 55 52 48 46 39 35 33 30 27 28 29 34 38 42 45 46 45 41 39 38 39 40 44 47 46 46
29 36 35 45 52 56 59 64 73 76 80 80 82 83 80 78 81 81 71 58 56 55 54 51 47 45 42 38 35 33 32 30 29 31 33 35 37 38 37 34 34 38 42 44 44 42 38
23 29 26 37 43 50 54 58 63 69 74 73 76 76 80 77 77 72 71 74 64 55 53 52 47 44 43 40 34 32 30 30 29 28 25 26 27 30 31 36 38 38 38 38 35 33 32
19 21 22 28 35 41 48 51 55 60 65 72 69 73 74 75 77 72 69 68 69 70 64 53 46 44 42 39 33 29 26 25 26 26 27 28 29 30 29 29 28 28 27 26 22 14 9
16 15 20 20 26 34 38 43 48 52 56 61 64 65 69 73 73 73 69 66 66 65 63 61 60 55 47 39 34 30 27 24 21 17 15 14 15 16 17 17 17 14 10 9 9 9 8
15 15 15 20 18 25 32 35 37 45 48 50 56 59 63 64 69 70 69 67 67 66 60 58 57 54 52 51 48 46 43 39 35 31 28 26 24 22 21 20 18 16 16 15 16 20 24
15 16 14 15 17 16 25 30 31 37 38 42 44 47 53 56 58 59 64 64 64 65 65 63 59 56 52 50 47 45 43 41 39 37 34 32 29 27 26 25 27 30 31 29 28 26 26
20 17 18 13 15 13 20 25 28 31 32 35 34 39 42 45 50 50 54 54 56 59 64 61 58 58 58 56 53 51 48 45 43 41 40 39 38 37 37 36 35 33 32 30 30 31 34
15 15 17 18 14 16 13 20 22 27 28 27 31 29 32 36 36 41 43 49 48 50 51 53 54 55 56 54 50 48 48 46 43 42 41 39 39 37 36 35 33 32 31 29 28 26 25
27 12 15 21 20 15 17 16 19 22 25 25 25 25 24 25 30 29 33 35 38 38 42 42 44 44 46 48 46 44 43 39 38 37 37 36 34 33 32 28 28 28 28 26 25 24 24
30 27 18 16 22 21 17 17 18 20 22 24 24 25 22 20 21 25 25 23 28 26 29 33 36 31 35 37 40 38 38 38 38 36 32 31 32 31 28 27 24 25 23 20 18 19 20
34 34 30 23 20 20 21 19 20 20 21 24 23 24 26 24 22 21 21 23 20 20 22 22 26 29 25 28 28 27 32 32 30 32 33 28 26 24 25 23 24 24 24 23 20 20 19
38 39 33 29 27 21 22 25 26 27 26 23 25 23 23 26 27 25 24 22 24 22 22 20 20 21 25 26 24 24 26 27 32 29 26 24 24 20 19 22 22 25 24 25 25 26 25
41 39 39 36 32 33 31 23 23 28 27 29 23 25 23 22 25 25 29 27 25 23 25 27 24 25 25 23 24 25 26 23 22 22 22 24 28 26 21 21 24 25 25 24 25 27 30